[[{"header":{"parameterUnit":"m.s-1","parameterCategory":1,"la1":30.6,"la2":29.2853,"lo1":-89.7004,"lo2":-87.6739,"dy":0.0162,"dx":0.0183,"nx":112,"ny":82,"refTime":"2023-07-02T12:00:00:Z","depth":0,"parameterNumber":2,"parameterNumberName":"U-component_of_WINDS"},"data":[0.0,0.0,0.0,0.0,0.0,0.0,0.0,0.0,0.0,0.0,0.0,0.0,0.0,0.0,0.0,0.0,0.0,0.0,0.0,0.0,0.0,0.0,0.0,0.0,0.0,0.0,0.0,0.0,0.0,0.0,0.0,0.0,0.0,0.0,0.0,0.0,0.0,0.0,0.0,0.0,0.0,0.0,0.0,0.0,0.0,0.0,0.0,0.0,0.0,0.0,0.0,0.0,0.0,0.0,0.0,0.0,0.0,0.0,0.0,0.0,0.0,0.0,0.0,0.0,0.0,0.0,0.0,0.0,0.0,0.0,0.0,0.0,0.0,0.0,0.0,0.0,0.0,0.0,0.0,0.0,0.0,0.0,0.0,0.0,0.0,0.0,0.0,0.0,0.0,0.0,-1.4935,-1.5956,-1.5417,-1.5471,-1.6664,-1.5613,-1.5204,-1.5762,0.0,0.0,0.0,0.0,0.0,0.0,0.0,0.0,0.0,0.0,0.0,0.0,0.0,0.0,0.0,0.0,0.0,0.0,0.0,0.0,0.0,0.0,0.0,0.0,0.0,0.0,0.0,0.0,0.0,0.0,0.0,0.0,0.0,0.0,0.0,0.0,0.0,0.0,0.0,0.0,0.0,0.0,0.0,0.0,0.0,0.0,0.0,0.0,0.0,0.0,0.0,0.0,0.0,0.0,0.0,0.0,0.0,0.0,0.0,0.0,0.0,0.0,0.0,0.0,0.0,0.0,0.0,0.0,0.0,0.0,0.0,0.0,0.0,0.0,0.0,0.0,0.0,0.0,0.0,0.0,0.0,0.0,0.0,0.0,0.0,0.0,0.0,0.0,0.0,0.0,0.0,0.0,0.0,0.0,0.0,0.0,0.0,0.0,0.0,0.0,0.0,0.0,0.0,0.0,-1.5852,-1.5833,-1.6245,-1.6376,-1.5965,-1.6315,-1.6315,-1.5833,0.0,0.0,0.0,0.0,0.0,0.0,0.0,0.0,0.0,0.0,0.0,0.0,0.0,0.0,0.0,0.0,0.0,0.0,0.0,0.0,0.0,0.0,0.0,0.0,0.0,0.0,0.0,0.0,0.0,0.0,0.0,0.0,0.0,0.0,0.0,0.0,0.0,0.0,0.0,0.0,0.0,0.0,0.0,0.0,0.0,0.0,0.0,0.0,0.0,0.0,0.0,0.0,0.0,0.0,0.0,0.0,0.0,0.0,0.0,0.0,0.0,0.0,0.0,0.0,0.0,0.0,0.0,0.0,0.0,0.0,0.0,0.0,0.0,0.0,0.0,0.0,0.0,0.0,0.0,0.0,0.0,0.0,0.0,0.0,0.0,0.0,0.0,0.0,0.0,0.0,0.0,0.0,0.0,0.0,0.0,0.0,0.0,0.0,0.0,0.0,0.0,0.0,0.0,-1.602,-1.6682,-1.6455,-1.6315,-1.6315,-1.6385,-1.5965,-1.5692,-1.5762,-1.5833,0.0,0.0,0.0,0.0,0.0,0.0,0.0,0.0,0.0,0.0,0.0,0.0,0.0,0.0,0.0,0.0,0.0,0.0,0.0,0.0,0.0,0.0,0.0,0.0,0.0,0.0,0.0,0.0,0.0,0.0,0.0,0.0,0.0,0.0,0.0,0.0,0.0,0.0,0.0,0.0,0.0,0.0,0.0,0.0,0.0,0.0,0.0,0.0,0.0,0.0,0.0,0.0,0.0,0.0,0.0,0.0,0.0,0.0,0.0,0.0,0.0,0.0,0.0,0.0,0.0,0.0,0.0,0.0,0.0,0.0,0.0,0.0,0.0,0.0,0.0,0.0,0.0,0.0,0.0,0.0,0.0,0.0,0.0,0.0,0.0,0.0,0.0,0.0,0.0,0.0,0.0,0.0,0.0,0.0,0.0,0.0,0.0,0.0,0.0,0.0,0.0,0.0,-1.6231,-1.6888,-1.7009,-1.6298,-1.6105,-1.6862,-1.5683,-1.5133,-1.5762,-1.5833,0.0,0.0,0.0,0.0,0.0,0.0,0.0,0.0,0.0,0.0,0.0,0.0,0.0,0.0,0.0,0.0,0.0,0.0,0.0,0.0,0.0,0.0,0.0,0.0,0.0,0.0,0.0,0.0,0.0,0.0,0.0,0.0,0.0,0.0,0.0,0.0,0.0,0.0,0.0,0.0,0.0,0.0,0.0,0.0,0.0,0.0,0.0,0.0,0.0,0.0,0.0,0.0,0.0,0.0,0.0,0.0,0.0,0.0,0.0,0.0,0.0,0.0,0.0,0.0,0.0,0.0,0.0,0.0,0.0,0.0,0.0,0.0,0.0,0.0,0.0,0.0,0.0,0.0,0.0,0.0,0.0,0.0,0.0,0.0,0.0,0.0,0.0,0.0,0.0,0.0,0.0,0.0,0.0,0.0,0.0,0.0,0.0,0.0,0.0,0.0,0.0,0.0,-1.5838,-1.5863,-1.7216,-1.6395,-1.6105,-1.6862,-1.6175,-1.5762,-1.5833,-1.5833,0.0,0.0,0.0,0.0,0.0,0.0,0.0,0.0,0.0,0.0,0.0,0.0,0.0,0.0,0.0,0.0,0.0,0.0,0.0,0.0,0.0,0.0,0.0,0.0,0.0,0.0,0.0,0.0,0.0,0.0,0.0,0.0,0.0,0.0,0.0,0.0,0.0,0.0,0.0,0.0,0.0,0.0,0.0,0.0,0.0,0.0,0.0,0.0,0.0,0.0,0.0,0.0,0.0,0.0,0.0,0.0,0.0,0.0,0.0,0.0,0.0,0.0,0.0,0.0,0.0,0.0,0.0,0.0,0.0,0.0,0.0,0.0,0.0,0.0,0.0,0.0,0.0,0.0,0.0,0.0,0.0,0.0,0.0,0.0,0.0,0.0,0.0,0.0,0.0,0.0,0.0,0.0,0.0,0.0,0.0,0.0,0.0,0.0,0.0,0.0,0.0,0.0,-1.6534,-1.6745,-1.6976,-1.6624,-1.6547,-1.6832,-1.6169,-1.5856,-1.6131,0.0,0.0,0.0,0.0,0.0,0.0,0.0,0.0,0.0,0.0,0.0,0.0,0.0,0.0,0.0,0.0,0.0,0.0,0.0,0.0,0.0,0.0,0.0,0.0,0.0,0.0,0.0,0.0,0.0,0.0,0.0,0.0,0.0,0.0,0.0,0.0,0.0,0.0,0.0,0.0,0.0,0.0,0.0,0.0,0.0,0.0,0.0,0.0,0.0,0.0,0.0,0.0,0.0,0.0,0.0,0.0,0.0,0.0,0.0,0.0,0.0,0.0,0.0,0.0,0.0,0.0,0.0,0.0,0.0,0.0,0.0,0.0,0.0,0.0,0.0,0.0,0.0,0.0,0.0,0.0,0.0,0.0,0.0,0.0,0.0,0.0,0.0,0.0,0.0,0.0,0.0,0.0,0.0,0.0,0.0,0.0,0.0,0.0,0.0,0.0,0.0,0.0,-1.6536,-1.6885,-1.7132,-1.6988,-1.6657,-1.6522,-1.675,-1.6133,-1.5902,-1.628,0.0,0.0,0.0,0.0,0.0,0.0,0.0,0.0,0.0,0.0,0.0,0.0,0.0,0.0,0.0,0.0,0.0,0.0,0.0,0.0,0.0,0.0,0.0,0.0,0.0,0.0,0.0,0.0,0.0,0.0,0.0,0.0,0.0,0.0,0.0,0.0,0.0,0.0,0.0,0.0,0.0,0.0,0.0,0.0,0.0,0.0,0.0,0.0,0.0,0.0,0.0,0.0,0.0,0.0,0.0,0.0,0.0,0.0,0.0,0.0,0.0,0.0,0.0,0.0,0.0,0.0,0.0,0.0,0.0,0.0,0.0,0.0,0.0,0.0,0.0,0.0,0.0,0.0,0.0,0.0,0.0,0.0,0.0,0.0,0.0,0.0,0.0,0.0,0.0,0.0,0.0,0.0,0.0,0.0,0.0,0.0,0.0,0.0,0.0,0.0,0.0,0.0,-1.7301,-1.6685,-1.6515,-1.7206,-1.6346,-1.5996,-1.6758,-1.6149,-1.5834,0.0,0.0,0.0,0.0,0.0,0.0,0.0,0.0,0.0,0.0,0.0,0.0,0.0,0.0,0.0,0.0,0.0,0.0,0.0,0.0,0.0,0.0,0.0,0.0,0.0,0.0,0.0,0.0,0.0,0.0,0.0,0.0,0.0,0.0,0.0,0.0,0.0,0.0,0.0,0.0,0.0,0.0,0.0,0.0,0.0,0.0,0.0,0.0,0.0,0.0,0.0,0.0,0.0,0.0,0.0,0.0,0.0,0.0,0.0,0.0,0.0,0.0,0.0,0.0,0.0,0.0,0.0,0.0,0.0,0.0,0.0,0.0,0.0,0.0,0.0,0.0,0.0,0.0,0.0,0.0,0.0,0.0,0.0,0.0,0.0,0.0,0.0,0.0,0.0,0.0,0.0,0.0,0.0,0.0,0.0,0.0,0.0,0.0,0.0,0.0,0.0,0.0,0.0,-1.7177,-1.683,-1.666,-1.6887,-1.6557,-1.6501,-1.6742,-1.609,-1.6,-1.6623,0.0,0.0,0.0,0.0,0.0,0.0,0.0,0.0,0.0,0.0,0.0,0.0,0.0,0.0,0.0,0.0,0.0,0.0,0.0,0.0,0.0,0.0,0.0,0.0,0.0,0.0,0.0,0.0,0.0,0.0,0.0,0.0,0.0,0.0,0.0,0.0,0.0,0.0,0.0,0.0,0.0,0.0,0.0,0.0,0.0,0.0,0.0,0.0,0.0,0.0,0.0,0.0,0.0,0.0,0.0,0.0,0.0,0.0,0.0,0.0,0.0,0.0,0.0,0.0,0.0,0.0,0.0,0.0,0.0,0.0,0.0,0.0,0.0,0.0,0.0,0.0,0.0,0.0,0.0,0.0,0.0,0.0,0.0,0.0,0.0,0.0,0.0,0.0,0.0,0.0,0.0,0.0,0.0,0.0,0.0,0.0,0.0,0.0,0.0,0.0,0.0,0.0,-1.711,-1.6842,-1.673,-1.673,-1.673,-1.673,-1.673,-1.6072,-1.5909,-1.6378,0.0,0.0,0.0,0.0,0.0,0.0,0.0,0.0,0.0,0.0,0.0,0.0,0.0,0.0,0.0,0.0,0.0,0.0,0.0,0.0,0.0,0.0,0.0,0.0,0.0,0.0,0.0,0.0,0.0,0.0,0.0,0.0,0.0,0.0,0.0,0.0,0.0,0.0,0.0,0.0,0.0,0.0,0.0,0.0,0.0,0.0,0.0,0.0,0.0,0.0,0.0,0.0,0.0,0.0,0.0,0.0,0.0,0.0,0.0,0.0,0.0,0.0,0.0,0.0,0.0,0.0,0.0,0.0,0.0,0.0,0.0,0.0,0.0,0.0,0.0,0.0,0.0,0.0,0.0,0.0,0.0,0.0,0.0,0.0,0.0,0.0,0.0,0.0,0.0,0.0,0.0,0.0,0.0,0.0,0.0,0.0,0.0,0.0,0.0,0.0,0.0,0.0,-1.711,-1.6842,-1.673,-1.673,-1.6648,-1.6566,-1.6566,-1.5906,-1.5584,-1.572,0.0,0.0,0.0,0.0,0.0,0.0,0.0,0.0,0.0,0.0,0.0,0.0,0.0,0.0,0.0,0.0,0.0,0.0,0.0,0.0,0.0,0.0,0.0,0.0,0.0,0.0,0.0,0.0,0.0,0.0,0.0,0.0,0.0,0.0,0.0,0.0,0.0,0.0,0.0,0.0,0.0,0.0,0.0,0.0,0.0,0.0,0.0,0.0,0.0,0.0,0.0,0.0,0.0,0.0,0.0,0.0,0.0,0.0,0.0,0.0,-1.8518,-1.8283,0.0,0.0,0.0,0.0,0.0,0.0,0.0,0.0,0.0,0.0,0.0,0.0,0.0,0.0,0.0,0.0,0.0,0.0,0.0,0.0,0.0,0.0,0.0,0.0,0.0,0.0,0.0,0.0,0.0,0.0,0.0,0.0,0.0,0.0,0.0,0.0,0.0,0.0,0.0,0.0,-1.6893,-1.6771,-1.673,-1.673,-1.6237,-1.5899,-1.5899,-1.4817,-1.4351,-1.4999,-1.379,0.0,0.0,0.0,0.0,0.0,0.0,0.0,0.0,0.0,0.0,0.0,0.0,0.0,0.0,0.0,0.0,0.0,0.0,0.0,0.0,0.0,0.0,0.0,0.0,0.0,0.0,0.0,0.0,0.0,0.0,0.0,0.0,0.0,0.0,0.0,0.0,0.0,0.0,0.0,0.0,0.0,0.0,0.0,0.0,0.0,0.0,0.0,0.0,0.0,0.0,0.0,0.0,0.0,0.0,0.0,0.0,0.0,0.0,0.0,-1.8684,-1.8575,0.0,0.0,0.0,0.0,0.0,0.0,0.0,0.0,0.0,0.0,0.0,0.0,0.0,0.0,0.0,0.0,0.0,0.0,0.0,0.0,0.0,0.0,0.0,0.0,0.0,0.0,0.0,0.0,0.0,0.0,0.0,0.0,0.0,0.0,0.0,0.0,0.0,0.0,0.0,0.0,-1.6497,-1.6038,-1.5733,-1.5733,-1.5401,-1.5235,-1.5235,-1.4321,-1.3833,-1.4248,-1.32,0.0,0.0,0.0,0.0,0.0,0.0,0.0,0.0,0.0,0.0,0.0,0.0,0.0,0.0,0.0,0.0,0.0,0.0,0.0,0.0,0.0,0.0,0.0,0.0,0.0,0.0,0.0,0.0,0.0,0.0,0.0,0.0,0.0,0.0,0.0,0.0,0.0,0.0,0.0,0.0,0.0,0.0,0.0,0.0,0.0,0.0,0.0,0.0,0.0,0.0,0.0,0.0,0.0,-1.8826,-1.8789,-1.8789,-1.8789,-1.8901,-1.9047,-1.8864,-1.8864,-1.8993,-1.8597,0.0,0.0,0.0,0.0,0.0,0.0,0.0,0.0,0.0,0.0,0.0,0.0,0.0,0.0,0.0,0.0,0.0,0.0,0.0,0.0,0.0,0.0,-1.3819,-1.3819,-1.395,-1.4268,-1.49,0.0,0.0,0.0,0.0,0.0,0.0,0.0,0.0,0.0,0.0,0.0,-1.5867,-1.5175,-1.4734,-1.4734,-1.4566,-1.4566,-1.4566,-1.3899,-1.3561,-1.3561,-1.2918,-1.2609,0.0,0.0,0.0,0.0,0.0,0.0,0.0,0.0,0.0,0.0,0.0,0.0,0.0,0.0,0.0,0.0,0.0,0.0,0.0,0.0,0.0,0.0,0.0,0.0,0.0,0.0,0.0,0.0,0.0,0.0,0.0,0.0,-1.8414,-1.8488,0.0,0.0,0.0,0.0,0.0,0.0,0.0,0.0,0.0,0.0,0.0,0.0,0.0,-1.881,-1.873,-1.8854,-1.8947,-1.8928,-1.9136,-1.9224,-1.9224,-1.9224,-1.9252,-1.9228,-1.9252,0.0,-1.904,-1.8928,0.0,0.0,0.0,0.0,0.0,0.0,0.0,0.0,0.0,0.0,0.0,0.0,0.0,0.0,0.0,0.0,0.0,0.0,0.0,0.0,0.0,0.0,-1.4052,-1.4052,-1.4072,-1.4169,-1.4226,-1.4874,-1.5478,-1.5391,-1.5507,-1.567,0.0,0.0,0.0,0.0,0.0,0.0,-1.5026,-1.4832,-1.4734,-1.4734,-1.4153,-1.3822,-1.3822,-1.3215,-1.279,-1.279,-1.276,-1.2632,-1.2572,-1.2612,0.0,0.0,0.0,0.0,0.0,0.0,0.0,0.0,0.0,0.0,0.0,0.0,0.0,0.0,0.0,0.0,0.0,0.0,0.0,0.0,0.0,0.0,0.0,0.0,0.0,0.0,0.0,0.0,0.0,-1.8442,-1.8783,-1.9545,-1.9514,-1.9634,0.0,0.0,0.0,0.0,0.0,0.0,0.0,0.0,0.0,-2.0419,-2.0146,-1.9681,-1.9019,-1.9118,-1.9201,-1.9192,-1.9298,-1.9182,-1.8971,-1.8971,-1.8852,-1.8641,-1.8641,-1.855,-1.8478,-1.8308,-1.8172,-1.7904,0.0,0.0,0.0,0.0,-1.5487,-1.4805,-1.4589,-1.4236,-1.3822,-1.377,0.0,0.0,0.0,0.0,0.0,0.0,0.0,-1.3815,-1.3892,-1.3905,-1.4047,-1.4048,-1.4088,-1.4088,-1.4088,-1.442,-1.4626,-1.4446,-1.443,-1.4451,-1.4441,-1.4607,0.0,0.0,0.0,-1.4409,-1.4391,-1.3868,-1.3548,-1.3548,-1.33,-1.3137,-1.3137,-1.2875,-1.2705,-1.2705,-1.2705,-1.248,-1.1855,-1.1801,-1.1598,0.0,0.0,0.0,0.0,0.0,0.0,0.0,0.0,0.0,0.0,0.0,0.0,0.0,0.0,0.0,0.0,0.0,0.0,0.0,0.0,0.0,0.0,0.0,0.0,0.0,0.0,0.0,0.0,-1.8757,-1.8926,-2.0111,-2.0006,-2.017,0.0,0.0,0.0,0.0,0.0,0.0,-2.2628,-2.2351,-2.186,-2.11,-2.0737,-2.0138,-1.9301,-1.9201,-1.9155,-1.9155,-1.9045,-1.8843,-1.8568,-1.8568,-1.8403,-1.8128,-1.8128,-1.797,-1.7764,-1.7576,-1.7466,-1.7345,-1.6279,-1.5813,-1.5739,-1.561,-1.5202,-1.4742,-1.4685,-1.436,-1.3811,-1.3892,-1.3919,-1.3904,-1.3833,0.0,0.0,0.0,0.0,-1.3853,-1.3926,-1.3926,-1.398,-1.4119,-1.4088,-1.4088,-1.4088,-1.4112,-1.3928,-1.3698,-1.3479,-1.3386,-1.3331,-1.3546,0.0,-1.3993,-1.3718,-1.3552,-1.3619,-1.3077,-1.2705,-1.2705,-1.2705,-1.2705,-1.2705,-1.2705,-1.2619,-1.2357,-1.2357,-1.1923,-1.0977,-1.0895,-1.0683,-1.0186,0.0,0.0,0.0,0.0,0.0,0.0,0.0,0.0,0.0,0.0,0.0,0.0,0.0,0.0,0.0,0.0,0.0,0.0,0.0,0.0,0.0,0.0,0.0,0.0,0.0,0.0,0.0,0.0,0.0,-1.964,-2.0461,0.0,0.0,0.0,0.0,-2.2604,-2.2559,-2.2593,-2.2797,-2.172,-2.111,-2.1191,-2.0051,-1.9353,-1.9301,-1.8935,-1.8742,-1.8742,-1.8366,-1.8174,-1.8155,-1.8155,-1.8146,-1.8128,-1.8128,-1.7662,-1.7052,-1.707,-1.6854,-1.6581,-1.5823,-1.5381,-1.5191,-1.4513,-1.4268,-1.4207,-1.3835,-1.3641,-1.3641,-1.3811,-1.3849,-1.3815,-1.3865,-1.3822,0.0,0.0,-1.3865,-1.394,-1.4072,-1.4062,-1.4068,-1.4082,-1.4088,-1.4088,-1.4088,-1.4034,-1.3912,-1.3749,-1.3535,-1.3348,-1.332,0.0,-1.2946,-1.2934,-1.2953,-1.2901,-1.282,-1.2693,-1.2705,-1.2705,-1.2705,-1.2705,-1.2705,-1.2705,-1.2357,-1.1408,-1.1413,-1.0971,-1.0009,-1.0,-0.9904,-0.9798,-0.903,0.0,0.0,0.0,0.0,0.0,0.0,0.0,0.0,0.0,0.0,0.0,0.0,0.0,0.0,0.0,0.0,0.0,0.0,0.0,0.0,0.0,0.0,0.0,0.0,0.0,0.0,0.0,0.0,-2.0227,-2.0346,0.0,-2.164,-2.1588,-2.1925,-2.2655,-2.2446,-2.248,-2.2886,-2.2147,-2.1411,-2.0828,-1.9975,-1.9285,-1.8926,-1.8779,-1.8843,-1.9091,-1.8944,-1.8751,-1.8504,-1.8504,-1.8366,-1.8044,-1.7512,-1.7128,-1.68,-1.5487,-1.5078,-1.5163,-1.4337,-1.3964,-1.3877,-1.3614,-1.3578,-1.3535,-1.3366,-1.3367,-1.3394,-1.3662,-1.3865,-1.4035,-1.3985,-1.402,-1.4035,-1.3985,-1.4018,-1.4038,-1.4062,-1.4088,-1.4088,-1.4088,-1.4088,-1.4088,-1.4088,-1.4092,-1.3961,-1.3717,-1.3587,-1.3513,-1.3497,-1.3208,-1.3098,-1.3175,-1.2964,-1.2765,-1.2693,-1.2705,-1.2705,-1.2705,-1.2705,-1.2705,-1.2705,-1.2186,-1.1671,-1.1322,-1.0712,-1.0014,-0.9061,-0.8973,-0.8678,-0.8095,-0.7752,-0.7759,0.0,0.0,0.0,0.0,0.0,0.0,0.0,0.0,0.0,0.0,0.0,0.0,0.0,0.0,0.0,0.0,0.0,0.0,0.0,0.0,0.0,0.0,0.0,0.0,0.0,-1.9104,-1.9372,-2.0227,-2.0182,-2.0446,-2.1386,-2.1188,-2.1395,-2.2218,-2.1997,-2.1939,-2.2392,-2.1787,-2.112,-2.0516,-1.9812,-1.9275,-1.8916,-1.8779,-1.8843,-1.91,-1.8971,-1.877,-1.8513,-1.8513,-1.8215,-1.7662,-1.7052,-1.6514,-1.5871,-1.4561,-1.4077,-1.3952,-1.3212,-1.2966,-1.3053,-1.3053,-1.3053,-1.3053,-1.3053,-1.312,-1.324,-1.3434,-1.3701,-1.3851,-1.3593,-1.3581,-1.3568,-1.3222,-1.3392,-1.3652,-1.3652,-1.3828,-1.4088,-1.4088,-1.4088,-1.4088,-1.4088,-1.4004,-1.3913,-1.3737,-1.3664,-1.3622,-1.3457,-1.3277,-1.3134,-1.3105,-1.2872,-1.2668,-1.2668,-1.265,-1.2613,-1.2272,-1.2272,-1.2095,-1.1746,-1.1417,-1.0979,-1.0366,-1.0034,-0.9334,-0.8101,-0.8051,-0.7763,-0.7152,-0.7068,-0.7107,-0.7346,0.0,0.0,0.0,0.0,0.0,0.0,0.0,0.0,0.0,0.0,0.0,0.0,0.0,0.0,0.0,0.0,0.0,0.0,0.0,0.0,0.0,0.0,0.0,-1.8573,-1.8882,-1.9203,-1.9637,-1.9963,-2.0381,-2.0923,-2.1055,-2.1165,-2.1165,-2.1165,-2.1165,-2.1165,-2.0547,-2.0157,-2.0138,-1.9599,-1.9283,-1.9283,-1.8907,-1.8715,-1.8724,-1.8339,-1.8164,-1.8164,-1.8081,-1.7623,-1.686,-1.6784,-1.5843,-1.4358,-1.4272,-1.3824,-1.316,-1.2565,-1.2505,-1.2835,-1.2835,-1.2835,-1.2835,-1.2835,-1.2966,-1.3147,-1.3147,-1.334,-1.3408,-1.249,-1.2416,-1.2448,-1.1585,-1.1929,-1.2619,-1.2619,-1.3307,-1.4088,-1.4088,-1.4088,-1.4088,-1.4082,-1.3822,-1.3646,-1.3646,-1.3561,-1.3476,-1.3143,-1.3137,-1.2965,-1.2692,-1.2626,0.0,-1.2603,-1.2632,-1.2272,-1.1408,-1.1327,-1.0885,-1.0009,-1.0683,-1.0398,-0.8619,-0.9226,-0.8948,-0.7132,-0.7177,-0.7186,-0.7186,-0.7018,-0.6936,-0.6929,0.0,0.0,0.0,0.0,0.0,0.0,0.0,0.0,0.0,0.0,0.0,0.0,0.0,0.0,0.0,0.0,0.0,0.0,0.0,0.0,0.0,-1.626,-1.7242,-1.8729,-1.9053,-1.9256,-1.9359,-1.9478,-1.9806,-2.0381,-2.009,-2.0235,-2.1165,-2.0779,-2.0702,-2.1165,-2.0547,-2.0091,-1.9774,-1.917,-1.8871,-1.8871,-1.877,-1.8861,-1.9136,-1.9026,-1.8981,-1.8981,-1.8337,-1.7935,-1.7618,-1.6332,-1.5531,-1.5027,-1.4156,-1.3676,-1.3487,-1.3106,-1.3013,-1.308,-1.308,-1.308,-1.308,-1.308,-1.2875,-1.2537,-1.2537,-1.2296,-1.1912,-1.1657,-1.1616,-1.1671,-1.1413,-1.1499,-1.1671,-1.1671,-1.2357,-1.3052,-1.3052,-1.3568,-1.3822,-1.2942,-1.2766,-1.2419,-1.1649,-1.1477,-1.1826,-1.313,-1.3228,-1.3112,-1.2952,-1.2832,-1.2419,-1.1747,-1.1712,-1.1585,-1.1322,-1.1327,-1.1235,-1.0971,-1.0479,-0.978,-0.854,-0.8055,-0.7618,-0.7136,-0.7102,-0.7166,-0.7166,-0.7264,-0.7212,0.0,0.0,0.0,0.0,0.0,0.0,0.0,0.0,0.0,0.0,0.0,0.0,0.0,0.0,0.0,0.0,0.0,0.0,0.0,0.0,0.0,0.0,-1.561,-1.6477,-1.7847,-1.8435,-1.8895,-1.9222,-1.9301,-1.946,-1.9775,-1.9539,-1.9608,-2.0391,-2.0001,-2.0001,-2.0382,-2.0001,-1.974,-1.9486,-1.9108,-1.8962,-1.8962,-1.8962,-1.9072,-1.9301,-1.9301,-1.9134,-1.8727,-1.8238,-1.7594,-1.6862,-1.5801,-1.5151,-1.481,-1.4061,-1.3828,-1.3788,0.0,0.0,0.0,0.0,-1.2575,-1.2227,-1.2104,-1.1837,-1.1472,-1.1472,-1.1316,-1.1096,-1.067,-1.0646,-1.0636,-1.0294,-1.0463,-1.0722,-1.0626,-1.1316,-1.2003,-1.1832,-1.226,-1.2431,-1.1729,-1.1552,-1.13,-1.0611,-1.0351,0.0,-1.174,-1.1918,-1.1884,-1.1776,-1.1594,-1.1278,-1.0756,-1.0737,-1.0539,-1.0193,-1.0106,-0.9932,-0.9579,-0.9416,0.0,0.0,0.0,-0.748,-0.7135,-0.7135,0.0,0.0,0.0,-0.6954,-0.6666,-0.684,0.0,0.0,-0.7098,-0.7151,0.0,0.0,0.0,0.0,0.0,0.0,0.0,0.0,0.0,0.0,0.0,0.0,0.0,0.0,0.0,0.0,-1.5189,-1.556,-1.6453,-1.7188,-1.8078,-1.9054,-1.9143,-1.9222,-1.9301,-1.9301,-1.9301,-1.9301,-1.9301,-1.9301,-1.9301,-1.9301,0.0,0.0,0.0,-1.9301,-1.9301,-1.9301,-1.9222,-1.9143,-1.9143,-1.8727,-1.7836,-1.7755,-1.6854,-1.5394,-1.5318,-1.4824,-1.4088,-1.4088,-1.4004,-1.386,-1.3345,-1.3218,-1.327,-1.2438,-1.1683,-1.0899,-1.0593,0.0,0.0,-1.035,-1.0502,-1.0516,-0.9677,-0.9547,-0.9602,-0.8828,-0.917,-0.9685,-0.9501,-1.0188,-1.0788,-1.0524,-1.0611,-1.0611,-1.0438,-1.0269,-1.0096,-1.0009,-0.9749,-0.9575,-0.9575,-0.9923,-1.012,-0.9841,-0.989,-0.9856,-0.9672,-0.9723,-0.9405,-0.8627,-0.8544,0.0,-0.7316,-0.7966,-0.8029,-0.7132,-0.779,-0.7967,-0.7204,-0.7204,-0.7035,-0.6867,-0.6602,-0.6486,-0.6343,-0.6343,-0.6435,-0.67,-0.6871,-0.6989,0.0,0.0,0.0,0.0,0.0,0.0,0.0,0.0,0.0,0.0,0.0,0.0,0.0,0.0,0.0,-1.4028,-1.422,-1.4657,-1.556,-1.5801,-1.6453,-1.8078,-1.8238,-1.8567,-1.9222,-1.9301,-1.9301,-1.9301,-1.9301,-1.9301,-1.9301,-1.9301,-1.9301,-1.9301,-1.9301,-1.9301,-1.9301,-1.9301,-1.8975,-1.8238,-1.8238,0.0,-1.6935,-1.6206,-1.5718,-1.5394,-1.4657,-1.425,-1.4088,-1.4088,-1.3652,-1.2954,-1.2849,-1.233,-1.1685,-1.1599,-1.1343,-1.1246,-1.1113,-1.059,-0.999,-0.999,-0.9597,-0.903,-0.886,-0.8798,0.0,-0.8656,-0.874,-0.8823,-0.8823,-0.9423,-1.0024,-0.984,-1.0356,-1.0616,-0.9492,-0.9235,-0.8886,-0.7925,-0.7661,-0.7661,-0.7661,-0.8969,-0.9995,-0.9866,-0.9894,-0.9648,-0.8839,-0.8782,-0.8715,-0.854,-0.8544,-0.8456,-0.8281,-0.8424,-0.807,-0.7139,-0.7288,-0.7271,-0.7099,-0.6926,-0.6841,-0.6841,-0.6571,-0.6319,-0.6171,-0.6171,-0.6083,-0.5908,-0.6562,-0.6815,0.0,0.0,0.0,0.0,0.0,0.0,0.0,0.0,0.0,0.0,0.0,-1.1186,0.0,0.0,-1.2655,-1.324,-1.373,-1.425,-1.4657,-1.4741,-1.5394,-1.7107,-1.7755,-1.8158,-1.8647,-1.9054,-1.9301,-1.9301,-1.9301,-1.9301,-1.9301,-1.9301,-1.9134,-1.8647,-1.8647,-1.8407,-1.7997,-1.7997,-1.7755,-1.735,-1.735,-1.6862,-1.6049,-1.5643,-1.5151,-1.4741,-1.425,-1.3828,-1.3392,-1.2875,-1.2186,-1.1327,-1.1327,-1.0977,-1.0636,-1.0636,-1.0294,-0.9946,-0.9767,-0.9419,-0.9074,-0.8899,-0.8644,-0.8212,-0.8212,-0.8212,-0.8212,-0.8212,-0.8296,-0.8384,-0.8296,-0.8556,-0.8811,-0.8632,-0.8798,-0.8882,-0.8189,-0.8017,-0.7841,-0.7228,-0.7139,-0.7139,-0.7139,-0.7837,-0.8532,-0.8532,-0.8532,-0.836,-0.7841,-0.7841,-0.7841,-0.7841,-0.7841,-0.7841,-0.7841,-0.7841,-0.7577,-0.7139,-0.7139,-0.7139,-0.7139,-0.6966,-0.6881,-0.6795,-0.652,-0.6343,-0.6083,-0.6083,-0.5997,-0.5908,-0.626,-0.6438,0.0,0.0,0.0,0.0,0.0,0.0,0.0,0.0,-0.851,-0.9133,-0.9828,-1.0372,-1.0899,-1.1517,-1.2093,-1.2407,-1.3222,-1.3828,-1.3828,-1.3997,-1.4664,-1.6049,-1.6944,-1.7594,-1.7755,-1.8399,-1.8807,-1.8807,-1.8807,-1.8807,-1.8807,-1.8807,-1.8487,-1.7755,-1.7755,-1.7432,-1.6698,-1.6698,-1.6617,-1.6453,-1.6453,-1.5966,-1.5151,-1.5151,-1.4741,-1.4088,-1.3913,-1.3398,-1.2613,-1.1499,-1.0549,-0.9859,-0.9685,-0.9598,-0.9598,-0.9598,-0.9078,-0.8476,-0.8204,-0.8113,-0.8113,-0.794,-0.7944,-0.7944,-0.7944,-0.7944,-0.7944,-0.7944,-0.8028,-0.8113,-0.7944,-0.7944,-0.7856,-0.7591,-0.7323,-0.7143,-0.7139,-0.7139,-0.7139,-0.7139,-0.7139,-0.7139,-0.7139,-0.7139,-0.7139,-0.7139,-0.7139,-0.7139,-0.7139,-0.7139,-0.7139,-0.7139,-0.7139,-0.7139,-0.7139,-0.7139,-0.7139,-0.7139,-0.7139,-0.7139,-0.7139,-0.7051,-0.6966,-0.6795,-0.6346,-0.6169,-0.6086,-0.5905,-0.5816,-0.6,-0.5997,-0.6083,-0.1425,-0.2391,-0.2778,-0.2664,-0.3756,-0.4804,0.0,0.0,-0.6376,-0.7225,-0.7435,-0.8051,-0.9726,-1.0163,-1.0433,-1.1322,-1.2272,-1.2875,-1.2875,-1.3568,-1.4173,-1.4334,-1.5151,-1.5966,-1.678,-1.6935,-1.7025,-1.7025,-1.7025,-1.7025,-1.7025,-1.7025,-1.6944,-1.6862,-1.6862,-1.678,-1.6698,-1.6698,-1.6288,-1.556,-1.556,-1.5068,-1.425,-1.425,-1.4173,-1.4082,-1.3222,-1.279,-1.2534,-1.0809,-1.0033,-0.9772,-0.8811,-0.8376,-0.8376,-0.8376,-0.8201,-0.7944,-0.7944,-0.794,-0.794,-0.7944,-0.7944,-0.7944,-0.7944,-0.7944,-0.7944,-0.7944,-0.794,-0.794,-0.7944,-0.7944,-0.7856,-0.7591,-0.7507,-0.7415,-0.7143,-0.7139,-0.7139,-0.7139,-0.7139,-0.7139,-0.7139,-0.7139,-0.7139,-0.7139,-0.7139,-0.7139,-0.7139,-0.7139,-0.7139,-0.7139,-0.7139,-0.7139,-0.7139,-0.7139,-0.7139,-0.7139,-0.7139,-0.7139,-0.7139,-0.6969,-0.6792,-0.6795,-0.5722,-0.546,-0.6186,-0.5015,-0.4928,-0.5746,-0.5738,-0.5908,-0.0167,-0.1161,0.0,0.0,-0.2569,-0.3351,-0.4197,-0.4704,-0.5305,-0.6136,-0.6694,-0.7316,-0.8105,-0.9157,-1.0028,0.0,-1.1241,-1.21,-1.2619,-1.3045,-1.3483,-1.4004,-1.4412,-1.4985,-1.5884,-1.637,-1.6698,-1.6698,-1.6698,-1.6698,-1.6698,-1.6698,-1.6453,-1.5966,-1.5966,-1.5718,-1.5151,-1.5151,-1.4985,-1.4664,-1.4664,-1.4412,-1.4088,-1.4088,-1.3828,-1.3222,-1.1757,-1.1068,-1.0982,-0.9689,-0.9078,-0.8899,-0.8376,-0.8025,-0.7852,-0.794,-0.794,-0.7856,-0.768,-0.768,-0.768,-0.7499,-0.7408,-0.7408,-0.7408,-0.7408,-0.7408,-0.7408,-0.7588,-0.768,-0.768,-0.768,-0.7683,-0.7507,-0.7415,-0.7231,-0.7139,-0.7139,-0.7139,-0.7139,-0.7139,-0.7139,-0.7139,-0.7139,-0.7139,-0.7139,-0.7139,-0.7139,-0.7139,-0.7139,-0.7139,-0.7139,-0.6609,-0.6251,-0.6251,-0.5802,-0.5445,-0.5445,-0.5445,-0.5445,-0.5445,-0.5359,-0.5272,-0.5097,-0.4652,-0.4565,-0.5107,-0.4297,-0.3941,-0.4125,-0.4659,-0.5198,0.1102,0.0,0.0,-0.1209,-0.1483,-0.2015,-0.3409,-0.3758,-0.4039,-0.508,-0.5897,-0.652,-0.6962,-0.8193,-0.9244,-0.9515,-1.0294,-1.1241,-1.2186,-1.2534,-1.3052,-1.3997,-1.4088,-1.4334,-1.4985,-1.5636,-1.5966,-1.5966,-1.5966,-1.5966,-1.5966,-1.5966,-1.5718,-1.5068,-1.5068,-1.4741,-1.4088,-1.4088,-1.4088,-1.4088,-1.4088,-1.3997,-1.3737,-1.3483,-1.2966,-1.2186,-1.0636,-0.9859,-0.9859,-0.8907,-0.838,-0.8201,-0.8025,-0.7764,-0.7503,-0.768,-0.7676,-0.7676,-0.7499,-0.7415,-0.7326,-0.7143,-0.7139,-0.7139,-0.7139,-0.7139,-0.7139,-0.7139,-0.7231,-0.7326,-0.7058,-0.6969,-0.6969,-0.6969,-0.6697,-0.6425,-0.6694,-0.6517,-0.6337,-0.6337,-0.6337,-0.6337,-0.6337,-0.6337,-0.6337,-0.6337,-0.6337,-0.6428,-0.6697,-0.6517,-0.6337,-0.6337,-0.5716,-0.5272,-0.5272,-0.4734,-0.4289,-0.4289,-0.4289,-0.4289,-0.4289,-0.4289,-0.42,-0.4026,-0.3849,-0.3941,-0.4302,-0.3403,-0.2776,-0.251,-0.3765,-0.4486,0.2345,0.0,0.1014,0.0345,-0.0265,-0.0896,-0.1703,-0.1882,-0.233,-0.403,-0.4387,-0.4921,-0.6786,-0.7139,-0.7496,-0.8476,-0.934,-1.0289,-1.1241,-1.21,-1.3052,-1.3997,-1.4088,-1.4088,-1.4173,-1.4166,-1.4166,-1.4166,-1.4166,-1.4166,-1.4166,-1.4166,-1.4173,-1.4173,-1.4173,-1.4173,-1.4088,-1.4088,-1.4088,-1.4088,-1.4088,-1.3652,-1.2705,-1.1843,-1.1413,-1.1322,-1.0289,-0.9859,-0.9772,-0.8636,-0.8201,-0.8113,-0.768,-0.7507,-0.7507,-0.7231,-0.7139,-0.7139,-0.7139,-0.7139,-0.7139,-0.7139,-0.7139,-0.7139,-0.7139,-0.7139,-0.7139,-0.7139,-0.7139,-0.6874,-0.5985,-0.5719,-0.5719,-0.5719,-0.5092,-0.4645,-0.5542,-0.5003,-0.4376,-0.4376,-0.4376,-0.4376,-0.4376,-0.4376,-0.4376,-0.4376,-0.4376,-0.4734,-0.563,-0.4914,-0.4376,-0.4376,-0.4376,-0.4378,-0.4378,-0.4289,-0.4289,-0.4289,-0.4289,-0.4289,-0.4289,-0.4289,-0.4289,-0.4287,-0.3671,-0.3676,-0.431,-0.2422,-0.1435,-0.1525,-0.3414,-0.3862,0.3544,0.0,0.2927,0.1586,0.1158,0.0627,-0.0717,-0.1436,-0.1973,-0.251,-0.3629,-0.4814,-0.6028,-0.681,-0.7595,-0.8463,-0.8827,-0.9345,-1.0289,-1.1149,-1.21,-1.3052,-1.3743,-1.4088,-1.4088,-1.4088,-1.4088,-1.4088,-1.4088,-1.4088,-1.4088,-1.4088,-1.4088,-1.4088,-1.4088,-1.4088,-1.4088,-1.4088,-1.3828,-1.3137,-1.2534,-1.21,-1.1752,-1.0809,-1.0376,-1.0289,-0.9432,-0.8999,-0.8999,-0.8648,-0.8296,-0.8028,-0.7856,-0.7588,-0.7231,-0.7143,-0.6697,-0.6251,-0.6874,-0.7139,-0.7139,-0.7139,-0.6697,-0.6163,-0.6163,-0.5714,-0.5267,-0.5267,-0.5267,-0.5179,-0.4823,-0.4736,-0.4736,-0.4736,-0.4556,-0.4376,-0.4734,-0.4556,-0.4289,-0.4289,-0.4289,-0.4289,-0.4289,-0.4289,-0.4289,-0.4289,-0.4289,-0.4378,-0.4734,-0.4467,-0.4289,-0.4289,-0.3757,-0.3401,-0.3401,-0.2774,-0.2418,-0.2418,-0.2418,-0.2418,-0.2418,-0.2418,-0.2418,-0.2418,-0.2151,-0.2153,-0.2332,-0.1435,-0.0808,-0.0539,-0.1795,-0.2604,0.5037,0.4706,0.4264,0.3024,0.2416,0.188,0.0537,-0.0448,-0.1166,-0.1705,-0.273,-0.3984,-0.5099,-0.6132,-0.7147,-0.8026,-0.8426,-0.8896,-0.9833,-1.0429,-1.1139,-1.2089,-1.3052,-1.3568,-1.3568,-1.3913,-1.4088,-1.4088,-1.4088,-1.4088,-1.4088,-1.4088,-1.4088,-1.4088,-1.4088,-1.4088,-1.4088,-1.3743,-1.3137,-1.2186,-1.1235,-1.0809,-1.0809,-0.9859,-0.9428,-0.9428,-0.8828,-0.8568,-0.8568,-0.8476,-0.8296,-0.8028,-0.794,-0.7676,-0.7319,-0.6962,-0.6428,-0.5897,-0.6428,-0.634,-0.6071,-0.6071,-0.5716,-0.5184,-0.5184,-0.4736,-0.4289,-0.4289,-0.4289,-0.42,-0.3844,-0.3757,-0.3757,-0.3757,-0.3487,-0.3398,-0.3757,-0.3487,-0.322,-0.322,-0.322,-0.322,-0.322,-0.322,-0.322,-0.322,-0.322,-0.3398,-0.3755,-0.3487,-0.322,-0.322,-0.2686,-0.2331,-0.2331,-0.1793,-0.1436,-0.1436,-0.1436,-0.1436,-0.1436,-0.1436,-0.1436,-0.1436,-0.1436,-0.1436,-0.1436,-0.0718,-0.0269,-0.0,-0.0629,-0.1257,0.6814,0.6049,0.5231,0.4621,0.3757,0.2867,0.2058,0.1164,0.009,-0.1343,-0.185,-0.2513,0.0,0.0,-0.6166,-0.7206,-0.8002,-0.8887,-0.9808,-0.9976,-1.0309,0.0,0.0,0.0,0.0,0.0,-1.3997,-1.3997,-1.4004,-1.4004,-1.4004,-1.4004,-1.4004,-1.4004,-1.4004,-1.4004,-1.3997,-1.3052,-1.21,-1.1235,-1.0289,-0.9859,-0.9772,-0.8999,-0.8568,-0.8568,-0.8568,-0.8568,-0.8568,-0.8292,-0.8201,-0.8201,-0.8028,-0.7852,-0.7676,-0.6697,-0.616,-0.5891,-0.5628,-0.5003,-0.4289,-0.4289,-0.4287,-0.42,-0.42,-0.4198,-0.4111,-0.4111,-0.4111,-0.3933,-0.3044,-0.2868,-0.2868,-0.2868,-0.2061,-0.1704,-0.2598,-0.2062,-0.1436,-0.1436,-0.1436,-0.1436,-0.1436,-0.1436,-0.1436,-0.1436,-0.1436,-0.1704,-0.2688,-0.1973,-0.1436,-0.1436,-0.1436,-0.1436,-0.1436,-0.1436,-0.1436,-0.1436,-0.1436,-0.1436,-0.1436,-0.1436,-0.1436,-0.1436,-0.1436,-0.1345,-0.1346,-0.0449,-0.0,-0.0,-0.0,-0.0,0.8915,0.8279,0.7432,0.6574,0.5706,0.4739,0.3842,0.2504,0.1337,0.0877,-0.0774,-0.2445,0.0,0.0,0.0,-0.7105,-0.7421,0.0,-0.8835,-0.9525,0.0,-1.0197,0.0,-1.1671,-1.1671,-1.1843,-1.2015,-1.2015,-1.2619,-1.3052,-1.3052,-1.3052,-1.3052,-1.3052,-1.3052,-1.2705,-1.2015,-1.1063,-1.0463,-1.0289,-0.9345,-0.8911,-0.8911,-0.874,-0.8568,-0.8568,-0.8568,-0.8568,-0.8568,-0.8564,-0.838,-0.8201,-0.8113,-0.7492,-0.6514,-0.6248,-0.5092,-0.3669,-0.3669,-0.3935,-0.4289,-0.4289,-0.3846,-0.3223,-0.3223,-0.2776,-0.215,-0.215,-0.215,-0.206,-0.1883,-0.1793,-0.1793,-0.1793,-0.1614,-0.1436,-0.1704,-0.1614,-0.1436,-0.1436,-0.1436,-0.1436,-0.1436,-0.1436,-0.1436,-0.1436,-0.1436,-0.1524,-0.1793,-0.1524,-0.1436,-0.1436,-0.1436,-0.1436,-0.1436,-0.1436,-0.1436,-0.1436,-0.1436,-0.1436,-0.1436,-0.1436,-0.1436,-0.1436,-0.1436,-0.1077,-0.0359,-0.009,-0.0,-0.0,-0.0,-0.0,0.9141,0.8554,0.7749,0.721,0.6422,0.5528,0.4944,0.3527,0.2106,0.1717,-0.0168,0.0,-0.2846,-0.388,-0.5173,0.0,0.0,0.0,-0.8438,-0.9039,-0.9329,0.0,-1.012,0.0,-1.1235,-1.1327,-1.1327,-1.1327,-1.1757,-1.21,-1.21,-1.21,-1.21,-1.21,-1.21,-1.1666,-1.0722,-1.0202,-0.9685,-0.9345,-0.8828,-0.8568,-0.8568,-0.8568,-0.8568,-0.8568,-0.8568,-0.8568,-0.8564,-0.812,-0.7852,-0.7669,-0.7224,-0.6602,-0.5894,-0.5359,-0.4291,-0.3133,-0.2598,-0.2686,-0.3041,-0.3041,-0.2686,-0.224,-0.224,-0.1883,-0.1436,-0.1436,-0.1436,-0.1436,-0.1436,-0.1436,-0.1436,-0.1436,-0.1436,-0.1436,-0.1436,-0.1436,-0.1436,-0.1436,-0.1436,-0.1436,-0.1436,-0.1436,-0.1436,-0.1436,-0.1436,-0.1436,-0.1436,-0.1436,-0.1436,-0.1436,-0.1436,-0.1436,-0.1436,-0.1436,-0.1436,-0.1436,-0.1436,-0.1436,-0.1436,-0.1436,-0.1436,-0.1436,-0.0987,-0.0539,-0.0,-0.0,-0.0,-0.0,-0.0,-0.0,0.8586,0.8017,0.7316,0.7316,0.6605,0.578,0.5586,0.4175,0.2767,0.1854,0.0,-0.1384,-0.2024,-0.3455,-0.4891,-0.6025,0.0,-0.7425,-0.8487,-0.8577,-0.8639,-0.8636,-0.9257,-1.0033,-1.0895,-1.0982,-1.0982,-1.0982,-1.0982,-1.0982,-1.1149,-1.1149,-1.1149,-1.1149,-1.0982,-1.0549,-0.9772,-0.9685,-0.9345,-0.8568,-0.8568,-0.8568,-0.8568,-0.8568,-0.8568,-0.8388,-0.8388,-0.83,-0.812,-0.7231,-0.6874,-0.6874,-0.5985,-0.563,-0.5272,-0.4204,-0.3669,-0.3132,-0.2152,-0.1615,-0.1436,-0.1436,-0.1436,-0.1436,-0.1436,-0.1436,-0.1436,-0.1436,-0.1436,-0.1436,-0.1436,-0.1436,-0.1436,-0.1436,-0.1436,-0.1436,-0.1436,-0.1436,-0.1436,-0.1436,-0.1436,-0.1436,-0.1436,-0.1436,-0.1436,-0.1436,-0.1436,-0.1436,-0.1436,-0.1436,-0.1436,-0.1436,-0.1436,-0.1436,-0.1436,-0.1436,-0.1436,-0.1436,-0.1436,-0.1436,-0.1436,-0.1436,-0.1345,-0.1256,-0.0449,-0.0,-0.0,-0.0,-0.0,-0.0,-0.0,-0.0,0.9653,0.8973,0.8281,0.8281,0.7577,0.6688,0.5869,0.4798,0.0,0.0,0.0585,-0.1238,-0.143,-0.2731,-0.4261,-0.5891,-0.6117,-0.6691,-0.8404,-0.8607,-0.8619,0.0,-0.874,-0.8911,-0.9087,-0.9087,-0.9087,-0.9087,-0.9087,-0.9345,-1.0115,-1.0115,-1.0115,-1.0115,-0.9432,-0.8999,-0.8828,-0.8828,-0.874,-0.8568,-0.8568,-0.8568,-0.8568,-0.8568,-0.812,-0.7319,-0.7319,-0.6962,-0.6163,-0.5985,-0.5985,-0.5897,-0.5808,-0.5006,-0.3935,-0.3757,-0.2865,-0.1793,-0.1524,-0.1436,-0.1436,-0.1436,-0.1436,-0.1436,-0.1436,-0.1436,-0.1436,-0.1436,-0.1436,-0.1436,-0.1436,-0.1436,-0.1436,-0.1436,-0.1436,-0.1436,-0.1436,-0.1436,-0.1436,-0.1436,-0.1436,-0.1436,-0.1436,-0.1436,-0.1436,-0.1436,-0.1436,-0.1436,-0.1436,-0.1436,-0.1436,-0.1436,-0.1436,-0.1436,-0.1436,-0.1436,-0.1436,-0.1436,-0.1436,-0.1436,-0.1436,-0.1436,-0.1077,-0.0269,-0.009,-0.0,-0.0,-0.0,-0.0,-0.0,-0.0,-0.0,0.8444,0.8101,0.7753,0.7753,0.7404,0.6835,0.5818,0.0,0.0,0.0,0.0583,-0.1247,-0.1286,-0.2547,0.0,-0.5444,-0.5852,-0.6436,-0.7837,-0.8384,0.0,-0.8568,-0.8568,-0.874,-0.9257,-0.8828,-0.8828,-0.9257,-0.8828,-0.874,-0.917,-0.9257,-0.9257,-0.9257,-0.8828,-0.8568,-0.8568,-0.8568,-0.8568,-0.8568,-0.8568,-0.8568,-0.8568,-0.8568,-0.8032,-0.7139,-0.7139,-0.6609,-0.563,-0.5188,-0.5008,-0.4921,-0.4476,-0.3762,-0.3047,-0.2867,-0.2331,-0.1615,-0.1436,-0.1436,-0.1436,-0.1436,-0.1436,-0.1436,-0.1436,-0.1436,-0.1436,-0.1436,-0.1436,-0.1436,-0.1436,-0.1436,-0.1436,-0.1436,-0.1436,-0.1436,-0.1436,-0.1436,-0.1436,-0.1436,-0.1436,-0.1436,-0.1436,-0.1436,-0.1436,-0.1436,-0.1436,-0.1436,-0.1436,-0.1436,-0.1436,-0.1436,-0.1436,-0.1436,-0.1436,-0.1436,-0.1436,-0.1436,-0.1166,-0.1166,-0.1346,-0.0897,-0.0449,-0.0,-0.0,-0.0,-0.0,-0.0,-0.0,-0.0,-0.0,-0.0,0.7132,0.7139,0.7139,0.7139,0.7139,0.6806,0.5526,0.4699,0.0,0.262,0.0411,-0.1244,-0.1222,0.0,-0.4182,0.0,-0.5901,-0.6565,-0.7661,-0.8292,-0.874,0.0,-0.8911,0.0,-0.9859,-0.9257,-0.9087,-0.9602,-0.8999,-0.8568,-0.8568,-0.8528,-0.8507,-0.8507,-0.8471,-0.8467,-0.8507,-0.8507,-0.844,-0.8296,-0.8296,-0.8208,-0.7944,-0.7944,-0.7408,-0.652,-0.652,-0.5985,-0.5008,-0.43,-0.4032,-0.3942,-0.3232,-0.2694,-0.2424,-0.2243,-0.1974,-0.1705,-0.1436,-0.1436,-0.1436,-0.1436,-0.1436,-0.1436,-0.1436,-0.1436,-0.1436,-0.1436,-0.1436,-0.1436,-0.1436,-0.1436,-0.1436,-0.1436,-0.1436,-0.1436,-0.1436,-0.1436,-0.1436,-0.1436,-0.1436,-0.1436,-0.1436,-0.1436,-0.1436,-0.1436,-0.1436,-0.1436,-0.1436,-0.1436,-0.1436,-0.1436,-0.1436,-0.1436,-0.1436,-0.1345,-0.1256,-0.1436,-0.1076,-0.0897,-0.1077,-0.0359,-0.0,-0.0,-0.0,-0.0,-0.0,-0.0,-0.0,-0.0,0.0809,0.1258,0.7105,0.7139,0.7139,0.7139,0.7139,0.6653,0.4767,0.0,0.3677,0.1806,-0.0,-0.1221,-0.138,-0.277,-0.4465,-0.6166,0.0,-0.7063,-0.8532,-0.8823,-0.9082,-0.9685,0.0,0.0,-0.9859,-0.9859,-0.9515,-0.874,-0.8656,-0.8568,-0.8568,-0.8406,-0.8316,-0.8316,-0.815,-0.8146,-0.8312,-0.8316,-0.7962,-0.7228,-0.7228,-0.6786,-0.5985,-0.5985,-0.5453,-0.4565,-0.4565,-0.4032,-0.3141,-0.3053,-0.3053,-0.3053,-0.2964,-0.2604,-0.2243,-0.2243,-0.1885,-0.1436,-0.1436,-0.1436,-0.1436,-0.1436,-0.1436,-0.1436,-0.1436,-0.1436,-0.1436,-0.1436,-0.1436,-0.1436,-0.1436,-0.1436,-0.1436,-0.1436,-0.1436,-0.1436,-0.1436,-0.1436,-0.1436,-0.1436,-0.1436,-0.1436,-0.1436,-0.1436,-0.1436,-0.1436,-0.1436,-0.1436,-0.1436,-0.1436,-0.1436,-0.1436,-0.1436,-0.1436,-0.1436,-0.0987,-0.0987,-0.1345,-0.1345,-0.0987,-0.018,-0.009,-0.0,-0.0,-0.0,-0.0,-0.0,-0.0,-0.0,0.009,0.3599,0.5138,0.6039,0.6251,0.6251,0.6251,0.6283,0.5751,0.384,0.0,0.2779,0.0899,-0.0411,-0.1403,-0.1951,-0.3647,-0.5155,-0.5759,0.0,0.0,-0.8368,-0.8736,-0.917,-1.0033,-1.0033,-0.9859,-0.9859,-0.9859,-0.9515,-0.8656,-0.8463,-0.8402,-0.8402,-0.8333,-0.8239,-0.8126,-0.8052,-0.8048,-0.8122,-0.772,-0.7289,-0.7004,-0.6477,-0.6074,-0.5719,-0.5719,-0.5186,-0.43,-0.43,-0.3765,-0.2875,-0.2875,-0.2784,-0.2694,-0.2694,-0.2334,-0.1974,-0.1974,-0.1705,-0.1436,-0.1436,-0.1436,-0.1436,-0.1436,-0.1436,-0.1436,-0.1436,-0.1436,-0.1436,-0.1436,-0.1436,-0.1436,-0.1436,-0.1436,-0.1436,-0.1436,-0.1436,-0.1436,-0.1436,-0.1436,-0.1436,-0.1436,-0.1436,-0.1436,-0.1436,-0.1436,-0.1436,-0.1436,-0.1436,-0.1436,-0.1436,-0.1436,-0.1436,-0.1436,-0.1436,-0.1436,-0.1436,-0.0987,-0.0628,-0.0539,-0.1077,0.009,0.3328,0.3419,0.2876,0.1793,0.1704,0.1704,0.1704,0.1704,0.1704,0.1793,0.3321,0.4587,0.5017,0.5247,0.5272,0.5272,0.5275,0.4732,0.0,0.0,0.1898,-0.0,-0.1058,-0.1888,-0.2759,-0.432,-0.5597,-0.6164,0.0,-0.8313,-0.8544,-0.9078,-0.9689,-1.0636,0.0,-1.0565,-1.0371,-0.9859,-0.9257,-0.8656,-0.8394,-0.8268,-0.8211,-0.8162,-0.8073,-0.7943,-0.7886,-0.7882,-0.7939,-0.7145,-0.6635,-0.642,-0.5608,-0.5139,-0.4875,-0.4907,-0.4476,-0.3855,-0.3855,-0.3497,-0.2875,-0.2784,-0.2694,-0.2513,-0.2424,-0.2154,-0.1794,-0.1794,-0.1615,-0.1436,-0.1436,-0.1436,-0.1436,-0.1436,-0.1436,-0.1436,-0.1436,-0.1436,-0.1436,-0.1436,-0.1436,-0.1436,-0.1436,-0.1436,-0.1436,-0.1436,-0.1436,-0.1436,-0.1436,-0.1436,-0.1436,-0.1436,-0.1436,-0.1436,-0.1436,-0.1436,-0.1436,-0.1436,-0.1166,-0.0986,-0.0896,-0.0627,-0.0448,-0.0537,-0.0537,-0.0537,-0.0358,0.0628,0.1077,0.0898,0.0269,0.1345,0.477,0.5407,0.5041,0.3767,0.3767,0.3767,0.3767,0.3767,0.3767,0.3767,0.3765,0.4395,0.4216,0.4308,0.4289,0.4289,0.4308,0.3699,0.0,0.0,0.0966,-0.0866,-0.1961,-0.2764,-0.3704,-0.4534,-0.5752,-0.787,-0.8179,0.0,-0.9483,-1.012,-1.0895,0.0,-1.2056,-1.1997,-1.1386,-0.9689,-0.8568,-0.8568,-0.8394,-0.8211,-0.8024,-0.7858,-0.7764,-0.7764,-0.7586,-0.7577,-0.784,-0.6958,-0.614,-0.5441,-0.463,-0.3734,-0.2873,-0.2935,-0.2964,-0.2875,-0.2875,-0.2875,-0.2873,-0.2604,-0.2513,-0.2513,-0.2244,-0.2064,-0.1794,-0.1794,-0.1615,-0.1436,-0.1436,-0.1436,-0.1436,-0.1436,-0.1436,-0.1436,-0.1436,-0.1436,-0.1436,-0.1436,-0.1436,-0.1436,-0.1436,-0.1436,-0.1436,-0.1436,-0.1436,-0.1436,-0.1436,-0.1436,-0.1436,-0.1436,-0.1436,-0.1436,-0.1436,-0.1436,-0.1436,-0.1436,-0.0628,0.009,0.0358,0.1163,0.17,0.1429,0.1339,0.1519,0.2059,0.4226,0.486,0.2957,0.2867,0.2867,0.2957,0.4672,0.567,0.567,0.567,0.567,0.567,0.567,0.567,0.567,0.5662,0.5654,0.2188,0.2382,0.2395,0.2395,0.1932,0.1154,-0.0082,0.0,-0.0711,-0.1884,-0.2738,-0.3618,-0.4668,-0.5974,-0.7288,-0.8211,-0.8785,0.0,0.0,0.0,0.0,-1.0809,-1.0742,-1.056,-1.0371,-0.9257,-0.8515,-0.839,-0.8207,-0.8024,-0.7849,-0.7111,-0.6705,-0.6705,-0.6655,-0.6342,-0.5924,-0.5058,-0.4549,-0.4256,-0.3526,-0.3059,-0.2722,-0.2741,-0.2749,-0.2749,-0.2749,-0.2686,-0.2548,-0.246,-0.2303,-0.1974,-0.1974,-0.1794,-0.1525,-0.1525,-0.1436,-0.1345,-0.0628,-0.0448,-0.0359,0.0269,0.0537,0.0537,0.0537,-0.0358,-0.1256,-0.0628,-0.0448,-0.0269,0.0358,0.0537,0.0537,0.0537,0.0537,0.0537,0.0537,0.0537,0.0537,0.0537,0.0537,0.0537,0.0537,0.0537,0.0537,0.0537,0.0895,0.1433,0.2059,0.2505,0.3223,0.4216,0.4306,0.3857,0.2777,0.4493,0.5492,0.4853,0.4853,0.4851,0.4844,0.5389,0.566,0.5741,0.5741,0.5741,0.5741,0.5741,0.5741,0.5741,0.5738,0.5735,0.0,0.05,0.0503,0.0503,0.0082,0.0,0.0,0.0,-0.2425,-0.3288,-0.4062,-0.4932,-0.5962,-0.7058,-0.7994,-0.8625,-0.9251,-0.9634,0.0,0.0,0.0,-1.0605,-1.024,-0.9826,-0.9751,-0.8979,-0.8414,-0.83,-0.8057,-0.7708,-0.7361,-0.6638,-0.5928,-0.5306,-0.5619,-0.5544,-0.5004,-0.4205,-0.3836,-0.3758,-0.3036,-0.2658,-0.2658,-0.2681,-0.2692,-0.2692,-0.2608,-0.2543,0.0,-0.2232,-0.1991,-0.1753,-0.1325,-0.0975,-0.0798,-0.0447,-0.0358,-0.0269,0.0358,0.0537,0.0627,0.1253,0.1431,0.1431,0.1431,0.0627,-0.0179,0.0358,0.0537,0.0627,0.1253,0.1431,0.1431,0.1431,0.1431,0.1431,0.1431,0.1431,0.1431,0.1431,0.1431,0.1431,0.1431,0.1431,0.1431,0.1431,0.1969,0.2505,0.3133,0.3669,0.4478,0.557,0.566,0.5206,0.403,0.5027,0.5665,0.5662,0.566,0.566,0.5741,0.5741,0.5738,0.5733,0.5733,0.5733,0.5733,0.5733,0.5733,0.5733,0.5733,0.5733,0.0,0.0,0.0,0.0,0.0,0.0,0.0,0.0,0.0,0.0,0.0,-0.6556,-0.7362,-0.7799,-0.8289,-0.9246,-0.9609,-0.9719,0.0,-1.012,0.0,-1.0695,-1.0172,-0.9693,-0.9409,-0.8713,-0.828,-0.8256,-0.7947,-0.743,-0.6534,-0.624,-0.5386,-0.383,-0.4457,-0.4846,-0.4846,-0.4066,-0.3675,-0.3677,-0.2965,-0.2595,-0.2597,-0.2654,-0.268,-0.2596,-0.2428,-0.2262,-0.2181,-0.1677,-0.1511,-0.1348,-0.0344,0.0087,0.0174,0.1063,0.1429,0.1429,0.1521,0.1522,0.1522,0.161,0.161,0.161,0.161,0.1522,0.1431,0.1522,0.1522,0.1522,0.161,0.161,0.161,0.161,0.161,0.161,0.161,0.161,0.161,0.161,0.161,0.161,0.161,0.161,0.161,0.161,0.2593,0.3398,0.3667,0.4743,0.5463,0.5644,0.5733,0.5733,0.5733,0.5741,0.5744,0.5733,0.5733,0.5733,0.5733,0.5733,0.5733,0.5733,0.5733,0.5733,0.5733,0.5733,0.5733,0.5733,0.5733,0.5733,-0.5396,0.0,-0.2939,-0.231,-0.2699,-0.3398,0.0,0.0,0.0,0.0,0.0,0.0,0.0,0.0,-0.9747,-1.0473,-1.0979,-1.0979,-1.0433,-0.9772,0.0,-0.9109,-0.8973,-0.8839,-0.856,-0.8373,-0.8178,-0.7906,-0.7805,-0.7379,-0.6302,-0.564,-0.4844,-0.383,-0.3366,-0.3056,-0.3056,-0.2743,-0.2585,-0.2586,-0.2366,-0.2294,-0.2294,-0.2467,-0.2313,-0.1834,-0.1435,-0.0885,-0.0327,0.0082,0.0414,0.0504,0.0845,0.0932,0.0934,0.1215,0.1312,0.1403,0.2227,0.2508,0.2686,0.3401,0.358,0.358,0.358,0.2594,0.1522,0.2329,0.2508,0.2686,0.3401,0.358,0.358,0.358,0.358,0.358,0.358,0.358,0.358,0.358,0.358,0.358,0.358,0.358,0.3671,0.3851,0.4295,0.4652,0.4921,0.5371,0.5644,0.5733,0.5733,0.5733,0.5733,0.5735,0.5735,0.5733,0.5733,0.5733,0.5733,0.5733,0.5733,0.5733,0.5733,0.5733,0.5733,0.5733,0.5733,0.5733,0.5733,0.5733,-0.7373,-0.6076,-0.4756,-0.4297,-0.4535,-0.5004,0.0,0.0,0.0,0.0,0.0,0.0,0.0,0.0,0.0,0.0,-1.1164,-1.1182,0.0,0.0,-0.9777,-0.9257,-0.9178,-0.891,-0.8385,-0.8142,-0.78,-0.7209,-0.7123,-0.6485,-0.5154,-0.4688,-0.4066,-0.321,-0.2665,-0.2431,-0.2511,-0.2275,-0.2196,-0.2196,-0.2119,-0.1962,-0.1804,-0.1647,-0.1332,-0.0862,-0.0313,0.0158,0.0639,0.0959,0.1127,0.1304,0.1647,0.1819,0.1906,0.2375,0.2566,0.2661,0.3244,0.3556,0.3583,0.4119,0.43,0.43,0.43,0.3582,0.2864,0.3403,0.3582,0.3673,0.4208,0.43,0.43,0.43,0.43,0.43,0.43,0.43,0.43,0.43,0.43,0.43,0.43,0.43,0.4389,0.448,0.4746,0.4924,0.5191,0.546,0.5644,0.5733,0.5733,0.5733,0.5733,0.5733,0.5733,0.5733,0.5733,0.5733,0.5733,0.5733,0.5733,0.5733,0.5733,0.5733,0.5733,0.5733,0.5733,0.5733,0.5733,0.5733,-0.8712,-0.7725,-0.6772,-0.6386,-0.6291,-0.6274,0.0,0.0,0.0,0.0,0.0,0.0,0.0,0.0,0.0,0.0,0.0,-1.0895,-1.1327,-1.1123,-1.0585,-0.9726,-0.954,-0.907,-0.8127,-0.7772,-0.7266,-0.6358,-0.6081,-0.5386,-0.3908,-0.3752,-0.3365,-0.251,-0.2275,-0.2198,-0.2433,-0.2198,-0.2118,-0.2118,-0.1805,-0.1492,-0.1099,-0.0627,-0.0157,0.0313,0.0861,0.1175,0.1254,0.1567,0.1645,0.1727,0.2481,0.2823,0.2913,0.3648,0.4014,0.403,0.4136,0.422,0.4281,0.4295,0.43,0.43,0.43,0.43,0.43,0.43,0.43,0.43,0.43,0.43,0.43,0.43,0.43,0.43,0.43,0.43,0.43,0.43,0.43,0.43,0.43,0.43,0.43,0.4389,0.4569,0.4837,0.501,0.528,0.5552,0.5644,0.5733,0.5733,0.5733,0.5733,0.5733,0.5733,0.5733,0.5733,0.5733,0.5733,0.5733,0.5733,0.5733,0.5733,0.5733,0.5733,0.5733,0.5733,0.5733,0.5733,-1.0569,-1.0136,-0.9299,-0.7271,-0.6599,-0.6662,0.0,0.0,0.0,0.0,0.0,0.0,0.0,-0.9891,-1.0846,0.0,0.0,-1.0982,-1.0294,-0.9366,-0.8666,-0.8585,-0.8417,-0.791,-0.6877,-0.6739,-0.6258,-0.5271,-0.5168,-0.4768,-0.383,-0.36,-0.3056,-0.2275,-0.2042,-0.1964,-0.1964,-0.1806,-0.1728,-0.1649,-0.0941,-0.0549,-0.047,0.0157,0.0783,0.141,0.18,0.2271,0.2826,0.3214,0.3448,0.345,0.3542,0.3624,0.3636,0.3806,0.392,0.3944,0.4114,0.4181,0.4204,0.4275,0.43,0.43,0.43,0.43,0.43,0.43,0.43,0.43,0.43,0.43,0.43,0.43,0.43,0.43,0.43,0.43,0.43,0.43,0.43,0.43,0.43,0.43,0.4389,0.4569,0.4835,0.501,0.5282,0.5552,0.5644,0.5733,0.5733,0.5733,0.5733,0.5733,0.5733,0.5733,0.5733,0.5733,0.5733,0.5733,0.5733,0.5733,0.5733,0.5733,0.5733,0.5733,0.5733,0.5733,0.5733,0.5733,-1.1747,-1.1332,-1.0663,-0.9892,-0.8986,-0.8332,-0.8158,0.0,0.0,0.0,0.0,0.0,0.0,0.0,-0.9662,-1.0223,-1.0693,-1.0851,-1.0434,-0.9927,-0.9455,-0.88,-0.8543,-0.7905,-0.6474,-0.6238,-0.5692,-0.4457,-0.4377,-0.391,-0.2974,-0.2821,-0.251,-0.2042,-0.1807,-0.1492,-0.102,-0.0863,-0.102,-0.1572,-0.0627,-0.0,0.0235,0.1175,0.1882,0.2431,0.2898,0.3212,0.353,0.3684,0.3763,0.3763,0.3763,0.3763,0.3769,0.381,0.3857,0.3912,0.3995,0.4089,0.4179,0.4218,0.4263,0.43,0.43,0.43,0.43,0.43,0.43,0.43,0.43,0.43,0.43,0.43,0.43,0.43,0.43,0.43,0.43,0.43,0.43,0.43,0.43,0.43,0.4389,0.4661,0.4748,0.5013,0.5371,0.5463,0.5552,0.5644,0.5733,0.5733,0.5733,0.5733,0.5733,0.5733,0.5733,0.5733,0.5733,0.5733,0.5733,0.5733,0.5733,0.5733,0.5733,0.5733,0.5733,0.5733,0.5733,0.5733,-1.2869,-1.2351,-1.1918,-1.2009,0.0,-0.9989,-0.9209,0.0,0.0,0.0,0.0,0.0,0.0,-0.9019,0.0,-0.9451,-1.0079,-1.0439,-1.0196,-1.0155,-0.9717,-0.8833,-0.8577,-0.7745,-0.601,-0.5686,-0.5002,-0.3599,-0.3443,-0.3052,-0.2273,-0.1882,-0.1647,-0.1492,-0.1099,-0.0628,0.0078,0.0235,-0.0078,-0.0942,0.0078,0.0783,0.1097,0.2273,0.2981,0.3295,0.3606,0.3763,0.3763,0.3763,0.3763,0.3763,0.3763,0.3763,0.3763,0.3763,0.3808,0.3871,0.3891,0.3991,0.4116,0.4159,0.4218,0.4273,0.4293,0.43,0.43,0.43,0.43,0.43,0.43,0.43,0.43,0.43,0.43,0.43,0.43,0.43,0.43,0.43,0.43,0.43,0.43,0.43,0.4389,0.4569,0.4661,0.4839,0.5282,0.5371,0.5463,0.5644,0.5733,0.5733,0.5733,0.5733,0.5733,0.5733,0.5733,0.5733,0.5733,0.5733,0.5733,0.5733,0.5733,0.5733,0.5733,0.5733,0.5733,0.5733,0.5733,0.5733,-1.3971,-1.3795,-1.336,-1.2498,0.0,0.0,-1.1047,-1.0976,0.0,0.0,0.0,0.0,0.0,-1.0171,-1.0172,-1.0126,-0.9742,-0.9227,-0.8336,-0.8116,-0.7932,-0.7521,-0.7375,-0.6648,-0.4932,-0.4771,-0.4144,-0.2666,-0.2431,-0.2273,-0.2196,-0.1097,-0.0392,-0.0392,0.0549,0.1097,0.1175,0.1175,0.1175,0.1097,0.196,0.2353,0.2431,0.3294,0.3684,0.3765,0.3763,0.3763,0.3763,0.3763,0.3763,0.3763,0.3763,0.3763,0.3763,0.3763,0.3767,0.3785,0.3871,0.3908,0.3946,0.4118,0.4177,0.4197,0.4275,0.43,0.43,0.43,0.43,0.43,0.43,0.43,0.43,0.43,0.43,0.43,0.43,0.43,0.43,0.43,0.43,0.43,0.43,0.43,0.43,0.43,0.4569,0.4748,0.501,0.528,0.5463,0.5644,0.5733,0.5733,0.5733,0.5733,0.5733,0.5733,0.5733,0.5733,0.5733,0.5733,0.5733,0.5733,0.5733,0.5733,0.5733,0.5733,0.5733,0.5733,0.5733,0.5733,-1.4741,-1.4223,-1.3704,-1.362,0.0,0.0,0.0,0.0,0.0,0.0,-0.9981,0.0,0.0,0.0,-0.8735,-0.9202,-0.8645,-0.8073,-0.7762,-0.7552,-0.7118,-0.6404,-0.6119,-0.5386,-0.383,-0.3677,-0.3287,-0.2353,-0.1724,-0.1254,-0.1019,-0.0078,0.0548,0.0705,0.1097,0.1568,0.2038,0.2038,0.2352,0.2821,0.2588,0.2511,0.2511,0.3372,0.3763,0.3763,0.3763,0.3763,0.3763,0.3763,0.3763,0.3763,0.3763,0.3763,0.3763,0.3763,0.3763,0.3769,0.3803,0.3852,0.3912,0.3981,0.4081,0.4179,0.421,0.4257,0.43,0.43,0.43,0.43,0.43,0.43,0.43,0.43,0.43,0.43,0.43,0.43,0.43,0.43,0.43,0.43,0.43,0.43,0.4389,0.448,0.4659,0.4748,0.501,0.5191,0.546,0.5463,0.5644,0.5733,0.5733,0.5733,0.5733,0.5733,0.5733,0.5733,0.5733,0.5733,0.5733,0.5733,0.5733,0.5733,0.5733,0.5733,0.5733,0.5733,0.5733,0.5692,-1.509,-1.465,-1.4223,0.0,0.0,0.0,0.0,0.0,0.0,0.0,-1.0657,0.0,-0.9895,0.0,-0.8389,-0.8623,-0.8016,-0.7484,-0.7484,-0.7096,-0.6475,-0.5699,-0.5231,-0.4453,-0.313,-0.2738,-0.2348,-0.1724,-0.0862,-0.0235,0.0078,0.094,0.1489,0.1646,0.1959,0.235,0.2902,0.2902,0.3215,0.3763,0.3215,0.2902,0.2902,0.3528,0.3763,0.3763,0.3763,0.3763,0.3763,0.3763,0.3763,0.3763,0.3763,0.3763,0.3763,0.3763,0.3763,0.3763,0.3763,0.3803,0.3861,0.3889,0.3985,0.4097,0.4155,0.4214,0.4265,0.4291,0.43,0.43,0.43,0.43,0.43,0.43,0.43,0.43,0.43,0.43,0.43,0.43,0.43,0.43,0.43,0.43,0.4389,0.4569,0.4569,0.4659,0.4835,0.5102,0.5371,0.5463,0.5644,0.5733,0.5733,0.5733,0.5733,0.5733,0.5733,0.5733,0.5733,0.5733,0.5733,0.5733,0.5733,0.5733,0.5733,0.5733,0.5733,0.5733,0.5997,0.6104,-1.5082,-1.509,-1.5006,0.0,0.0,0.0,0.0,0.0,0.0,0.0,0.0,-1.1477,-0.9895,-0.9744,-0.9593,-0.8851,-0.8016,-0.7484,-0.7484,-0.6546,-0.5848,-0.5622,-0.4688,-0.3754,-0.2895,-0.2033,-0.133,-0.0627,0.0313,0.094,0.094,0.196,0.2511,0.2511,0.337,0.3763,0.3763,0.3763,0.3763,0.3763,0.3763,0.3763,0.3763,0.3763,0.3763,0.3763,0.3763,0.3763,0.3763,0.3763,0.3763,0.3763,0.3763,0.3763,0.3763,0.3763,0.3763,0.3763,0.3763,0.3763,0.3777,0.3869,0.3897,0.3932,0.4116,0.4171,0.4191,0.4273,0.4297,0.43,0.43,0.43,0.43,0.43,0.43,0.43,0.43,0.43,0.43,0.43,0.43,0.43,0.43,0.43,0.43,0.43,0.43,0.4389,0.4661,0.4835,0.5191,0.5644,0.5733,0.5733,0.5733,0.5733,0.5733,0.5733,0.5733,0.5733,0.5733,0.5733,0.5733,0.5733,0.5733,0.5733,0.5733,0.5733,0.5733,0.5733,0.67,0.6967,-1.4873,-1.4803,0.0,0.0,0.0,0.0,0.0,0.0,0.0,0.0,-1.1025,-1.0363,-1.1091,-0.9397,-0.8089,-0.8627,-0.7863,-0.6942,-0.6244,-0.5774,-0.4993,-0.3752,-0.321,-0.2429,-0.1175,-0.0861,-0.0391,0.0392,0.133,0.1879,0.2038,0.2901,0.345,0.345,0.3684,0.3763,0.3763,0.3763,0.3763,0.3763,0.3763,0.3763,0.3763,0.3763,0.3763,0.3763,0.3763,0.3763,0.3763,0.3763,0.3763,0.3763,0.3763,0.3763,0.3763,0.3763,0.3763,0.3763,0.3763,0.3763,0.3767,0.3795,0.3846,0.391,0.3963,0.4071,0.4179,0.4204,0.4253,0.43,0.43,0.43,0.43,0.43,0.43,0.43,0.43,0.43,0.43,0.43,0.43,0.43,0.43,0.43,0.43,0.43,0.43,0.4476,0.4835,0.4921,0.5191,0.5644,0.5733,0.5733,0.5733,0.5733,0.5733,0.5733,0.5733,0.5733,0.5733,0.5733,0.5733,0.5733,0.5733,0.5733,0.5733,0.5733,0.5997,0.6697,0.6857,0.7147,-1.5082,-1.4831,0.0,0.0,-1.3931,-1.2792,-1.1927,0.0,0.0,0.0,-1.0784,-1.0116,-1.0587,-0.9281,-0.8196,-0.8097,-0.7088,-0.6086,-0.5699,-0.4841,-0.3906,-0.2896,-0.2036,-0.1175,-0.0235,0.0392,0.1019,0.1489,0.2349,0.2898,0.2979,0.3528,0.3763,0.3763,0.3763,0.3763,0.3763,0.3763,0.3763,0.3763,0.3763,0.3763,0.3763,0.3763,0.3763,0.3763,0.3763,0.3763,0.3763,0.3763,0.3763,0.3763,0.3763,0.3763,0.3763,0.3763,0.3763,0.3763,0.3763,0.3763,0.3763,0.3763,0.3801,0.3852,0.3887,0.3977,0.4071,0.4108,0.4181,0.4249,0.4249,0.4273,0.43,0.43,0.43,0.43,0.43,0.43,0.43,0.43,0.43,0.43,0.43,0.43,0.43,0.43,0.43,0.4478,0.4921,0.501,0.5191,0.5644,0.5733,0.5733,0.5733,0.5733,0.5733,0.5733,0.5733,0.5733,0.5733,0.5733,0.5733,0.5733,0.5733,0.5733,0.5733,0.6086,0.6526,0.7136,0.7666,0.8086,-1.5267,0.0,0.0,0.0,-1.2465,0.0,-1.0724,-1.1099,-1.1395,-1.1,0.0,-1.0498,-0.9153,-0.9311,-0.8995,-0.7338,-0.5848,-0.4991,-0.5309,-0.383,-0.274,-0.2582,-0.1017,0.0078,0.0235,0.1568,0.2511,0.2588,0.3372,0.3837,0.3828,0.3828,0.3902,0.3893,0.3893,0.3893,0.3893,0.3902,0.3984,0.3984,0.3992,0.3919,0.3841,0.3841,0.3763,0.3763,0.3763,0.3763,0.3763,0.3763,0.3763,0.3763,0.3763,0.3763,0.3763,0.3763,0.3763,0.3763,0.3763,0.3763,0.3763,0.3763,0.3763,0.3779,0.3863,0.3893,0.3918,0.3999,0.4089,0.4163,0.4171,0.4316,0.4376,0.4387,0.4389,0.43,0.43,0.43,0.43,0.43,0.43,0.43,0.43,0.43,0.43,0.43,0.43,0.4478,0.4921,0.501,0.5191,0.5644,0.5644,0.5644,0.5733,0.5733,0.5733,0.5733,0.5733,0.5733,0.5733,0.5733,0.5733,0.5822,0.5822,0.5908,0.5997,0.6789,0.7316,0.7397,0.8849,0.9497,0.0,-1.4304,0.0,0.0,-1.0685,-0.7359,-0.7306,-0.9367,-1.0865,-0.9894,-0.9448,-0.9489,-1.0395,-0.8698,-0.6949,-0.6567,-0.5143,-0.3895,-0.3524,-0.2979,-0.2037,-0.0783,-0.0235,0.0548,0.1803,0.2275,0.2746,0.345,0.3684,0.3964,0.4265,0.4261,0.4448,0.48,0.4798,0.4798,0.4798,0.4972,0.5019,0.5022,0.5192,0.4927,0.4465,0.3997,0.3763,0.3763,0.3763,0.3763,0.3763,0.3763,0.3763,0.3763,0.3763,0.3763,0.3763,0.3763,0.3763,0.3763,0.3763,0.3763,0.3763,0.3763,0.3763,0.3767,0.3787,0.3842,0.3903,0.3924,0.3995,0.4081,0.4155,0.4617,0.4998,0.5171,0.4746,0.43,0.43,0.43,0.43,0.43,0.43,0.43,0.43,0.43,0.43,0.43,0.43,0.4478,0.4921,0.4835,0.5018,0.5644,0.5552,0.5552,0.5644,0.5733,0.5733,0.5733,0.5733,0.5733,0.5733,0.5733,0.6086,0.6789,0.6789,0.7139,0.7929,0.8105,0.8544,0.9323,0.9308,0.9692,0.0,0.0,0.0,0.0,0.0,-0.6321,-0.6318,-0.7577,-0.8639,-0.7957,-0.7731,-0.7833,-0.8639,-0.7439,-0.6331,-0.6268,-0.421,-0.2807,-0.3295,-0.2038,-0.0784,0.0078,0.0784,0.1568,0.2431,0.2901,0.3448,0.4153,0.4231,0.4419,0.4836,0.4902,0.4921,0.5084,0.5081,0.5081,0.5081,0.5222,0.5258,0.5261,0.5394,0.541,0.5085,0.4231,0.3763,0.3763,0.3763,0.3763,0.3763,0.3763,0.3763,0.3763,0.3763,0.3763,0.3763,0.3763,0.3763,0.3763,0.3763,0.3763,0.3763,0.3763,0.3763,0.3763,0.3763,0.3797,0.3914,0.4232,0.4302,0.4472,0.4861,0.5249,0.5573,0.5782,0.5328,0.4924,0.5277,0.501,0.4924,0.5277,0.5277,0.5277,0.5277,0.501,0.4746,0.4389,0.43,0.4478,0.4835,0.4748,0.4928,0.5463,0.5463,0.5463,0.5644,0.5733,0.5733,0.5733,0.5733,0.5733,0.5733,0.6174,0.6615,0.7051,0.7139,0.7577,0.8544,0.8982,0.9419,0.9937,1.004,1.0244,0.0,0.0,0.0,0.0,-0.6263,0.0,-0.6288,-0.6338,-0.6338,-0.6338,-0.6338,-0.6338,-0.6338,-0.6338,-0.6268,-0.6278,-0.3513,-0.1796,-0.3141,-0.1333,0.0235,0.0627,0.1724,0.2511,0.2666,0.3372,0.4075,0.4623,0.4701,0.4958,0.5513,0.5582,0.5504,0.5409,0.5402,0.5393,0.5296,0.5393,0.5405,0.5402,0.5475,0.5613,0.5665,0.4588,0.4059,0.3997,0.4075,0.3997,0.3841,0.3919,0.3919,0.3763,0.3763,0.3763,0.3763,0.3763,0.3763,0.3763,0.3763,0.3763,0.3763,0.3763,0.3763,0.3763,0.3763,0.3763,0.3919,0.4387,0.4683,0.4914,0.55,0.5831,0.6111,0.6329,0.6037,0.5877,0.6337,0.5991,0.5725,0.6254,0.6428,0.6428,0.6428,0.5899,0.5369,0.4567,0.4565,0.4656,0.4661,0.475,0.4926,0.5282,0.5371,0.546,0.5644,0.5644,0.5733,0.5733,0.5822,0.5908,0.5908,0.6877,0.7404,0.758,0.758,0.8017,0.8982,0.9772,1.012,1.0202,1.0752,1.0859,0.0,0.0,0.0,0.0,-0.6307,-0.6285,0.0,0.0,-0.6338,-0.6338,-0.6338,-0.6338,-0.6338,-0.6338,-0.6268,-0.6291,-0.3515,-0.1406,-0.157,-0.1333,-0.0313,0.1646,0.2038,0.251,0.3528,0.3763,0.4075,0.4623,0.4701,0.5109,0.6105,0.6172,0.6262,0.646,0.651,0.6435,0.6222,0.6374,0.6513,0.6506,0.6118,0.5985,0.62,0.5532,0.4988,0.4623,0.516,0.4771,0.3841,0.4387,0.4309,0.3763,0.3763,0.3763,0.3763,0.3763,0.3763,0.3763,0.3763,0.3763,0.3763,0.3763,0.3763,0.3763,0.3763,0.3763,0.3841,0.3919,0.4318,0.4742,0.4914,0.5833,0.6694,0.685,0.6922,0.6897,0.6492,0.634,0.6254,0.634,0.6428,0.6428,0.6428,0.634,0.6077,0.5369,0.5722,0.5811,0.4839,0.5015,0.5282,0.5099,0.501,0.5191,0.546,0.5644,0.5733,0.5733,0.6438,0.6877,0.6877,0.7841,0.8719,0.9506,0.9506,0.9946,1.0911,1.1084,1.1089,1.1084,1.1011,1.0859,-1.3977,0.0,0.0,0.0,-0.628,-0.6338,-0.6338,-0.6338,-0.6338,-0.6338,-0.6338,-0.6338,-0.6338,-0.6338,-0.6268,-0.6291,-0.3517,-0.1327,-0.1335,-0.047,0.0862,0.2826,0.3059,0.3214,0.3763,0.4075,0.4543,0.5162,0.555,0.6033,0.6782,0.6771,0.681,0.6846,0.6834,0.6794,0.6717,0.6798,0.6887,0.6985,0.6775,0.6752,0.6984,0.6681,0.588,0.4701,0.501,0.4618,0.3841,0.4075,0.4075,0.3763,0.3763,0.3763,0.3763,0.3763,0.3763,0.3763,0.3763,0.3763,0.3763,0.3763,0.3763,0.3763,0.3763,0.3763,0.3919,0.4616,0.5004,0.5404,0.6087,0.6731,0.725,0.7423,0.7523,0.7484,0.7483,0.7253,0.7224,0.7933,0.8021,0.8017,0.7837,0.7837,0.757,0.6861,0.7034,0.7034,0.6505,0.6593,0.6596,0.6071,0.6508,0.6688,0.6343,0.6874,0.7051,0.6523,0.7404,0.7665,0.7139,0.8544,0.9506,0.9859,0.9859,1.0386,1.1262,1.1262,1.1262,1.1262,1.1241,1.1063,0.0,0.0,0.0,0.0,-0.6325,-0.6335,0.0,0.0,-0.6338,-0.6338,-0.6264,-0.6268,-0.6268,-0.6268,-0.6271,-0.6291,-0.3519,-0.1329,-0.1335,0.0235,0.196,0.3614,0.3767,0.3841,0.3997,0.4363,0.4963,0.5726,0.6266,0.6757,0.7158,0.7265,0.7208,0.7029,0.7021,0.7001,0.7023,0.7023,0.7021,0.7155,0.7155,0.7248,0.7419,0.7419,0.6517,0.4932,0.5087,0.4851,0.4229,0.4075,0.3997,0.3997,0.3997,0.3919,0.3841,0.3997,0.3919,0.3763,0.3763,0.3763,0.3763,0.3763,0.3763,0.3763,0.3763,0.3763,0.3997,0.4927,0.5389,0.5854,0.6784,0.7249,0.7516,0.7659,0.7728,0.7858,0.8215,0.7993,0.8109,0.9082,0.9262,0.9257,0.9157,0.9157,0.8886,0.8173,0.8261,0.8257,0.7815,0.7994,0.7822,0.7126,0.7742,0.8006,0.7401,0.8105,0.8193,0.7489,0.8368,0.8544,0.7841,0.9419,1.0294,1.0294,1.0294,1.0559,1.1262,1.1262,1.1262,1.1262,1.1262,1.1219,0.0,0.0,0.0,0.0,0.0,0.0,0.0,-0.6338,-0.6338,-0.6338,-0.6271,-0.6278,-0.6278,-0.6278,-0.6281,-0.6295,-0.3448,-0.1333,-0.1335,0.0235,0.196,0.3614,0.3767,0.3997,0.4621,0.4523,0.4911,0.6183,0.6332,0.6555,0.7154,0.7378,0.7391,0.7216,0.7212,0.7131,0.7027,0.7023,0.7027,0.704,0.704,0.7062,0.724,0.724,0.6644,0.5622,0.6247,0.6093,0.547,0.4851,0.4623,0.4623,0.4623,0.4309,0.3841,0.4465,0.4311,0.3763,0.3763,0.3763,0.3763,0.3763,0.3763,0.3763,0.3763,0.3763,0.3841,0.3841,0.4693,0.5622,0.5699,0.663,0.7484,0.7496,0.763,0.7858,0.8215,0.8434,0.8652,0.9174,0.9262,0.9432,0.9864,0.9951,0.9685,0.8978,0.9419,0.9414,0.799,0.844,0.8532,0.7815,0.7998,0.8177,0.8181,0.8364,0.8456,0.8456,0.9331,0.9772,0.9772,1.0738,1.1262,1.1262,1.1262,1.1262,1.1262,1.1262,1.1262,1.1262,1.1262,1.1219,0.0,0.0,0.0,-0.7541,-0.671,-0.6321,-0.6325,-0.6331,-0.6338,-0.6338,-0.6271,-0.5637,-0.3505,-0.4851,-0.5575,-0.3448,-0.2116,-0.0549,0.1648,0.1883,0.2275,0.3616,0.3767,0.4075,0.4623,0.4901,0.5426,0.6243,0.6595,0.6828,0.7049,0.711,0.7114,0.7049,0.7049,0.7021,0.7023,0.7023,0.7013,0.7127,0.7127,0.722,0.7391,0.7011,0.6812,0.6784,0.5783,0.5007,0.4462,0.4231,0.4153,0.4153,0.4153,0.3997,0.3841,0.4075,0.3997,0.3763,0.3763,0.3763,0.3763,0.3763,0.3763,0.3763,0.3763,0.3763,0.3919,0.4231,0.4698,0.524,0.6015,0.656,0.7022,0.7407,0.7626,0.7793,0.7923,0.843,0.9022,0.9666,0.9951,1.0294,1.0738,1.0824,1.0738,1.0472,1.0651,1.0646,1.0111,1.0289,1.0115,0.9231,0.9763,0.9941,0.9327,0.9941,1.0033,0.9419,1.0299,1.0559,0.9946,1.0824,1.1262,1.1262,1.1262,1.1262,1.1262,1.1262,1.1262,1.1262,1.1262,1.1305,-0.9233,0.0,0.0,0.0,0.0,-0.6637,-0.6398,-0.6325,-0.6331,-0.6338,-0.6274,-0.5246,-0.1945,-0.3125,-0.3923,-0.1646,-0.1333,-0.0078,0.3299,0.2668,0.2353,0.3616,0.3767,0.4153,0.4929,0.5281,0.5709,0.6467,0.6801,0.6995,0.6933,0.6991,0.7023,0.7023,0.7023,0.7023,0.7023,0.7023,0.7013,0.7135,0.6984,0.697,0.7076,0.6453,0.6325,0.6478,0.5223,0.4698,0.4696,0.4075,0.3919,0.4075,0.4075,0.3997,0.3841,0.3997,0.3997,0.3763,0.3763,0.3763,0.3763,0.3763,0.3763,0.3763,0.3763,0.3763,0.3919,0.4311,0.4545,0.4932,0.6015,0.656,0.7022,0.7407,0.7577,0.7683,0.7748,0.8444,0.9168,0.9561,1.0154,1.0727,1.0992,1.1176,1.1262,1.1262,1.1262,1.1262,1.1262,1.1262,1.1089,1.0472,1.0911,1.1084,1.0386,1.0911,1.1003,1.0386,1.0997,1.1003,1.0386,1.0997,1.1262,1.1262,1.1262,1.1262,1.1262,1.1262,1.1262,1.1262,1.1262,1.1182,0.0,0.0,0.0,0.0,0.0,-0.7269,-0.6479,-0.6321,-0.6325,-0.6338,-0.6281,-0.5257,-0.195,-0.1331,-0.1335,-0.1333,-0.1334,-0.0157,0.3221,0.2353,0.196,0.3614,0.3767,0.4307,0.5467,0.5506,0.5818,0.6893,0.7019,0.6933,0.6676,0.6909,0.7007,0.7007,0.7007,0.7007,0.7007,0.7007,0.7011,0.6944,0.6437,0.6151,0.6162,0.5648,0.5193,0.461,0.4647,0.5395,0.6405,0.454,0.4153,0.4698,0.4698,0.4309,0.3841,0.4467,0.4309,0.3763,0.3763,0.3763,0.3763,0.3763,0.3763,0.3763,0.3763,0.3763,0.3763,0.3763,0.4231,0.4776,0.5392,0.6553,0.7484,0.748,0.7484,0.7533,0.7711,0.8431,0.8945,0.8958,0.9881,1.0544,1.0549,1.0992,1.1262,1.1262,1.1262,1.1262,1.1262,1.1262,1.1262,1.1262,1.1262,1.1262,1.1262,1.1262,1.1262,1.1262,1.1262,1.1262,1.1262,1.1262,1.1262,1.1262,1.1262,1.1262,1.1262,1.1262,1.1262,1.1262,1.1262,1.1011,-0.965,0.0,0.0,0.0,0.0,0.0,-0.7188,-0.6945,-0.6633,-0.6338,-0.6281,-0.526,-0.1956,-0.1333,-0.1335,-0.1335,-0.1335,-0.0549,0.1647,0.196,0.2352,0.3608,0.3765,0.4307,0.5467,0.5506,0.5818,0.6893,0.69,0.6676,0.6501,0.6538,0.6566,0.6566,0.6566,0.6566,0.6566,0.6566,0.6427,0.6201,0.6058,0.5839,0.5591,0.4971,0.4891,0.5199,0.4332,0.4392,0.5165,0.4231,0.3919,0.4075,0.4075,0.3919,0.3841,0.3997,0.3919,0.3763,0.3763,0.3763,0.3763,0.3763,0.3763,0.3763,0.3763,0.3763,0.3763,0.3763,0.3919,0.4153,0.4776,0.6244,0.7407,0.6945,0.7176,0.7496,0.7549,0.8132,0.871,0.899,0.9517,1.0032,1.0183,1.0467,1.0814,1.0814,1.1084,1.1262,1.1262,1.1262,1.1262,1.1262,1.1262,1.1262,1.1262,1.1262,1.1262,1.1262,1.1262,1.1262,1.1262,1.1262,1.1262,1.1262,1.1262,1.1262,1.1262,1.1262,1.1262,1.1262,1.1262,1.1011,0.0,0.0,0.0,-0.7561,0.0,0.0,-0.7342,-0.7103,-0.6872,-0.6821,-0.6525,-0.5263,-0.1881,-0.1334,-0.1335,-0.1335,-0.1335,-0.0707,0.1019,0.1724,0.251,0.3684,0.3763,0.4307,0.5467,0.5555,0.5907,0.7005,0.6895,0.668,0.6432,0.642,0.642,0.642,0.642,0.642,0.642,0.6152,0.6,0.5755,0.5348,0.4986,0.4784,0.427,0.4183,0.4608,0.3849,0.3849,0.4243,0.3859,0.3728,0.3763,0.3763,0.3763,0.3763,0.3763,0.3763,0.3763,0.3763,0.3763,0.3763,0.3763,0.3763,0.3763,0.3763,0.3763,0.3763,0.3763,0.4151,0.4618,0.5007,0.6244,0.7407,0.7022,0.7253,0.7484,0.7484,0.7798,0.8199,0.8418,0.9123,0.9582,0.9614,0.9904,1.0277,1.0534,1.0814,1.1084,1.1262,1.1262,1.1262,1.1262,1.1262,1.1262,1.1262,1.1262,1.1262,1.1262,1.1262,1.1262,1.1262,1.1262,1.1262,1.1262,1.1262,1.1262,1.1262,1.1262,1.1262,1.1262,1.1246,1.0993,0.0,0.0,0.0,-0.7484,-0.7484,0.0,-0.718,-0.7019,-0.703,-0.7312,-0.6525,-0.4862,-0.1879,-0.1334,-0.1335,-0.1335,-0.1335,-0.0707,0.1019,0.1882,0.2666,0.3684,0.3763,0.4229,0.5389,0.5544,0.603,0.7013,0.7037,0.6773,0.6436,0.642,0.642,0.642,0.642,0.642,0.642,0.5885,0.5547,0.5481,0.4492,0.3961,0.3897,0.3518,0.3354,0.3438,0.345,0.3534,0.3612,0.3622,0.3679,0.3763,0.3763,0.3763,0.3763,0.3763,0.3763,0.3763,0.3763,0.3763,0.3763,0.3763,0.3763,0.3763,0.3763,0.3763,0.3763,0.3763,0.4618,0.5467,0.5467,0.6475,0.7407,0.7407,0.7484,0.7484,0.7484,0.7484,0.7533,0.7699,0.8591,0.9196,0.8981,0.9358,0.9931,1.0449,1.0565,1.0742,1.1182,1.1187,1.1198,1.1225,1.1311,1.1322,1.1262,1.1262,1.1262,1.1262,1.1262,1.1262,1.1262,1.1262,1.1262,1.1262,1.1262,1.1251,1.1311,1.1251,1.1251,1.1219,1.1085,1.0842,-0.8268,-0.7799,-0.7723,-0.7561,-0.7484,0.0,-0.7407,-0.7246,-0.6934,-0.6641,-0.4285,-0.2103,-0.1406,-0.1333,-0.1335,-0.1335,-0.1335,-0.0707,0.1019,0.2589,0.3534,0.3765,0.3763,0.4075,0.4776,0.5315,0.5873,0.6406,0.6639,0.6652,0.6428,0.642,0.642,0.642,0.642,0.642,0.642,0.5885,0.5415,0.4948,0.4292,0.3761,0.3362,0.3244,0.3293,0.3434,0.3383,0.3442,0.353,0.3597,0.3679,0.3763,0.3763,0.3763,0.3763,0.3763,0.3763,0.3763,0.3763,0.3763,0.3763,0.3763,0.3763,0.3763,0.3763,0.3763,0.3763,0.3763,0.4309,0.4854,0.4854,0.5783,0.6791,0.6791,0.7176,0.7484,0.7484,0.7484,0.7492,0.7529,0.8151,0.8582,0.8699,0.9311,0.9906,1.0028,1.0362,1.0608,1.069,1.0778,1.0848,1.1036,1.1052,1.1139,1.1246,1.1262,1.1262,1.1262,1.1262,1.1262,1.1262,1.1262,1.1262,1.1262,1.1262,1.1252,1.1058,1.1257,1.1252,1.1052,1.1004,1.0762,-0.8255,-0.7723,-0.7642,-0.7561,-0.7484,0.0,0.0,-0.733,-0.718,-0.6802,-0.5473,-0.3908,-0.2188,-0.1568,-0.1335,-0.1335,-0.1335,-0.1021,-0.0157,0.2196,0.3614,0.3215,0.3528,0.4075,0.4623,0.5237,0.595,0.6708,0.6829,0.6745,0.6566,0.6469,0.642,0.642,0.642,0.6284,0.6017,0.5481,0.4951,0.4422,0.3825,0.3426,0.3226,0.3226,0.3252,0.3295,0.3295,0.3348,0.3436,0.3479,0.3573,0.3699,0.3744,0.3763,0.3763,0.3763,0.3763,0.3763,0.3763,0.3763,0.3763,0.3763,0.3763,0.3763,0.3763,0.3763,0.3763,0.3763,0.4231,0.4701,0.4701,0.5631,0.6563,0.6563,0.7022,0.7484,0.7484,0.7484,0.7484,0.7484,0.7944,0.8304,0.8497,0.8854,0.929,0.9806,1.007,1.0314,1.0557,1.0638,1.0681,1.0799,1.081,1.0859,1.0899,1.091,1.091,1.091,1.091,1.091,1.091,1.091,1.091,1.091,1.091,1.0934,1.081,1.0934,1.0929,1.0805,1.0692,1.0514,-0.8178,-0.7642,-0.7484,-0.7484,-0.7484,-0.7484,0.0,0.0,0.0,-0.6894,-0.7002,-0.6217,-0.2974,-0.1882,-0.1493,-0.1335,-0.1335,-0.1335,-0.1333,0.1097,0.2826,0.2746,0.3372,0.3997,0.4465,0.5237,0.6026,0.6935,0.7086,0.6982,0.6708,0.6554,0.6457,0.642,0.6284,0.6017,0.5617,0.4951,0.442,0.3961,0.3426,0.3226,0.3226,0.3226,0.3226,0.3226,0.3226,0.3269,0.3338,0.3356,0.3448,0.3587,0.3695,0.3746,0.3763,0.3763,0.3763,0.3763,0.3763,0.3763,0.3763,0.3763,0.3763,0.3763,0.3763,0.3763,0.3763,0.3763,0.4153,0.4543,0.4776,0.5628,0.6483,0.6714,0.7176,0.7484,0.7484,0.7484,0.7484,0.7484,0.7795,0.815,0.8378,0.8483,0.8857,0.9747,0.9938,1.0018,1.0418,1.0498,1.0514,1.0562,1.0568,1.0589,1.0632,1.0638,1.0638,1.0638,1.0638,1.0638,1.0638,1.0638,1.0638,1.0638,1.0638,1.0611,1.0568,1.0568,1.0568,1.0562,1.0379,1.0266,-0.803,-0.7642,-0.7484,-0.7484,-0.7484,-0.7484,-0.7484,0.0,-0.624,-0.6005,0.0,-0.5179,-0.2503,0.0,0.0,-0.1415,-0.1335,-0.1335,-0.1335,-0.0942,0.0392,0.3299,0.3767,0.3841,0.3919,0.5076,0.602,0.6406,0.7048,0.7262,0.6712,0.6676,0.6591,0.6424,0.5951,0.5683,0.5617,0.4622,0.4092,0.3961,0.3426,0.3226,0.3226,0.3226,0.3226,0.3226,0.3226,0.3232,0.3248,0.333,0.3375,0.3409,0.3577,0.3691,0.3763,0.3763,0.3763,0.3763,0.3763,0.3763,0.3763,0.3763,0.3763,0.3763,0.3763,0.3763,0.3763,0.3763,0.3841,0.4153,0.5237,0.5625,0.6009,0.7096,0.7484,0.7484,0.7484,0.7484,0.7484,0.7484,0.7795,0.8183,0.8579,0.8971,0.9367,0.9845,0.9926,0.9926,1.0003,1.0003,1.0089,1.0309,1.0336,1.0417,1.0616,1.0638,1.0638,1.0638,1.0638,1.0638,1.0638,1.0638,1.0638,1.0638,1.0638,1.0536,1.0336,1.0336,1.0336,1.0331,1.0304,1.0175,-0.803,-0.7723,-0.7642,-0.7561,-0.7565,-0.7488,-0.6861,-0.6872,-0.6725,-0.5941,0.0,0.0,0.0,0.0,0.0,0.0,-0.1335,-0.1335,-0.1335,-0.1335,-0.0392,0.204,0.3217,0.3925,0.4311,0.4851,0.5369,0.5848,0.6149,0.6194,0.5923,0.5818,0.5686,0.562,0.5259,0.5017,0.4688,0.4228,0.3828,0.356,0.3293,0.3023,0.2619,0.2619,0.2418,0.1949,0.1949,0.2217,0.2621,0.2652,0.2968,0.3377,0.3503,0.3605,0.3691,0.3742,0.3763,0.3763,0.3763,0.3763,0.3763,0.3763,0.3763,0.3763,0.3763,0.3763,0.3763,0.3763,0.3763,0.3919,0.4462,0.5082,0.5699,0.624,0.6938,0.7484,0.7484,0.7484,0.7484,0.7484,0.7795,0.8255,0.8627,0.9013,0.9473,0.9846,0.9922,0.9922,0.9922,0.9922,0.996,1.0067,1.0078,1.0116,1.0213,1.0218,1.0218,1.0218,1.0218,1.0218,1.0218,1.0218,1.0218,1.0218,1.0218,1.0169,1.0078,1.0078,1.0078,1.0078,1.0078,1.0019,-0.8102,-0.788,-0.7723,-0.7561,-0.7642,-0.7488,-0.6398,-0.6486,-0.6578,-0.5559,-0.5736,0.0,0.0,0.0,-0.2123,-0.1415,0.0,-0.1335,-0.1335,-0.11,-0.0235,0.1725,0.3139,0.4162,0.4545,0.4776,0.5007,0.5389,0.5533,0.5466,0.5432,0.5243,0.5115,0.5008,0.4742,0.4473,0.4076,0.3706,0.3288,0.2956,0.2688,0.2351,0.1879,0.1879,0.1612,0.1076,0.1076,0.1411,0.1879,0.1879,0.2378,0.3055,0.3139,0.3368,0.3605,0.3722,0.3763,0.3763,0.3763,0.3763,0.3763,0.3763,0.3763,0.3763,0.3763,0.3763,0.3763,0.3763,0.3763,0.3841,0.3997,0.4696,0.547,0.578,0.6556,0.733,0.7484,0.7484,0.7484,0.7484,0.7944,0.8327,0.8627,0.9013,0.9473,0.9846,0.9922,0.9922,0.9922,0.9922,0.9922,0.9922,0.9922,0.9922,0.9922,0.9922,0.9922,0.9922,0.9922,0.9922,0.9922,0.9922,0.9922,0.9922,0.9922,0.9922,0.9922,0.9922,0.9922,0.9922,0.9922,0.9922,-0.8178,-0.7953,-0.7723,-0.7561,-0.7484,-0.7249,-0.6395,-0.5622,-0.4927,-0.438,-0.3368,-0.2668,-0.2668,-0.2277,-0.1807,-0.1336,-0.1335,0.0,0.0,-0.055,0.0864,0.3458,0.4084,0.4316,0.4238,0.4857,0.524,0.5004,0.5535,0.5708,0.5439,0.5423,0.5282,0.5078,0.4531,0.4194,0.4194,0.2925,0.2281,0.2214,0.1478,0.1143,0.1143,0.1143,0.1143,0.1076,0.1076,0.1143,0.1143,0.1143,0.1546,0.2224,0.2286,0.285,0.3526,0.3699,0.3763,0.3763,0.3763,0.3763,0.3763,0.3763,0.3763,0.3763,0.3763,0.3763,0.3763,0.3763,0.3763,0.3919,0.4543,0.4701,0.501,0.6251,0.6563,0.6791,0.7407,0.7484,0.7484,0.7484,0.8169,0.8703,0.8703,0.9013,0.9473,0.9846,0.9922,0.9922,0.9922,0.9922,0.9922,0.9922,0.9922,0.9922,0.9922,0.9922,0.9922,0.9922,0.9922,0.9922,0.9922,0.9922,0.9922,0.9922,0.9922,0.9922,0.9922,0.9922,0.9922,0.9922,0.9922,0.9922,-0.8327,-0.7949,-0.7642,-0.7646,-0.7096,-0.6237,-0.5544,-0.4924,-0.4224,-0.329,-0.2586,-0.2196,-0.2435,-0.1964,-0.1493,-0.1335,-0.1335,-0.1335,0.0,-0.055,0.1021,0.3859,0.409,0.4081,0.4309,0.4309,0.4309,0.4387,0.4462,0.4445,0.4337,0.4268,0.3911,0.3356,0.3056,0.2655,0.208,0.1609,0.1381,0.1381,0.122,0.0874,0.0403,0.0403,0.0134,-0.0336,-0.0336,-0.0067,0.0403,0.0403,0.0806,0.1482,0.1525,0.2063,0.2852,0.3477,0.371,0.3763,0.3763,0.3763,0.3763,0.3763,0.3763,0.3763,0.3763,0.3763,0.3763,0.3763,0.3763,0.3841,0.4075,0.4387,0.4932,0.5702,0.6247,0.6791,0.7407,0.7484,0.7561,0.7868,0.8327,0.878,0.9089,0.9468,0.9771,0.9846,0.9922,0.9922,0.9922,0.9922,0.9922,0.9922,0.9922,0.9922,0.9922,0.9922,0.9922,0.9922,0.9922,0.9922,0.9922,0.9922,0.9922,0.9922,0.9922,0.9922,0.9922,0.9922,0.9922,0.9922,0.9922,0.9922,-0.8403,-0.7944,-0.7484,-0.7569,-0.6784,-0.5774,-0.5002,-0.4538,-0.3915,-0.2744,-0.2275,-0.2038,-0.2042,-0.1728,-0.1493,-0.1335,-0.1335,-0.1335,0.0,-0.0786,0.0314,0.2358,0.354,0.4008,0.3366,0.3843,0.3925,0.3294,0.3214,0.3136,0.2899,0.2855,0.2526,0.1991,0.1869,0.1547,0.1031,0.0503,0.0213,0.0142,-0.0276,-0.0613,-0.0818,-0.0809,-0.0873,-0.1076,-0.1076,-0.0807,-0.0403,-0.0403,0.0067,0.0741,0.0763,0.1281,0.2042,0.292,0.3454,0.3763,0.3763,0.3763,0.3763,0.3763,0.3763,0.3763,0.3763,0.3763,0.3763,0.3763,0.3763,0.3763,0.3763,0.4075,0.4621,0.5392,0.5935,0.6479,0.7326,0.7484,0.7561,0.7868,0.8327,0.878,0.9013,0.9544,0.9922,0.9922,0.9922,0.9922,0.9922,0.9922,0.9922,0.9922,0.9922,0.9922,0.9922,0.9922,0.9922,0.9922,0.9922,0.9922,0.9922,0.9922,0.9922,0.9922,0.9922,0.9922,0.9922,0.9922,0.9922,0.9922,0.9922,0.9922]},{"header":{"parameterUnit":"m.s-1","parameterCategory":1,"la1":30.6,"la2":29.2853,"lo1":-89.7004,"lo2":-87.6739,"dy":0.0162,"dx":0.0183,"nx":112,"ny":82,"refTime":"2023-07-02T12:00:00:Z","depth":0,"parameterNumber":3,"parameterNumberName":"V-component_of_WINDS"},"data":[0.0,0.0,0.0,0.0,0.0,0.0,0.0,0.0,0.0,0.0,0.0,0.0,0.0,0.0,0.0,0.0,0.0,0.0,0.0,0.0,0.0,0.0,0.0,0.0,0.0,0.0,0.0,0.0,0.0,0.0,0.0,0.0,0.0,0.0,0.0,0.0,0.0,0.0,0.0,0.0,0.0,0.0,0.0,0.0,0.0,0.0,0.0,0.0,0.0,0.0,0.0,0.0,0.0,0.0,0.0,0.0,0.0,0.0,0.0,0.0,0.0,0.0,0.0,0.0,0.0,0.0,0.0,0.0,0.0,0.0,0.0,0.0,0.0,0.0,0.0,0.0,0.0,0.0,0.0,0.0,0.0,0.0,0.0,0.0,0.0,0.0,0.0,0.0,0.0,0.0,-3.1848,-3.2179,-3.2506,-3.2437,-3.1841,-3.2369,-3.2606,-3.2318,0.0,0.0,0.0,0.0,0.0,0.0,0.0,0.0,0.0,0.0,0.0,0.0,0.0,0.0,0.0,0.0,0.0,0.0,0.0,0.0,0.0,0.0,0.0,0.0,0.0,0.0,0.0,0.0,0.0,0.0,0.0,0.0,0.0,0.0,0.0,0.0,0.0,0.0,0.0,0.0,0.0,0.0,0.0,0.0,0.0,0.0,0.0,0.0,0.0,0.0,0.0,0.0,0.0,0.0,0.0,0.0,0.0,0.0,0.0,0.0,0.0,0.0,0.0,0.0,0.0,0.0,0.0,0.0,0.0,0.0,0.0,0.0,0.0,0.0,0.0,0.0,0.0,0.0,0.0,0.0,0.0,0.0,0.0,0.0,0.0,0.0,0.0,0.0,0.0,0.0,0.0,0.0,0.0,0.0,0.0,0.0,0.0,0.0,0.0,0.0,0.0,0.0,0.0,0.0,-3.2144,-3.2283,-3.2056,-3.1967,-3.2197,-3.202,-3.202,-3.2283,0.0,0.0,0.0,0.0,0.0,0.0,0.0,0.0,0.0,0.0,0.0,0.0,0.0,0.0,0.0,0.0,0.0,0.0,0.0,0.0,0.0,0.0,0.0,0.0,0.0,0.0,0.0,0.0,0.0,0.0,0.0,0.0,0.0,0.0,0.0,0.0,0.0,0.0,0.0,0.0,0.0,0.0,0.0,0.0,0.0,0.0,0.0,0.0,0.0,0.0,0.0,0.0,0.0,0.0,0.0,0.0,0.0,0.0,0.0,0.0,0.0,0.0,0.0,0.0,0.0,0.0,0.0,0.0,0.0,0.0,0.0,0.0,0.0,0.0,0.0,0.0,0.0,0.0,0.0,0.0,0.0,0.0,0.0,0.0,0.0,0.0,0.0,0.0,0.0,0.0,0.0,0.0,0.0,0.0,0.0,0.0,0.0,0.0,0.0,0.0,0.0,0.0,0.0,-3.1272,-3.1875,-3.1949,-3.202,-3.202,-3.1985,-3.2197,-3.2352,-3.2318,-3.2283,0.0,0.0,0.0,0.0,0.0,0.0,0.0,0.0,0.0,0.0,0.0,0.0,0.0,0.0,0.0,0.0,0.0,0.0,0.0,0.0,0.0,0.0,0.0,0.0,0.0,0.0,0.0,0.0,0.0,0.0,0.0,0.0,0.0,0.0,0.0,0.0,0.0,0.0,0.0,0.0,0.0,0.0,0.0,0.0,0.0,0.0,0.0,0.0,0.0,0.0,0.0,0.0,0.0,0.0,0.0,0.0,0.0,0.0,0.0,0.0,0.0,0.0,0.0,0.0,0.0,0.0,0.0,0.0,0.0,0.0,0.0,0.0,0.0,0.0,0.0,0.0,0.0,0.0,0.0,0.0,0.0,0.0,0.0,0.0,0.0,0.0,0.0,0.0,0.0,0.0,0.0,0.0,0.0,0.0,0.0,0.0,0.0,0.0,0.0,0.0,0.0,0.0,-3.1515,-3.2098,-3.199,-3.2161,-3.2127,-3.1714,-3.2335,-3.2639,-3.2318,-3.2283,0.0,0.0,0.0,0.0,0.0,0.0,0.0,0.0,0.0,0.0,0.0,0.0,0.0,0.0,0.0,0.0,0.0,0.0,0.0,0.0,0.0,0.0,0.0,0.0,0.0,0.0,0.0,0.0,0.0,0.0,0.0,0.0,0.0,0.0,0.0,0.0,0.0,0.0,0.0,0.0,0.0,0.0,0.0,0.0,0.0,0.0,0.0,0.0,0.0,0.0,0.0,0.0,0.0,0.0,0.0,0.0,0.0,0.0,0.0,0.0,0.0,0.0,0.0,0.0,0.0,0.0,0.0,0.0,0.0,0.0,0.0,0.0,0.0,0.0,0.0,0.0,0.0,0.0,0.0,0.0,0.0,0.0,0.0,0.0,0.0,0.0,0.0,0.0,0.0,0.0,0.0,0.0,0.0,0.0,0.0,0.0,0.0,0.0,0.0,0.0,0.0,0.0,-3.3581,-3.3634,-3.2896,-3.2527,-3.2127,-3.1714,-3.2091,-3.2318,-3.2283,-3.2283,0.0,0.0,0.0,0.0,0.0,0.0,0.0,0.0,0.0,0.0,0.0,0.0,0.0,0.0,0.0,0.0,0.0,0.0,0.0,0.0,0.0,0.0,0.0,0.0,0.0,0.0,0.0,0.0,0.0,0.0,0.0,0.0,0.0,0.0,0.0,0.0,0.0,0.0,0.0,0.0,0.0,0.0,0.0,0.0,0.0,0.0,0.0,0.0,0.0,0.0,0.0,0.0,0.0,0.0,0.0,0.0,0.0,0.0,0.0,0.0,0.0,0.0,0.0,0.0,0.0,0.0,0.0,0.0,0.0,0.0,0.0,0.0,0.0,0.0,0.0,0.0,0.0,0.0,0.0,0.0,0.0,0.0,0.0,0.0,0.0,0.0,0.0,0.0,0.0,0.0,0.0,0.0,0.0,0.0,0.0,0.0,0.0,0.0,0.0,0.0,0.0,0.0,-3.3528,-3.4142,-3.4049,-3.3897,-3.3739,-3.3576,-3.39,-3.381,-3.3073,0.0,0.0,0.0,0.0,0.0,0.0,0.0,0.0,0.0,0.0,0.0,0.0,0.0,0.0,0.0,0.0,0.0,0.0,0.0,0.0,0.0,0.0,0.0,0.0,0.0,0.0,0.0,0.0,0.0,0.0,0.0,0.0,0.0,0.0,0.0,0.0,0.0,0.0,0.0,0.0,0.0,0.0,0.0,0.0,0.0,0.0,0.0,0.0,0.0,0.0,0.0,0.0,0.0,0.0,0.0,0.0,0.0,0.0,0.0,0.0,0.0,0.0,0.0,0.0,0.0,0.0,0.0,0.0,0.0,0.0,0.0,0.0,0.0,0.0,0.0,0.0,0.0,0.0,0.0,0.0,0.0,0.0,0.0,0.0,0.0,0.0,0.0,0.0,0.0,0.0,0.0,0.0,0.0,0.0,0.0,0.0,0.0,0.0,0.0,0.0,0.0,0.0,-3.2806,-3.4051,-3.4931,-3.5023,-3.4922,-3.4835,-3.4726,-3.4995,-3.4693,-3.3565,0.0,0.0,0.0,0.0,0.0,0.0,0.0,0.0,0.0,0.0,0.0,0.0,0.0,0.0,0.0,0.0,0.0,0.0,0.0,0.0,0.0,0.0,0.0,0.0,0.0,0.0,0.0,0.0,0.0,0.0,0.0,0.0,0.0,0.0,0.0,0.0,0.0,0.0,0.0,0.0,0.0,0.0,0.0,0.0,0.0,0.0,0.0,0.0,0.0,0.0,0.0,0.0,0.0,0.0,0.0,0.0,0.0,0.0,0.0,0.0,0.0,0.0,0.0,0.0,0.0,0.0,0.0,0.0,0.0,0.0,0.0,0.0,0.0,0.0,0.0,0.0,0.0,0.0,0.0,0.0,0.0,0.0,0.0,0.0,0.0,0.0,0.0,0.0,0.0,0.0,0.0,0.0,0.0,0.0,0.0,0.0,0.0,0.0,0.0,0.0,0.0,0.0,-3.4324,-3.5579,-3.6238,-3.5872,-3.5457,-3.5101,-3.4744,-3.5031,-3.4746,0.0,0.0,0.0,0.0,0.0,0.0,0.0,0.0,0.0,0.0,0.0,0.0,0.0,0.0,0.0,0.0,0.0,0.0,0.0,0.0,0.0,0.0,0.0,0.0,0.0,0.0,0.0,0.0,0.0,0.0,0.0,0.0,0.0,0.0,0.0,0.0,0.0,0.0,0.0,0.0,0.0,0.0,0.0,0.0,0.0,0.0,0.0,0.0,0.0,0.0,0.0,0.0,0.0,0.0,0.0,0.0,0.0,0.0,0.0,0.0,0.0,0.0,0.0,0.0,0.0,0.0,0.0,0.0,0.0,0.0,0.0,0.0,0.0,0.0,0.0,0.0,0.0,0.0,0.0,0.0,0.0,0.0,0.0,0.0,0.0,0.0,0.0,0.0,0.0,0.0,0.0,0.0,0.0,0.0,0.0,0.0,0.0,0.0,0.0,0.0,0.0,0.0,0.0,-3.4451,-3.6093,-3.7201,-3.7056,-3.697,-3.6845,-3.6736,-3.7005,-3.6362,-3.4462,0.0,0.0,0.0,0.0,0.0,0.0,0.0,0.0,0.0,0.0,0.0,0.0,0.0,0.0,0.0,0.0,0.0,0.0,0.0,0.0,0.0,0.0,0.0,0.0,0.0,0.0,0.0,0.0,0.0,0.0,0.0,0.0,0.0,0.0,0.0,0.0,0.0,0.0,0.0,0.0,0.0,0.0,0.0,0.0,0.0,0.0,0.0,0.0,0.0,0.0,0.0,0.0,0.0,0.0,0.0,0.0,0.0,0.0,0.0,0.0,0.0,0.0,0.0,0.0,0.0,0.0,0.0,0.0,0.0,0.0,0.0,0.0,0.0,0.0,0.0,0.0,0.0,0.0,0.0,0.0,0.0,0.0,0.0,0.0,0.0,0.0,0.0,0.0,0.0,0.0,0.0,0.0,0.0,0.0,0.0,0.0,0.0,0.0,0.0,0.0,0.0,0.0,-3.4506,-3.6324,-3.7577,-3.7577,-3.7577,-3.7577,-3.7577,-3.7863,-3.7253,-3.5527,0.0,0.0,0.0,0.0,0.0,0.0,0.0,0.0,0.0,0.0,0.0,0.0,0.0,0.0,0.0,0.0,0.0,0.0,0.0,0.0,0.0,0.0,0.0,0.0,0.0,0.0,0.0,0.0,0.0,0.0,0.0,0.0,0.0,0.0,0.0,0.0,0.0,0.0,0.0,0.0,0.0,0.0,0.0,0.0,0.0,0.0,0.0,0.0,0.0,0.0,0.0,0.0,0.0,0.0,0.0,0.0,0.0,0.0,0.0,0.0,0.0,0.0,0.0,0.0,0.0,0.0,0.0,0.0,0.0,0.0,0.0,0.0,0.0,0.0,0.0,0.0,0.0,0.0,0.0,0.0,0.0,0.0,0.0,0.0,0.0,0.0,0.0,0.0,0.0,0.0,0.0,0.0,0.0,0.0,0.0,0.0,0.0,0.0,0.0,0.0,0.0,0.0,-3.4506,-3.6324,-3.7577,-3.7577,-3.7613,-3.7649,-3.7649,-3.7933,-3.7623,-3.659,0.0,0.0,0.0,0.0,0.0,0.0,0.0,0.0,0.0,0.0,0.0,0.0,0.0,0.0,0.0,0.0,0.0,0.0,0.0,0.0,0.0,0.0,0.0,0.0,0.0,0.0,0.0,0.0,0.0,0.0,0.0,0.0,0.0,0.0,0.0,0.0,0.0,0.0,0.0,0.0,0.0,0.0,0.0,0.0,0.0,0.0,0.0,0.0,0.0,0.0,0.0,0.0,0.0,0.0,0.0,0.0,0.0,0.0,0.0,0.0,-3.3236,-3.2315,0.0,0.0,0.0,0.0,0.0,0.0,0.0,0.0,0.0,0.0,0.0,0.0,0.0,0.0,0.0,0.0,0.0,0.0,0.0,0.0,0.0,0.0,0.0,0.0,0.0,0.0,0.0,0.0,0.0,0.0,0.0,0.0,0.0,0.0,0.0,0.0,0.0,0.0,0.0,0.0,-3.4635,-3.6379,-3.7577,-3.7577,-3.7792,-3.7915,-3.7915,-3.835,-3.8131,-3.6892,-3.7131,0.0,0.0,0.0,0.0,0.0,0.0,0.0,0.0,0.0,0.0,0.0,0.0,0.0,0.0,0.0,0.0,0.0,0.0,0.0,0.0,0.0,0.0,0.0,0.0,0.0,0.0,0.0,0.0,0.0,0.0,0.0,0.0,0.0,0.0,0.0,0.0,0.0,0.0,0.0,0.0,0.0,0.0,0.0,0.0,0.0,0.0,0.0,0.0,0.0,0.0,0.0,0.0,0.0,0.0,0.0,0.0,0.0,0.0,0.0,-3.3881,-3.3339,0.0,0.0,0.0,0.0,0.0,0.0,0.0,0.0,0.0,0.0,0.0,0.0,0.0,0.0,0.0,0.0,0.0,0.0,0.0,0.0,0.0,0.0,0.0,0.0,0.0,0.0,0.0,0.0,0.0,0.0,0.0,0.0,0.0,0.0,0.0,0.0,0.0,0.0,0.0,0.0,-3.4782,-3.6665,-3.7984,-3.7984,-3.8119,-3.8186,-3.8186,-3.8559,-3.8529,-3.7857,-3.78,0.0,0.0,0.0,0.0,0.0,0.0,0.0,0.0,0.0,0.0,0.0,0.0,0.0,0.0,0.0,0.0,0.0,0.0,0.0,0.0,0.0,0.0,0.0,0.0,0.0,0.0,0.0,0.0,0.0,0.0,0.0,0.0,0.0,0.0,0.0,0.0,0.0,0.0,0.0,0.0,0.0,0.0,0.0,0.0,0.0,0.0,0.0,0.0,0.0,0.0,0.0,0.0,0.0,-3.4138,-3.4247,-3.4247,-3.4247,-3.4631,-3.5263,-3.4562,-3.4562,-3.4981,-3.355,0.0,0.0,0.0,0.0,0.0,0.0,0.0,0.0,0.0,0.0,0.0,0.0,0.0,0.0,0.0,0.0,0.0,0.0,0.0,0.0,0.0,0.0,-3.6474,-3.6474,-3.6821,-3.6929,-3.6194,0.0,0.0,0.0,0.0,0.0,0.0,0.0,0.0,0.0,0.0,0.0,-3.5224,-3.7094,-3.8382,-3.8382,-3.8446,-3.8446,-3.8446,-3.8713,-3.8833,-3.8833,-3.8331,-3.796,0.0,0.0,0.0,0.0,0.0,0.0,0.0,0.0,0.0,0.0,0.0,0.0,0.0,0.0,0.0,0.0,0.0,0.0,0.0,0.0,0.0,0.0,0.0,0.0,0.0,0.0,0.0,0.0,0.0,0.0,0.0,0.0,-3.3739,-3.3699,0.0,0.0,0.0,0.0,0.0,0.0,0.0,0.0,0.0,0.0,0.0,0.0,0.0,-3.3588,-3.3789,-3.4545,-3.4895,-3.4861,-3.5614,-3.5966,-3.5966,-3.5966,-3.6017,-3.6163,-3.6017,0.0,-3.5067,-3.4861,0.0,0.0,0.0,0.0,0.0,0.0,0.0,0.0,0.0,0.0,0.0,0.0,0.0,0.0,0.0,0.0,0.0,0.0,0.0,0.0,0.0,0.0,-3.8346,-3.8346,-3.8401,-3.8407,-3.8303,-3.6584,-3.497,-3.4773,-3.4829,-3.4584,0.0,0.0,0.0,0.0,0.0,0.0,-3.6501,-3.7653,-3.8382,-3.8382,-3.8621,-3.8762,-3.8762,-3.8931,-3.9073,-3.9073,-3.898,-3.8591,-3.7849,-3.7692,0.0,0.0,0.0,0.0,0.0,0.0,0.0,0.0,0.0,0.0,0.0,0.0,0.0,0.0,0.0,0.0,0.0,0.0,0.0,0.0,0.0,0.0,0.0,0.0,0.0,0.0,0.0,0.0,0.0,-3.2764,-3.2863,-3.2369,-3.2,-3.1421,0.0,0.0,0.0,0.0,0.0,0.0,0.0,0.0,0.0,-3.3484,-3.3694,-3.4261,-3.5211,-3.558,-3.5734,-3.5717,-3.6104,-3.6077,-3.568,-3.568,-3.5456,-3.5059,-3.5059,-3.4887,-3.4571,-3.5169,-3.4909,-3.4211,0.0,0.0,0.0,0.0,-3.4581,-3.5091,-3.6109,-3.6607,-3.6723,-3.6346,0.0,0.0,0.0,0.0,0.0,0.0,0.0,-3.6225,-3.7156,-3.7692,-3.8077,-3.8597,-3.8707,-3.8707,-3.8707,-3.7812,-3.6894,-3.644,-3.5942,-3.5322,-3.4438,-3.4623,0.0,0.0,0.0,-3.6581,-3.7007,-3.8102,-3.8796,-3.8796,-3.8902,-3.8979,-3.8979,-3.9045,-3.9101,-3.9101,-3.9101,-3.8989,-3.8775,-3.8301,-3.7935,0.0,0.0,0.0,0.0,0.0,0.0,0.0,0.0,0.0,0.0,0.0,0.0,0.0,0.0,0.0,0.0,0.0,0.0,0.0,0.0,0.0,0.0,0.0,0.0,0.0,0.0,0.0,0.0,-3.2652,-3.278,-3.172,-3.2017,-3.166,0.0,0.0,0.0,0.0,0.0,0.0,-3.1577,-3.1773,-3.2562,-3.4097,-3.4342,-3.5057,-3.6301,-3.6111,-3.6025,-3.6025,-3.5818,-3.5439,-3.4921,-3.4921,-3.4611,-3.4093,-3.4093,-3.4155,-3.4306,-3.506,-3.5224,-3.4979,-3.4712,-3.4498,-3.4338,-3.4654,-3.4963,-3.5371,-3.6576,-3.7166,-3.7436,-3.7406,-3.7229,-3.6943,-3.651,0.0,0.0,0.0,0.0,-3.6565,-3.7497,-3.7747,-3.7894,-3.853,-3.8707,-3.8707,-3.8707,-3.8511,-3.8267,-3.7893,-3.7287,-3.6531,-3.5656,-3.5992,0.0,-3.5296,-3.6449,-3.7489,-3.7672,-3.8524,-3.9101,-3.9101,-3.9101,-3.9101,-3.9101,-3.9101,-3.9129,-3.9192,-3.9192,-3.9305,-3.958,-3.8954,-3.8851,-3.9388,0.0,0.0,0.0,0.0,0.0,0.0,0.0,0.0,0.0,0.0,0.0,0.0,0.0,0.0,0.0,0.0,0.0,0.0,0.0,0.0,0.0,0.0,0.0,0.0,0.0,0.0,0.0,0.0,0.0,-3.3177,-3.3389,0.0,0.0,0.0,0.0,-3.1112,-3.1193,-3.1674,-3.2558,-3.3286,-3.4114,-3.5094,-3.5803,-3.6207,-3.6301,-3.5611,-3.5249,-3.5249,-3.4542,-3.418,-3.4145,-3.4145,-3.4128,-3.4093,-3.4093,-3.4293,-3.4579,-3.4614,-3.4176,-3.3439,-3.374,-3.3364,-3.2763,-3.3984,-3.4447,-3.4726,-3.676,-3.7477,-3.7477,-3.7436,-3.6796,-3.6225,-3.7083,-3.6723,0.0,0.0,-3.7332,-3.7534,-3.8401,-3.8634,-3.8652,-3.8689,-3.8707,-3.8707,-3.8707,-3.8041,-3.7711,-3.8559,-3.8759,-3.8493,-3.7614,0.0,-3.7599,-3.7562,-3.7618,-3.8007,-3.8878,-3.9064,-3.9101,-3.9101,-3.9101,-3.9101,-3.9101,-3.9101,-3.9192,-3.9458,-3.9477,-3.9561,-3.9775,-3.9738,-3.9359,-3.858,-3.8727,0.0,0.0,0.0,0.0,0.0,0.0,0.0,0.0,0.0,0.0,0.0,0.0,0.0,0.0,0.0,0.0,0.0,0.0,0.0,0.0,0.0,0.0,0.0,0.0,0.0,0.0,0.0,0.0,-3.2846,-3.3528,0.0,-3.1932,-3.2461,-3.2659,-3.2205,-3.2967,-3.3486,-3.3612,-3.4104,-3.4432,-3.4492,-3.4948,-3.5334,-3.5594,-3.5318,-3.5439,-3.5904,-3.5628,-3.5266,-3.48,-3.48,-3.4542,-3.4116,-3.437,-3.4541,-3.4637,-3.4581,-3.4676,-3.4873,-3.5263,-3.5224,-3.5006,-3.5465,-3.5604,-3.5725,-3.6476,-3.6725,-3.6798,-3.7283,-3.7583,-3.779,-3.8163,-3.8004,-3.779,-3.8163,-3.8255,-3.831,-3.8634,-3.8707,-3.8707,-3.8707,-3.8707,-3.8707,-3.8707,-3.8456,-3.8358,-3.8737,-3.8368,-3.7897,-3.7592,-3.8087,-3.8311,-3.7727,-3.8192,-3.8711,-3.9064,-3.9101,-3.9101,-3.9101,-3.9101,-3.9101,-3.9101,-3.9245,-3.9401,-3.9483,-3.9632,-3.9794,-4.0042,-4.0062,-3.9967,-3.979,-3.9879,-3.9459,0.0,0.0,0.0,0.0,0.0,0.0,0.0,0.0,0.0,0.0,0.0,0.0,0.0,0.0,0.0,0.0,0.0,0.0,0.0,0.0,0.0,0.0,0.0,0.0,0.0,-3.3938,-3.4415,-3.2846,-3.3923,-3.4197,-3.2618,-3.3581,-3.4074,-3.3567,-3.4363,-3.4771,-3.448,-3.4866,-3.4977,-3.4656,-3.5018,-3.5317,-3.5576,-3.5318,-3.5439,-3.5921,-3.568,-3.5301,-3.4818,-3.4818,-3.4622,-3.4293,-3.4579,-3.4817,-3.5029,-3.4939,-3.5284,-3.5879,-3.5575,-3.5624,-3.5862,-3.5862,-3.5862,-3.5862,-3.5862,-3.6046,-3.6376,-3.6909,-3.7643,-3.8315,-3.8387,-3.8619,-3.8851,-3.895,-3.8892,-3.8822,-3.8822,-3.878,-3.8707,-3.8707,-3.8707,-3.8707,-3.8707,-3.8738,-3.875,-3.8792,-3.832,-3.7941,-3.8,-3.8559,-3.8691,-3.7792,-3.847,-3.899,-3.8702,-3.8934,-3.911,-3.9219,-3.9219,-3.9253,-3.9338,-3.9171,-3.9255,-3.9724,-3.9507,-3.9638,-4.0267,-4.0018,-3.9936,-4.005,-4.0085,-3.98,-3.9161,0.0,0.0,0.0,0.0,0.0,0.0,0.0,0.0,0.0,0.0,0.0,0.0,0.0,0.0,0.0,0.0,0.0,0.0,0.0,0.0,0.0,0.0,0.0,-3.4031,-3.4597,-3.4643,-3.3338,-3.4752,-3.5301,-3.3977,-3.4697,-3.5224,-3.5224,-3.5224,-3.5224,-3.5224,-3.5588,-3.581,-3.5776,-3.6097,-3.6266,-3.6266,-3.5559,-3.5197,-3.5214,-3.449,-3.4162,-3.4162,-3.4185,-3.4401,-3.476,-3.4796,-3.517,-3.576,-3.5774,-3.6012,-3.6156,-3.4523,-3.4357,-3.5027,-3.5027,-3.5027,-3.5027,-3.5027,-3.5624,-3.6368,-3.6368,-3.6901,-3.7603,-3.7877,-3.8497,-3.9183,-3.9427,-3.9324,-3.9129,-3.9129,-3.8921,-3.8707,-3.8707,-3.8707,-3.8707,-3.8689,-3.8762,-3.8803,-3.8803,-3.8833,-3.8862,-3.8997,-3.8979,-3.8748,-3.7933,-3.8572,0.0,-3.7942,-3.8591,-3.9219,-3.9458,-3.9502,-3.9585,-3.9775,-3.8851,-3.8807,-4.012,-3.9182,-3.9147,-4.045,-3.9688,-3.925,-3.925,-3.93,-3.9335,-3.9296,0.0,0.0,0.0,0.0,0.0,0.0,0.0,0.0,0.0,0.0,0.0,0.0,0.0,0.0,0.0,0.0,0.0,0.0,0.0,0.0,0.0,-3.5474,-3.5746,-3.4857,-3.5459,-3.5838,-3.5471,-3.5874,-3.5916,-3.5301,-3.5691,-3.5766,-3.5224,-3.5453,-3.5498,-3.5224,-3.5588,-3.5511,-3.495,-3.5307,-3.549,-3.549,-3.5301,-3.5473,-3.599,-3.5783,-3.5697,-3.5697,-3.5988,-3.6169,-3.6324,-3.6899,-3.7264,-3.7428,-3.7119,-3.7069,-3.7055,-3.6009,-3.5752,-3.5936,-3.5936,-3.5936,-3.5936,-3.5936,-3.6611,-3.747,-3.747,-3.8125,-3.8962,-3.9039,-3.9214,-3.9401,-3.9477,-3.9452,-3.9401,-3.9401,-3.9192,-3.9007,-3.9007,-3.8851,-3.8762,-3.8961,-3.8999,-3.909,-3.9327,-3.9377,-3.9294,-3.896,-3.8968,-3.8905,-3.8711,-3.8915,-3.909,-3.9032,-3.9226,-3.9427,-3.9483,-3.9502,-3.9508,-3.9561,-3.9452,-3.9591,-4.0177,-4.0038,-4.0123,-4.0469,-4.0277,-4.0127,-4.0127,-4.0169,-3.988,0.0,0.0,0.0,0.0,0.0,0.0,0.0,0.0,0.0,0.0,0.0,0.0,0.0,0.0,0.0,0.0,0.0,0.0,0.0,0.0,0.0,0.0,-3.6552,-3.6791,-3.619,-3.6377,-3.6492,-3.6343,-3.6301,-3.6216,-3.6045,-3.6174,-3.6114,-3.5677,-3.5898,-3.5898,-3.5661,-3.5898,-3.5797,-3.5335,-3.5562,-3.5663,-3.5663,-3.5663,-3.587,-3.6301,-3.6301,-3.6367,-3.6557,-3.6781,-3.7094,-3.7432,-3.7913,-3.8219,-3.8332,-3.8114,-3.7991,-3.7881,0.0,0.0,0.0,0.0,-3.7045,-3.7079,-3.6708,-3.698,-3.7524,-3.7524,-3.8203,-3.9019,-3.9138,-3.9387,-3.9693,-3.9804,-3.9739,-3.967,-3.9656,-3.9464,-3.9261,-3.9313,-3.9181,-3.9127,-3.9282,-3.9314,-3.9408,-3.9599,-3.9668,0.0,-3.932,-3.9287,-3.9175,-3.882,-3.9139,-3.9333,-3.9114,-3.9383,-3.9679,-3.9769,-3.9791,-3.9835,-3.9901,-3.9599,0.0,0.0,0.0,-3.9871,-3.9954,-3.9954,0.0,0.0,0.0,-3.9946,-3.9837,-3.9807,0.0,0.0,-3.877,-3.8581,0.0,0.0,0.0,0.0,0.0,0.0,0.0,0.0,0.0,0.0,0.0,0.0,0.0,0.0,0.0,0.0,-3.7594,-3.8034,-3.7614,-3.7283,-3.686,-3.6409,-3.6385,-3.6343,-3.6301,-3.6301,-3.6301,-3.6301,-3.6301,-3.6301,-3.6301,-3.6301,0.0,0.0,0.0,-3.6301,-3.6301,-3.6301,-3.6343,-3.6385,-3.6385,-3.6557,-3.6978,-3.7017,-3.7414,-3.8101,-3.8153,-3.8368,-3.8707,-3.8707,-3.8738,-3.8603,-3.7169,-3.7069,-3.7735,-3.7997,-3.8215,-3.8324,-3.7558,0.0,0.0,-3.7322,-3.7868,-3.8573,-3.8812,-3.9387,-3.9996,-4.0234,-4.0118,-3.9956,-3.996,-3.975,-3.9571,-3.9622,-3.9599,-3.9599,-3.9645,-3.9709,-3.9754,-3.9775,-3.984,-3.9882,-3.9882,-3.9797,-3.9485,-3.875,-3.9302,-3.9532,-3.8793,-3.9364,-3.9943,-4.0158,-4.0196,0.0,-4.0457,-3.9597,-3.9465,-4.045,-3.9612,-3.9159,-3.9346,-3.9346,-3.9396,-3.9446,-3.9451,-3.9827,-4.0621,-4.0621,-4.0626,-4.0583,-3.8969,-3.865,0.0,0.0,0.0,0.0,0.0,0.0,0.0,0.0,0.0,0.0,0.0,0.0,0.0,0.0,0.0,-3.7272,-3.8034,-3.8433,-3.8034,-3.7913,-3.7614,-3.686,-3.6781,-3.6638,-3.6343,-3.6301,-3.6301,-3.6301,-3.6301,-3.6301,-3.6301,-3.6301,-3.6301,-3.6301,-3.6301,-3.6301,-3.6301,-3.6301,-3.6451,-3.6781,-3.6781,0.0,-3.7377,-3.7721,-3.7948,-3.8101,-3.8433,-3.8627,-3.8707,-3.8707,-3.8822,-3.8998,-3.8683,-3.8811,-3.9133,-3.9158,-3.9233,-3.922,-3.9076,-3.918,-3.9337,-3.9337,-3.9596,-3.9909,-3.9967,-4.0101,0.0,-4.0291,-4.0253,-4.0215,-4.0215,-4.0019,-3.9832,-3.9838,-3.9687,-3.9618,-3.9922,-4.0002,-4.0081,-4.0302,-4.0353,-4.0353,-4.0353,-4.0043,-3.9719,-3.957,-3.9683,-3.9804,-3.9872,-4.0024,-4.0139,-4.0177,-4.0196,-4.0214,-4.0251,-4.0061,-4.0114,-4.0489,-4.0303,-4.0207,-4.0258,-4.0308,-4.0342,-4.0342,-4.0347,-4.0467,-4.0687,-4.0687,-4.07,-4.0746,-4.0289,-4.0188,0.0,0.0,0.0,0.0,0.0,0.0,0.0,0.0,0.0,0.0,0.0,-3.6876,0.0,0.0,-3.7822,-3.818,-3.8504,-3.8627,-3.8433,-3.8401,-3.8101,-3.7321,-3.7017,-3.6821,-3.6597,-3.6409,-3.6301,-3.6301,-3.6301,-3.6301,-3.6301,-3.6301,-3.6367,-3.6597,-3.6597,-3.6719,-3.69,-3.69,-3.7017,-3.7208,-3.7208,-3.7432,-3.7809,-3.8,-3.8219,-3.8401,-3.8627,-3.878,-3.8892,-3.9045,-3.9245,-3.9502,-3.9502,-3.958,-3.9693,-3.9693,-3.9804,-3.9892,-3.9916,-4.0,-4.0099,-4.0139,-4.0234,-4.0364,-4.0364,-4.0364,-4.0364,-4.0364,-4.0327,-4.0309,-4.0327,-4.0253,-4.0158,-4.0177,-4.0101,-4.0062,-4.025,-4.0304,-4.0339,-4.0473,-4.0489,-4.0489,-4.0489,-4.0319,-4.0138,-4.0138,-4.0138,-4.0194,-4.0339,-4.0339,-4.0339,-4.0339,-4.0339,-4.0339,-4.0339,-4.0339,-4.0389,-4.0489,-4.0489,-4.0489,-4.0489,-4.0539,-4.0573,-4.0607,-4.0593,-4.0621,-4.07,-4.07,-4.0733,-4.0746,-4.0673,-4.0646,0.0,0.0,0.0,0.0,0.0,0.0,0.0,0.0,-3.6862,-3.7678,-3.7664,-3.7721,-3.8324,-3.8265,-3.8353,-3.9053,-3.895,-3.878,-3.878,-3.8719,-3.8451,-3.7809,-3.7395,-3.7094,-3.7017,-3.6701,-3.6516,-3.6516,-3.6516,-3.6516,-3.6516,-3.6516,-3.6678,-3.7017,-3.7017,-3.717,-3.7505,-3.7505,-3.7542,-3.7614,-3.7614,-3.7844,-3.8219,-3.8219,-3.8401,-3.8707,-3.875,-3.891,-3.911,-3.9452,-3.9717,-3.9914,-3.9956,-3.9977,-3.9977,-3.9977,-4.0118,-4.031,-4.0326,-4.0325,-4.0325,-4.0379,-4.0398,-4.0398,-4.0398,-4.0398,-4.0398,-4.0398,-4.0362,-4.0325,-4.0398,-4.0398,-4.0415,-4.0466,-4.0495,-4.0508,-4.0489,-4.0489,-4.0489,-4.0489,-4.0489,-4.0489,-4.0489,-4.0489,-4.0489,-4.0489,-4.0489,-4.0489,-4.0489,-4.0489,-4.0489,-4.0489,-4.0489,-4.0489,-4.0489,-4.0489,-4.0489,-4.0489,-4.0489,-4.0489,-4.0489,-4.0504,-4.0539,-4.0607,-4.064,-4.0668,-4.072,-4.0726,-4.0739,-4.0752,-4.0733,-4.07,-3.6281,-3.6484,-3.7377,-3.809,-3.8136,-3.8431,0.0,0.0,-3.9152,-3.9957,-4.0117,-4.0018,-3.9745,-3.9656,-3.9626,-3.9483,-3.9219,-3.9045,-3.9045,-3.8851,-3.8676,-3.8596,-3.8219,-3.7844,-3.7469,-3.7377,-3.7358,-3.7358,-3.7358,-3.7358,-3.7358,-3.7358,-3.7395,-3.7432,-3.7432,-3.7469,-3.7505,-3.7505,-3.7685,-3.8034,-3.8034,-3.8252,-3.8627,-3.8627,-3.8676,-3.8689,-3.895,-3.9073,-3.9156,-3.9647,-3.987,-3.9935,-4.0158,-4.0271,-4.0271,-4.0271,-4.0307,-4.0398,-4.0398,-4.0379,-4.0379,-4.0398,-4.0398,-4.0398,-4.0398,-4.0398,-4.0398,-4.0398,-4.0379,-4.0379,-4.0398,-4.0398,-4.0415,-4.0466,-4.0502,-4.0499,-4.0508,-4.0489,-4.0489,-4.0489,-4.0489,-4.0489,-4.0489,-4.0489,-4.0489,-4.0489,-4.0489,-4.0489,-4.0489,-4.0489,-4.0489,-4.0489,-4.0489,-4.0489,-4.0489,-4.0489,-4.0489,-4.0489,-4.0489,-4.0489,-4.0489,-4.0558,-4.0588,-4.0607,-4.0713,-4.0788,-4.0783,-4.0846,-4.0876,-4.0887,-4.0829,-4.0746,-3.8183,-3.801,0.0,0.0,-3.9193,-3.9291,-3.9936,-3.9742,-3.9627,-4.0455,-4.0545,-4.0457,-4.0286,-4.006,-3.9851,0.0,-3.9526,-3.9272,-3.9129,-3.8989,-3.8881,-3.8738,-3.8546,-3.8285,-3.7879,-3.765,-3.7505,-3.7505,-3.7505,-3.7505,-3.7505,-3.7505,-3.7614,-3.7844,-3.7844,-3.7948,-3.8219,-3.8219,-3.8285,-3.8451,-3.8451,-3.8546,-3.8707,-3.8707,-3.878,-3.895,-3.9376,-3.9575,-3.9599,-3.9975,-4.0118,-4.0139,-4.0271,-4.0342,-4.0396,-4.0379,-4.0379,-4.0415,-4.0449,-4.0449,-4.0449,-4.0463,-4.046,-4.046,-4.046,-4.046,-4.046,-4.046,-4.0447,-4.0449,-4.0449,-4.0449,-4.0468,-4.0502,-4.0499,-4.0492,-4.0489,-4.0489,-4.0489,-4.0489,-4.0489,-4.0489,-4.0489,-4.0489,-4.0489,-4.0489,-4.0489,-4.0489,-4.0489,-4.0489,-4.0489,-4.0489,-4.0579,-4.0615,-4.0615,-4.0642,-4.0672,-4.0672,-4.0672,-4.0672,-4.0672,-4.0703,-4.0734,-4.0776,-4.0829,-4.0859,-4.0854,-4.0888,-4.0924,-4.0965,-4.0888,-4.0862,-3.8832,0.0,0.0,-3.9571,-3.9972,-4.0125,-3.9972,-3.9941,-4.011,-4.0641,-4.0668,-4.0593,-4.0519,-4.0269,-4.004,-4.0017,-3.9804,-3.9526,-3.9245,-3.9156,-3.9007,-3.8719,-3.8707,-3.8596,-3.8285,-3.7982,-3.7844,-3.7844,-3.7844,-3.7844,-3.7844,-3.7844,-3.7948,-3.8252,-3.8252,-3.8401,-3.8707,-3.8707,-3.8707,-3.8707,-3.8707,-3.8719,-3.8792,-3.8881,-3.9036,-3.9245,-3.9693,-3.9914,-3.9914,-4.0177,-4.029,-4.0307,-4.0342,-4.0413,-4.0482,-4.0449,-4.043,-4.043,-4.0463,-4.0499,-4.0515,-4.0508,-4.0489,-4.0489,-4.0489,-4.0489,-4.0489,-4.0489,-4.0492,-4.0515,-4.0543,-4.0558,-4.0558,-4.0558,-4.0564,-4.0568,-4.0545,-4.0574,-4.0582,-4.0582,-4.0582,-4.0582,-4.0582,-4.0582,-4.0582,-4.0582,-4.0582,-4.0588,-4.0564,-4.0574,-4.0582,-4.0582,-4.0674,-4.0734,-4.0734,-4.0761,-4.081,-4.081,-4.081,-4.081,-4.081,-4.081,-4.082,-4.0876,-4.0913,-4.0924,-4.0927,-4.0953,-4.098,-4.1037,-4.098,-4.0966,-3.7016,0.0,-3.8717,-3.9588,-4.0448,-4.1064,-4.1058,-4.1051,-4.1028,-4.0915,-4.0878,-4.0818,-4.0549,-4.0489,-4.0444,-4.031,-4.0058,-3.9785,-3.9526,-3.9272,-3.9007,-3.8719,-3.8707,-3.8707,-3.8676,-3.8658,-3.8658,-3.8658,-3.8658,-3.8658,-3.8658,-3.8658,-3.8676,-3.8676,-3.8676,-3.8676,-3.8707,-3.8707,-3.8707,-3.8707,-3.8707,-3.8822,-3.9101,-3.935,-3.9477,-3.9483,-3.9785,-3.9914,-3.9935,-4.0196,-4.0307,-4.0325,-4.0449,-4.0502,-4.0502,-4.0492,-4.0489,-4.0489,-4.0489,-4.0489,-4.0489,-4.0489,-4.0489,-4.0489,-4.0489,-4.0489,-4.0489,-4.0489,-4.0489,-4.0534,-4.0655,-4.0694,-4.0694,-4.0694,-4.0738,-4.0771,-4.0718,-4.0749,-4.0781,-4.0781,-4.0781,-4.0781,-4.0781,-4.0781,-4.0781,-4.0781,-4.0781,-4.0761,-4.0706,-4.0759,-4.0781,-4.0781,-4.0781,-4.0801,-4.0801,-4.081,-4.081,-4.081,-4.081,-4.081,-4.081,-4.081,-4.081,-4.0791,-4.0929,-4.0988,-4.1005,-4.1061,-4.1088,-4.1104,-4.1089,-4.1049,-3.7666,0.0,-3.9384,-4.0359,-4.0823,-4.105,-4.1087,-4.1108,-4.1085,-4.1037,-4.0462,-3.9926,-3.9741,-3.9634,-3.9531,-3.9394,-3.9814,-4.0077,-3.9785,-3.9532,-3.9272,-3.9007,-3.881,-3.8707,-3.8707,-3.8707,-3.8707,-3.8707,-3.8707,-3.8707,-3.8707,-3.8707,-3.8707,-3.8707,-3.8707,-3.8707,-3.8707,-3.8707,-3.878,-3.8979,-3.9156,-3.9272,-3.9357,-3.9647,-3.9762,-3.9785,-4.0057,-4.0176,-4.0176,-4.0253,-4.0327,-4.0362,-4.0415,-4.0447,-4.0492,-4.0508,-4.0564,-4.0615,-4.0534,-4.0489,-4.0489,-4.0489,-4.0564,-4.0629,-4.0629,-4.0655,-4.0696,-4.0696,-4.0696,-4.0707,-4.0751,-4.078,-4.078,-4.078,-4.0781,-4.0781,-4.0761,-4.0781,-4.081,-4.081,-4.081,-4.081,-4.081,-4.081,-4.081,-4.081,-4.081,-4.0801,-4.0761,-4.0791,-4.081,-4.081,-4.0882,-4.0933,-4.0933,-4.0961,-4.1003,-4.1003,-4.1003,-4.1003,-4.1003,-4.1003,-4.1003,-4.1003,-4.1037,-4.1076,-4.1067,-4.1088,-4.1125,-4.1168,-4.1113,-4.1109,-3.8263,-3.9034,-3.9733,-4.0688,-4.0964,-4.1012,-4.1051,-4.1072,-4.1097,-4.1097,-4.0298,-3.9565,-3.9398,-3.927,-3.9039,-3.8588,-3.9222,-3.9719,-3.9437,-3.9263,-3.9169,-3.9234,-3.9007,-3.8851,-3.8851,-3.875,-3.8707,-3.8707,-3.8707,-3.8707,-3.8707,-3.8707,-3.8707,-3.8707,-3.8707,-3.8707,-3.8707,-3.881,-3.8979,-3.9245,-3.9508,-3.9647,-3.9647,-3.9914,-4.0038,-4.0038,-4.0234,-4.031,-4.031,-4.031,-4.0327,-4.0362,-4.0379,-4.043,-4.0476,-4.0519,-4.0588,-4.0668,-4.0588,-4.0602,-4.0623,-4.0623,-4.0674,-4.0746,-4.0746,-4.078,-4.081,-4.081,-4.081,-4.082,-4.0855,-4.0882,-4.0882,-4.0882,-4.0887,-4.0894,-4.0882,-4.0887,-4.0909,-4.0909,-4.0909,-4.0909,-4.0909,-4.0909,-4.0909,-4.0909,-4.0909,-4.0894,-4.0863,-4.0887,-4.0909,-4.0909,-4.0986,-4.1047,-4.1047,-4.1074,-4.1108,-4.1108,-4.1108,-4.1108,-4.1108,-4.1108,-4.1108,-4.1108,-4.1108,-4.1108,-4.1108,-4.1126,-4.1151,-4.1191,-4.1167,-4.1153,-3.8642,-3.9303,-3.9735,-4.0558,-4.0882,-4.0994,-4.0983,-4.1038,-4.1074,-4.1033,-4.0348,-3.9666,0.0,0.0,-3.8929,-3.7955,-3.8473,-3.888,-3.8618,-3.8575,-3.881,0.0,0.0,0.0,0.0,0.0,-3.8719,-3.8719,-3.8738,-3.8738,-3.8738,-3.8738,-3.8738,-3.8738,-3.8738,-3.8738,-3.8719,-3.9007,-3.9272,-3.9508,-3.9785,-3.9914,-3.9935,-4.0176,-4.031,-4.031,-4.031,-4.031,-4.031,-4.0308,-4.0307,-4.0307,-4.0362,-4.0396,-4.043,-4.0564,-4.061,-4.063,-4.0687,-4.0749,-4.081,-4.081,-4.0791,-4.082,-4.082,-4.08,-4.0829,-4.0829,-4.0829,-4.0846,-4.0961,-4.1013,-4.1013,-4.1013,-4.1042,-4.1078,-4.1011,-4.1061,-4.1108,-4.1108,-4.1108,-4.1108,-4.1108,-4.1108,-4.1108,-4.1108,-4.1108,-4.1078,-4.1006,-4.1066,-4.1108,-4.1108,-4.1108,-4.1108,-4.1108,-4.1108,-4.1108,-4.1108,-4.1108,-4.1108,-4.1108,-4.1108,-4.1108,-4.1108,-4.1108,-4.1091,-4.1111,-4.1169,-4.1191,-4.1191,-4.1191,-4.1191,-3.8613,-3.9373,-4.0098,-4.0367,-4.0597,-4.08,-4.0835,-4.0939,-4.0837,-4.0186,-3.9406,-3.8594,0.0,0.0,0.0,-3.7874,-3.9087,0.0,-3.9853,-3.9673,0.0,-3.9788,0.0,-3.9401,-3.9401,-3.935,-3.9298,-3.9298,-3.9129,-3.9007,-3.9007,-3.9007,-3.9007,-3.9007,-3.9007,-3.9101,-3.9298,-3.9556,-3.9739,-3.9785,-4.0077,-4.0196,-4.0196,-4.0253,-4.031,-4.031,-4.031,-4.031,-4.031,-4.0291,-4.029,-4.0307,-4.0325,-4.0425,-4.0554,-4.0596,-4.0738,-4.091,-4.091,-4.0866,-4.081,-4.081,-4.0874,-4.0948,-4.0948,-4.098,-4.1018,-4.1018,-4.1018,-4.1022,-4.107,-4.1074,-4.1074,-4.1074,-4.1081,-4.1108,-4.1078,-4.1081,-4.1108,-4.1108,-4.1108,-4.1108,-4.1108,-4.1108,-4.1108,-4.1108,-4.1108,-4.1085,-4.1074,-4.1085,-4.1108,-4.1108,-4.1108,-4.1108,-4.1108,-4.1108,-4.1108,-4.1108,-4.1108,-4.1108,-4.1108,-4.1108,-4.1108,-4.1108,-4.1108,-4.1119,-4.117,-4.1191,-4.1191,-4.1191,-4.1191,-4.1191,-3.9202,-3.9814,-4.0336,-4.0377,-4.0549,-4.0622,-4.0264,-4.0315,-4.0179,-3.9318,-3.8496,0.0,-3.7196,-3.7711,-3.8009,0.0,0.0,0.0,-3.9699,-3.9546,-3.9619,0.0,-3.9848,0.0,-3.9508,-3.9502,-3.9502,-3.9502,-3.9376,-3.9272,-3.9272,-3.9272,-3.9272,-3.9272,-3.9272,-3.9383,-3.967,-3.9807,-3.9956,-4.0077,-4.0234,-4.031,-4.031,-4.031,-4.031,-4.031,-4.031,-4.031,-4.0291,-4.0363,-4.0396,-4.0392,-4.0454,-4.054,-4.0649,-4.0703,-4.083,-4.0954,-4.1011,-4.0986,-4.0922,-4.0922,-4.0986,-4.1033,-4.1033,-4.107,-4.1108,-4.1108,-4.1108,-4.1108,-4.1108,-4.1108,-4.1108,-4.1108,-4.1108,-4.1108,-4.1108,-4.1108,-4.1108,-4.1108,-4.1108,-4.1108,-4.1108,-4.1108,-4.1108,-4.1108,-4.1108,-4.1108,-4.1108,-4.1108,-4.1108,-4.1108,-4.1108,-4.1108,-4.1108,-4.1108,-4.1108,-4.1108,-4.1108,-4.1108,-4.1108,-4.1108,-4.1108,-4.1108,-4.1121,-4.1168,-4.1191,-4.1191,-4.1191,-4.1191,-4.1191,-4.1191,-3.9967,-4.0304,-4.0457,-4.0457,-4.0559,-4.0488,-3.9746,-3.9723,-3.9571,-3.8608,0.0,-3.7298,-3.7074,-3.7595,-3.779,-3.6993,0.0,-3.9106,-3.9089,-3.909,-3.9376,-4.0196,-4.0098,-3.987,-3.9623,-3.9599,-3.9599,-3.9599,-3.9599,-3.9599,-3.9532,-3.9532,-3.9532,-3.9532,-3.9599,-3.9717,-3.9935,-3.9956,-4.0077,-4.031,-4.031,-4.031,-4.031,-4.031,-4.031,-4.0328,-4.0328,-4.0346,-4.0363,-4.0492,-4.0534,-4.0534,-4.0655,-4.0706,-4.0734,-4.0858,-4.091,-4.0935,-4.1057,-4.1101,-4.1108,-4.1108,-4.1108,-4.1108,-4.1108,-4.1108,-4.1108,-4.1108,-4.1108,-4.1108,-4.1108,-4.1108,-4.1108,-4.1108,-4.1108,-4.1108,-4.1108,-4.1108,-4.1108,-4.1108,-4.1108,-4.1108,-4.1108,-4.1108,-4.1108,-4.1108,-4.1108,-4.1108,-4.1108,-4.1108,-4.1108,-4.1108,-4.1108,-4.1108,-4.1108,-4.1108,-4.1108,-4.1108,-4.1108,-4.1108,-4.1108,-4.1108,-4.1091,-4.1114,-4.1169,-4.1191,-4.1191,-4.1191,-4.1191,-4.1191,-4.1191,-4.1191,-3.9823,-4.0062,-4.0251,-4.0251,-4.0389,-4.0506,-4.0475,-4.0537,0.0,0.0,-3.8335,-3.7831,-3.6398,-3.6754,-3.7395,-3.7726,-3.862,-3.9456,-3.9966,-4.0062,-4.012,0.0,-4.0253,-4.0196,-4.0157,-4.0157,-4.0157,-4.0157,-4.0157,-4.0077,-3.9829,-3.9829,-3.9829,-3.9829,-4.0057,-4.0176,-4.0234,-4.0234,-4.0253,-4.031,-4.031,-4.031,-4.031,-4.031,-4.0363,-4.0476,-4.0476,-4.0519,-4.0629,-4.0655,-4.0655,-4.0668,-4.0681,-4.0768,-4.0866,-4.0882,-4.0974,-4.1074,-4.1085,-4.1108,-4.1108,-4.1108,-4.1108,-4.1108,-4.1108,-4.1108,-4.1108,-4.1108,-4.1108,-4.1108,-4.1108,-4.1108,-4.1108,-4.1108,-4.1108,-4.1108,-4.1108,-4.1108,-4.1108,-4.1108,-4.1108,-4.1108,-4.1108,-4.1108,-4.1108,-4.1108,-4.1108,-4.1108,-4.1108,-4.1108,-4.1108,-4.1108,-4.1108,-4.1108,-4.1108,-4.1108,-4.1108,-4.1108,-4.1108,-4.1108,-4.1108,-4.1108,-4.1138,-4.1171,-4.1191,-4.1191,-4.1191,-4.1191,-4.1191,-4.1191,-4.1191,-4.1191,-4.0157,-4.0267,-4.0356,-4.0356,-4.0441,-4.0303,-3.9515,0.0,0.0,0.0,-3.814,-3.8104,-3.6813,-3.7609,0.0,-3.8129,-3.9155,-4.0072,-4.0319,-4.0309,0.0,-4.031,-4.031,-4.0253,-4.0098,-4.0234,-4.0234,-4.0098,-4.0234,-4.0253,-4.0118,-4.0098,-4.0098,-4.0098,-4.0234,-4.031,-4.031,-4.031,-4.031,-4.031,-4.031,-4.031,-4.031,-4.031,-4.0381,-4.0489,-4.0489,-4.0579,-4.0706,-4.0784,-4.0787,-4.0818,-4.0869,-4.0941,-4.1,-4.0994,-4.1047,-4.1101,-4.1108,-4.1108,-4.1108,-4.1108,-4.1108,-4.1108,-4.1108,-4.1108,-4.1108,-4.1108,-4.1108,-4.1108,-4.1108,-4.1108,-4.1108,-4.1108,-4.1108,-4.1108,-4.1108,-4.1108,-4.1108,-4.1108,-4.1108,-4.1108,-4.1108,-4.1108,-4.1108,-4.1108,-4.1108,-4.1108,-4.1108,-4.1108,-4.1108,-4.1108,-4.1108,-4.1108,-4.1108,-4.1108,-4.1108,-4.1108,-4.1097,-4.1097,-4.1111,-4.1123,-4.1169,-4.1191,-4.1191,-4.1191,-4.1191,-4.1191,-4.1191,-4.1191,-4.1191,-4.1191,-4.045,-4.0489,-4.0489,-4.0489,-4.0489,-4.013,-3.8709,-3.8975,0.0,-3.7467,-3.7713,-3.8007,-3.7324,0.0,-3.8975,0.0,-3.9483,-4.0309,-4.0353,-4.0308,-4.0253,0.0,-4.0196,0.0,-3.9914,-4.0098,-4.0157,-3.9996,-4.0176,-4.031,-4.031,-4.0119,-4.0024,-4.0024,-3.9852,-3.9833,-4.0024,-4.0024,-4.0138,-4.0327,-4.0327,-4.0345,-4.0398,-4.0398,-4.046,-4.0593,-4.0593,-4.0655,-4.0787,-4.0907,-4.0935,-4.0943,-4.1064,-4.1103,-4.11,-4.1091,-4.1105,-4.1097,-4.1108,-4.1108,-4.1108,-4.1108,-4.1108,-4.1108,-4.1108,-4.1108,-4.1108,-4.1108,-4.1108,-4.1108,-4.1108,-4.1108,-4.1108,-4.1108,-4.1108,-4.1108,-4.1108,-4.1108,-4.1108,-4.1108,-4.1108,-4.1108,-4.1108,-4.1108,-4.1108,-4.1108,-4.1108,-4.1108,-4.1108,-4.1108,-4.1108,-4.1108,-4.1108,-4.1108,-4.1108,-4.1091,-4.1094,-4.1108,-4.1099,-4.1103,-4.1119,-4.117,-4.1191,-4.1191,-4.1191,-4.1191,-4.1191,-4.1191,-4.1191,-4.1191,-4.1183,-4.1172,-4.0296,-4.0489,-4.0489,-4.0489,-4.0489,-4.0294,-3.9538,0.0,-3.9085,-3.7593,-3.7305,-3.7304,-3.7201,-3.728,-3.7725,-3.8929,0.0,-3.955,-4.0138,-4.0215,-4.0138,-3.9956,0.0,0.0,-3.9914,-3.9914,-4.0017,-4.0253,-4.0291,-4.031,-4.031,-3.9546,-3.9126,-3.9126,-3.8343,-3.8323,-3.9107,-3.9126,-3.9578,-4.0473,-4.0473,-4.0549,-4.0655,-4.0655,-4.073,-4.0859,-4.0859,-4.0935,-4.1052,-4.1078,-4.1078,-4.1078,-4.1104,-4.1109,-4.1091,-4.1091,-4.1109,-4.1108,-4.1108,-4.1108,-4.1108,-4.1108,-4.1108,-4.1108,-4.1108,-4.1108,-4.1108,-4.1108,-4.1108,-4.1108,-4.1108,-4.1108,-4.1108,-4.1108,-4.1108,-4.1108,-4.1108,-4.1108,-4.1108,-4.1108,-4.1108,-4.1108,-4.1108,-4.1108,-4.1108,-4.1108,-4.1108,-4.1108,-4.1108,-4.1108,-4.1108,-4.1108,-4.1108,-4.1108,-4.1108,-4.1101,-4.1101,-4.1091,-4.1091,-4.1121,-4.1191,-4.1191,-4.1191,-4.1191,-4.1191,-4.1191,-4.1191,-4.1191,-4.1191,-4.1191,-4.1132,-4.1106,-4.041,-4.0615,-4.0615,-4.0615,-4.0235,-3.9663,-3.8991,0.0,-3.8533,-3.747,-3.7634,-3.7806,-3.7234,-3.7872,-3.8504,-3.8537,0.0,0.0,-4.0233,-4.0234,-4.0118,-3.987,-3.987,-3.9914,-3.9914,-3.9914,-4.0017,-4.0291,-3.9814,-3.9527,-3.9527,-3.9202,-3.8763,-3.8228,-3.7884,-3.7865,-3.8209,-3.881,-3.933,-3.9719,-4.0323,-4.0642,-4.0694,-4.0694,-4.0765,-4.0907,-4.0907,-4.098,-4.111,-4.111,-4.1097,-4.1103,-4.1103,-4.1106,-4.1105,-4.1105,-4.1097,-4.1108,-4.1108,-4.1108,-4.1108,-4.1108,-4.1108,-4.1108,-4.1108,-4.1108,-4.1108,-4.1108,-4.1108,-4.1108,-4.1108,-4.1108,-4.1108,-4.1108,-4.1108,-4.1108,-4.1108,-4.1108,-4.1108,-4.1108,-4.1108,-4.1108,-4.1108,-4.1108,-4.1108,-4.1108,-4.1108,-4.1108,-4.1108,-4.1108,-4.1108,-4.1108,-4.1108,-4.1108,-4.1108,-4.1101,-4.1128,-4.1168,-4.1119,-4.1113,-4.1135,-4.1147,-4.113,-4.1074,-4.1078,-4.1078,-4.1078,-4.1078,-4.1078,-4.1074,-4.1057,-4.1053,-4.0137,-4.0541,-4.0734,-4.0734,-4.0064,-3.9247,0.0,0.0,-3.7784,-3.6973,-3.7309,-3.7589,-3.7124,-3.7919,-3.86,-3.8375,0.0,-3.9965,-4.0196,-4.0118,-3.9975,-3.9693,0.0,-3.9429,-3.9743,-3.9914,-4.0098,-4.0291,-3.9489,-3.8897,-3.8629,-3.84,-3.798,-3.7368,-3.7101,-3.7082,-3.7349,-3.8086,-3.8614,-3.8888,-3.9901,-4.0397,-4.043,-4.0701,-4.0869,-4.0971,-4.0971,-4.1003,-4.111,-4.1097,-4.1103,-4.1095,-4.11,-4.1096,-4.1094,-4.1094,-4.1101,-4.1108,-4.1108,-4.1108,-4.1108,-4.1108,-4.1108,-4.1108,-4.1108,-4.1108,-4.1108,-4.1108,-4.1108,-4.1108,-4.1108,-4.1108,-4.1108,-4.1108,-4.1108,-4.1108,-4.1108,-4.1108,-4.1108,-4.1108,-4.1108,-4.1108,-4.1108,-4.1108,-4.1108,-4.1108,-4.1097,-4.1082,-4.1064,-4.1069,-4.1052,-4.1032,-4.1032,-4.1051,-4.1073,-4.1089,-4.1119,-4.1142,-4.1093,-4.1072,-4.1071,-4.1071,-4.1059,-4.0999,-4.0999,-4.0999,-4.0999,-4.0999,-4.0999,-4.0999,-4.098,-4.0956,-3.9286,-4.0141,-4.081,-4.081,-4.0141,-3.9318,0.0,0.0,-3.6882,-3.6083,-3.5923,-3.6125,-3.6787,-3.693,-3.7372,-3.868,-3.8895,0.0,-3.9884,-3.9848,-3.9623,0.0,-3.8529,-3.8342,-3.9383,-3.9975,-4.031,-4.031,-3.9489,-3.8629,-3.775,-3.6967,-3.6528,-3.6528,-3.5687,-3.5649,-3.6491,-3.665,-3.7192,-3.811,-3.9121,-3.9688,-3.9838,-4.0695,-4.1104,-4.111,-4.111,-4.111,-4.1091,-4.1109,-4.1095,-4.1095,-4.1111,-4.11,-4.1094,-4.1094,-4.1101,-4.1108,-4.1108,-4.1108,-4.1108,-4.1108,-4.1108,-4.1108,-4.1108,-4.1108,-4.1108,-4.1108,-4.1108,-4.1108,-4.1108,-4.1108,-4.1108,-4.1108,-4.1108,-4.1108,-4.1108,-4.1108,-4.1108,-4.1108,-4.1108,-4.1108,-4.1108,-4.1108,-4.1108,-4.1108,-4.1108,-4.1074,-4.1014,-4.0999,-4.098,-4.0912,-4.0896,-4.0929,-4.1003,-4.1072,-4.1061,-4.1007,-4.0994,-4.0994,-4.1007,-4.1004,-4.0996,-4.0996,-4.0996,-4.0996,-4.0996,-4.0996,-4.0996,-4.0996,-4.0938,-4.088,-3.8532,-3.8951,-3.9165,-3.9165,-3.8467,-3.7756,-3.7617,0.0,-3.6204,-3.5947,-3.5794,-3.5931,-3.6696,-3.6685,-3.7064,-3.8629,-3.8823,0.0,0.0,0.0,0.0,-3.9647,-3.9402,-3.941,-3.9743,-4.0098,-4.0062,-3.947,-3.861,-3.775,-3.6929,-3.6163,-3.5744,-3.5744,-3.5475,-3.5512,-3.5881,-3.6566,-3.7046,-3.7356,-3.8373,-3.8864,-3.8928,-3.9201,-3.9318,-3.9318,-3.9318,-3.9655,-4.0212,-4.0218,-4.056,-4.1105,-4.1105,-4.1094,-4.1104,-4.1104,-4.1108,-4.1091,-4.1108,-4.1091,-4.1092,-4.1054,-4.1032,-4.1032,-4.1032,-4.1053,-4.1094,-4.1108,-4.1091,-4.1093,-4.1033,-4.1032,-4.1032,-4.1032,-4.1032,-4.1032,-4.1032,-4.1032,-4.1032,-4.1032,-4.1032,-4.1032,-4.1032,-4.1032,-4.1032,-4.1032,-4.1025,-4.103,-4.1003,-4.0959,-4.0948,-4.0975,-4.0966,-4.0991,-4.1,-4.1024,-4.1021,-4.1003,-4.1003,-4.0983,-4.0925,-4.0936,-4.0919,-4.0848,-4.0848,-4.0848,-4.0848,-4.0848,-4.0848,-4.0848,-4.0829,-4.081,0.0,-3.818,-3.8434,-3.8434,-3.7754,0.0,0.0,0.0,-3.5797,-3.5787,-3.5648,-3.5657,-3.6113,-3.6312,-3.6818,-3.8118,-3.8534,-3.9003,0.0,0.0,0.0,-3.9236,-3.9596,-3.9781,-3.9477,-3.968,-3.9584,-3.9049,-3.7903,-3.7058,-3.6591,-3.5816,-3.5425,-3.5504,-3.5476,-3.5507,-3.5607,-3.6202,-3.6498,-3.6526,-3.7534,-3.8013,-3.8013,-3.8344,-3.85,-3.85,-3.8505,-3.8803,0.0,-3.9312,-3.9637,-4.0157,-4.0486,-4.0613,-4.0656,-4.0954,-4.1053,-4.1054,-4.1053,-4.1051,-4.1069,-4.1016,-4.0991,-4.0991,-4.0991,-4.103,-4.1054,-4.1053,-4.1051,-4.105,-4.1016,-4.0991,-4.0991,-4.0991,-4.0991,-4.0991,-4.0991,-4.0991,-4.0991,-4.0991,-4.0991,-4.0991,-4.0991,-4.0991,-4.0991,-4.0991,-4.0988,-4.0959,-4.0954,-4.091,-4.0888,-4.0931,-4.0919,-4.092,-4.0915,-4.0942,-4.0958,-4.0938,-4.0919,-4.0919,-4.0848,-4.0848,-4.0829,-4.079,-4.079,-4.079,-4.079,-4.079,-4.079,-4.079,-4.079,-4.079,0.0,0.0,0.0,0.0,0.0,0.0,0.0,0.0,0.0,0.0,0.0,-3.5374,-3.5395,-3.5921,-3.6632,-3.743,-3.8184,-3.8982,0.0,-3.9848,0.0,-3.8564,-3.9331,-3.9612,-3.8817,-3.8899,-3.8954,-3.8839,-3.7387,-3.6517,-3.6589,-3.5848,-3.5512,-3.5693,-3.566,-3.5609,-3.5609,-3.5687,-3.571,-3.5729,-3.6658,-3.7116,-3.7136,-3.7954,-3.8324,-3.833,-3.8322,-3.8351,-3.8415,-3.842,-3.8447,-3.859,-3.9393,-3.9707,-3.9804,-4.0611,-4.0912,-4.0912,-4.0987,-4.1007,-4.1007,-4.0984,-4.0984,-4.0984,-4.0984,-4.1007,-4.0991,-4.1007,-4.1007,-4.1007,-4.0984,-4.0984,-4.0984,-4.0984,-4.0984,-4.0984,-4.0984,-4.0984,-4.0984,-4.0984,-4.0984,-4.0984,-4.0984,-4.0984,-4.0984,-4.0984,-4.0933,-4.0894,-4.089,-4.0839,-4.0808,-4.0803,-4.079,-4.079,-4.079,-4.0848,-4.0868,-4.079,-4.079,-4.079,-4.079,-4.079,-4.079,-4.079,-4.079,-4.079,-4.079,-4.079,-4.079,-4.079,-4.079,-4.079,-3.6656,0.0,-3.6327,-3.647,-3.6326,-3.611,0.0,0.0,0.0,0.0,0.0,0.0,0.0,0.0,-3.6696,-3.8746,-3.8606,-3.8606,-3.9626,-3.9935,0.0,-3.9851,-4.0062,-3.9872,-3.9013,-3.8974,-3.8476,-3.7196,-3.6719,-3.6269,-3.5738,-3.5611,-3.559,-3.5693,-3.5779,-3.5827,-3.5827,-3.5852,-3.5844,-3.5864,-3.6094,-3.6216,-3.6216,-3.642,-3.6509,-3.6516,-3.6515,-3.6884,-3.7518,-3.7519,-3.7908,-3.8512,-3.8721,-3.8817,-3.8914,-3.9767,-4.0076,-4.0171,-4.0799,-4.0998,-4.0986,-4.0933,-4.0918,-4.0918,-4.0918,-4.0953,-4.1007,-4.1008,-4.0998,-4.0986,-4.0933,-4.0918,-4.0918,-4.0918,-4.0918,-4.0918,-4.0918,-4.0918,-4.0918,-4.0918,-4.0918,-4.0918,-4.0918,-4.0918,-4.0929,-4.0932,-4.0869,-4.0829,-4.0818,-4.08,-4.0803,-4.079,-4.079,-4.079,-4.079,-4.081,-4.081,-4.079,-4.079,-4.079,-4.079,-4.079,-4.079,-4.079,-4.079,-4.079,-4.079,-4.079,-4.079,-4.079,-4.079,-4.079,-3.7067,-3.6311,-3.5523,-3.564,-3.565,-3.5607,0.0,0.0,0.0,0.0,0.0,0.0,0.0,0.0,0.0,0.0,-3.8614,-3.8995,0.0,0.0,-3.9954,-4.0098,-3.9755,-3.9376,-3.9031,-3.8304,-3.7498,-3.6661,-3.622,-3.5864,-3.5546,-3.5611,-3.5687,-3.5794,-3.5858,-3.5894,-3.5908,-3.5904,-3.5909,-3.5909,-3.5934,-3.5942,-3.5931,-3.5919,-3.5893,-3.5908,-3.5897,-3.6171,-3.6596,-3.6608,-3.6877,-3.734,-3.7718,-3.7866,-3.796,-3.8834,-3.9154,-3.9285,-4.0103,-4.0645,-4.0957,-4.0906,-4.0907,-4.0907,-4.0907,-4.0937,-4.0955,-4.0953,-4.0937,-4.0949,-4.0897,-4.0907,-4.0907,-4.0907,-4.0907,-4.0907,-4.0907,-4.0907,-4.0907,-4.0907,-4.0907,-4.0907,-4.0907,-4.0907,-4.0898,-4.0908,-4.0858,-4.0837,-4.0804,-4.0788,-4.0803,-4.079,-4.079,-4.079,-4.079,-4.079,-4.079,-4.079,-4.079,-4.079,-4.079,-4.079,-4.079,-4.079,-4.079,-4.079,-4.079,-4.079,-4.079,-4.079,-4.079,-4.079,-3.7738,-3.6736,-3.5671,-3.5762,-3.568,-3.5584,0.0,0.0,0.0,0.0,0.0,0.0,0.0,0.0,0.0,0.0,0.0,-3.9623,-3.9502,-3.9438,-3.9505,-3.9745,-3.8986,-3.8517,-3.8647,-3.7364,-3.653,-3.6521,-3.5855,-3.5512,-3.5685,-3.5702,-3.576,-3.5889,-3.5904,-3.5929,-3.5914,-3.5929,-3.5914,-3.5914,-3.5951,-3.5985,-3.5979,-3.5932,-3.5898,-3.5897,-3.5888,-3.5899,-3.5896,-3.5884,-3.588,-3.5955,-3.6635,-3.6904,-3.7014,-3.7891,-3.8188,-3.8343,-3.9353,-4.015,-4.0733,-4.0869,-4.0907,-4.0907,-4.0907,-4.0907,-4.0907,-4.0907,-4.0907,-4.0907,-4.0907,-4.0907,-4.0907,-4.0907,-4.0907,-4.0907,-4.0907,-4.0907,-4.0907,-4.0907,-4.0907,-4.0907,-4.0907,-4.0907,-4.0907,-4.0898,-4.0898,-4.0867,-4.0807,-4.0792,-4.0796,-4.0803,-4.079,-4.079,-4.079,-4.079,-4.079,-4.079,-4.079,-4.079,-4.079,-4.079,-4.079,-4.079,-4.079,-4.079,-4.079,-4.079,-4.079,-4.079,-4.079,-4.079,-3.8112,-3.7502,-3.6953,-3.7405,-3.6954,-3.6387,0.0,0.0,0.0,0.0,0.0,0.0,0.0,-3.597,-3.6325,0.0,0.0,-3.9599,-3.9804,-3.939,-3.909,-3.9128,-3.8365,-3.7615,-3.7102,-3.681,-3.6419,-3.5805,-3.5643,-3.562,-3.5693,-3.5757,-3.5827,-3.5904,-3.5958,-3.5981,-3.5981,-3.597,-3.5974,-3.5978,-3.5945,-3.5914,-3.5915,-3.5898,-3.589,-3.589,-3.5834,-3.5846,-3.5905,-3.5833,-3.5811,-3.583,-3.5959,-3.599,-3.6106,-3.6992,-3.7294,-3.7528,-3.914,-3.9781,-3.9994,-4.0674,-4.0907,-4.0907,-4.0907,-4.0907,-4.0907,-4.0907,-4.0907,-4.0907,-4.0907,-4.0907,-4.0907,-4.0907,-4.0907,-4.0907,-4.0907,-4.0907,-4.0907,-4.0907,-4.0907,-4.0907,-4.0907,-4.0907,-4.0898,-4.0898,-4.0848,-4.0807,-4.0812,-4.0796,-4.0803,-4.079,-4.079,-4.079,-4.079,-4.079,-4.079,-4.079,-4.079,-4.079,-4.079,-4.079,-4.079,-4.079,-4.079,-4.079,-4.079,-4.079,-4.079,-4.079,-4.079,-4.079,-3.8726,-3.8565,-3.8451,-3.8596,-3.7794,-3.6823,-3.6422,0.0,0.0,0.0,0.0,0.0,0.0,0.0,-3.6375,-3.7498,-3.7915,-3.8155,-3.8271,-3.8042,-3.7921,-3.8118,-3.7376,-3.6797,-3.6719,-3.6304,-3.5939,-3.566,-3.565,-3.5704,-3.5795,-3.5846,-3.5889,-3.5958,-3.599,-3.5985,-3.5942,-3.5947,-3.5962,-3.6001,-3.5932,-3.5898,-3.5898,-3.5899,-3.5908,-3.5894,-3.582,-3.5813,-3.5842,-3.5807,-3.5799,-3.5799,-3.5799,-3.5799,-3.5857,-3.6246,-3.6692,-3.7217,-3.8013,-3.8907,-3.9761,-4.013,-4.0558,-4.0907,-4.0907,-4.0907,-4.0907,-4.0907,-4.0907,-4.0907,-4.0907,-4.0907,-4.0907,-4.0907,-4.0907,-4.0907,-4.0907,-4.0907,-4.0907,-4.0907,-4.0907,-4.0907,-4.0907,-4.0907,-4.0898,-4.0907,-4.0877,-4.0826,-4.08,-4.0808,-4.0796,-4.0803,-4.079,-4.079,-4.079,-4.079,-4.079,-4.079,-4.079,-4.079,-4.079,-4.079,-4.079,-4.079,-4.079,-4.079,-4.079,-4.079,-4.079,-4.079,-4.079,-4.079,-3.9027,-3.9173,-3.9287,-3.9279,0.0,-3.7279,-3.6593,0.0,0.0,0.0,0.0,0.0,0.0,-3.5513,0.0,-3.6875,-3.6971,-3.7013,-3.7081,-3.693,-3.6906,-3.7148,-3.6426,-3.6052,-3.6402,-3.59,-3.5588,-3.5737,-3.5753,-3.5788,-3.5885,-3.5908,-3.5919,-3.5965,-3.5979,-3.5951,-3.5898,-3.5898,-3.5937,-3.5984,-3.5918,-3.589,-3.5901,-3.5885,-3.5872,-3.5864,-3.5815,-3.5799,-3.5799,-3.5799,-3.5799,-3.5799,-3.5799,-3.5799,-3.5799,-3.5799,-3.6226,-3.6828,-3.7023,-3.7974,-3.9159,-3.9567,-4.013,-4.0655,-4.0849,-4.0907,-4.0907,-4.0907,-4.0907,-4.0907,-4.0907,-4.0907,-4.0907,-4.0907,-4.0907,-4.0907,-4.0907,-4.0907,-4.0907,-4.0907,-4.0907,-4.0907,-4.0907,-4.0907,-4.0898,-4.0898,-4.0907,-4.0886,-4.0812,-4.08,-4.0808,-4.0803,-4.079,-4.079,-4.079,-4.079,-4.079,-4.079,-4.079,-4.079,-4.079,-4.079,-4.079,-4.079,-4.079,-4.079,-4.079,-4.079,-4.079,-4.079,-4.079,-4.079,-3.8646,-3.8688,-3.8799,-3.9044,0.0,0.0,-3.6999,-3.6184,0.0,0.0,0.0,0.0,0.0,-3.518,-3.5769,-3.5904,-3.6677,-3.7354,-3.7603,-3.6991,-3.6532,-3.6559,-3.5851,-3.5436,-3.5657,-3.5639,-3.5678,-3.5878,-3.5894,-3.5885,-3.5909,-3.5901,-3.5896,-3.5916,-3.5914,-3.5901,-3.5899,-3.5899,-3.5899,-3.5901,-3.5903,-3.5899,-3.5894,-3.5845,-3.5807,-3.5818,-3.5799,-3.5799,-3.5799,-3.5799,-3.5799,-3.5799,-3.5799,-3.5799,-3.5799,-3.5799,-3.5838,-3.6012,-3.6828,-3.7178,-3.7547,-3.9179,-3.9742,-3.9936,-4.0674,-4.0907,-4.0907,-4.0907,-4.0907,-4.0907,-4.0907,-4.0907,-4.0907,-4.0907,-4.0907,-4.0907,-4.0907,-4.0907,-4.0907,-4.0907,-4.0907,-4.0907,-4.0907,-4.0907,-4.0907,-4.0907,-4.0898,-4.0877,-4.0807,-4.0792,-4.0808,-4.0803,-4.079,-4.079,-4.079,-4.079,-4.079,-4.079,-4.079,-4.079,-4.079,-4.079,-4.079,-4.079,-4.079,-4.079,-4.079,-4.079,-4.079,-4.079,-4.079,-4.079,-3.8401,-3.8554,-3.87,-3.873,0.0,0.0,0.0,0.0,0.0,0.0,-3.4524,0.0,0.0,0.0,-3.5363,-3.5264,-3.5666,-3.6041,-3.6129,-3.5914,-3.5783,-3.5858,-3.5611,-3.5512,-3.5693,-3.5729,-3.5767,-3.5899,-3.5896,-3.5896,-3.5903,-3.5898,-3.5894,-3.5891,-3.5901,-3.5903,-3.5899,-3.5899,-3.588,-3.5846,-3.5883,-3.5908,-3.5908,-3.5838,-3.5799,-3.5799,-3.5799,-3.5799,-3.5799,-3.5799,-3.5799,-3.5799,-3.5799,-3.5799,-3.5799,-3.5799,-3.5799,-3.5857,-3.6187,-3.6653,-3.7217,-3.7877,-3.8829,-3.9761,-4.0053,-4.0499,-4.0907,-4.0907,-4.0907,-4.0907,-4.0907,-4.0907,-4.0907,-4.0907,-4.0907,-4.0907,-4.0907,-4.0907,-4.0907,-4.0907,-4.0907,-4.0907,-4.0907,-4.0907,-4.0898,-4.0908,-4.0888,-4.0877,-4.0807,-4.0804,-4.0788,-4.0808,-4.0803,-4.079,-4.079,-4.079,-4.079,-4.079,-4.079,-4.079,-4.079,-4.079,-4.079,-4.079,-4.079,-4.079,-4.079,-4.079,-4.079,-4.079,-4.079,-4.05,-3.8307,-3.8415,-3.8554,0.0,0.0,0.0,0.0,0.0,0.0,0.0,-3.4321,0.0,-3.4508,0.0,-3.4944,-3.4908,-3.5072,-3.5209,-3.5209,-3.527,-3.5369,-3.5483,-3.5535,-3.5621,-3.5781,-3.5794,-3.5821,-3.5896,-3.5908,-3.5898,-3.5898,-3.5906,-3.5907,-3.59,-3.5884,-3.586,-3.5879,-3.5879,-3.5852,-3.5799,-3.5852,-3.5879,-3.5879,-3.5823,-3.5799,-3.5799,-3.5799,-3.5799,-3.5799,-3.5799,-3.5799,-3.5799,-3.5799,-3.5799,-3.5799,-3.5799,-3.5799,-3.5799,-3.5799,-3.6187,-3.6731,-3.7003,-3.7916,-3.8984,-3.9528,-4.0092,-4.0577,-4.083,-4.0907,-4.0907,-4.0907,-4.0907,-4.0907,-4.0907,-4.0907,-4.0907,-4.0907,-4.0907,-4.0907,-4.0907,-4.0907,-4.0907,-4.0907,-4.0907,-4.0898,-4.0898,-4.0898,-4.0888,-4.0848,-4.0815,-4.08,-4.0808,-4.0803,-4.079,-4.079,-4.079,-4.079,-4.079,-4.079,-4.079,-4.079,-4.079,-4.079,-4.079,-4.079,-4.079,-4.079,-4.079,-4.079,-4.079,-4.0733,-4.0243,-3.8289,-3.8307,-3.834,0.0,0.0,0.0,0.0,0.0,0.0,0.0,0.0,-3.4055,-3.4508,-3.4551,-3.4593,-3.4851,-3.5072,-3.5209,-3.5209,-3.5316,-3.5419,-3.5495,-3.5611,-3.5721,-3.5781,-3.5802,-3.5835,-3.5893,-3.5897,-3.5906,-3.5906,-3.5903,-3.5908,-3.5908,-3.5818,-3.5799,-3.5799,-3.5799,-3.5799,-3.5799,-3.5799,-3.5799,-3.5799,-3.5799,-3.5799,-3.5799,-3.5799,-3.5799,-3.5799,-3.5799,-3.5799,-3.5799,-3.5799,-3.5799,-3.5799,-3.5799,-3.5799,-3.5799,-3.5799,-3.5799,-3.5935,-3.6809,-3.7081,-3.7411,-3.9159,-3.9684,-3.9878,-4.0655,-4.0888,-4.0907,-4.0907,-4.0907,-4.0907,-4.0907,-4.0907,-4.0907,-4.0907,-4.0907,-4.0907,-4.0907,-4.0907,-4.0907,-4.0907,-4.0907,-4.0907,-4.0907,-4.0907,-4.0898,-4.0907,-4.0848,-4.0804,-4.0803,-4.079,-4.079,-4.079,-4.079,-4.079,-4.079,-4.079,-4.079,-4.079,-4.079,-4.079,-4.079,-4.079,-4.079,-4.079,-4.079,-4.079,-4.079,-4.0583,-4.0023,-3.8245,-3.8314,0.0,0.0,0.0,0.0,0.0,0.0,0.0,0.0,-3.4184,-3.4431,-3.4389,-3.4768,-3.5035,-3.4927,-3.5107,-3.53,-3.5411,-3.5451,-3.553,-3.5702,-3.5794,-3.5855,-3.5879,-3.5868,-3.5877,-3.5896,-3.5854,-3.5849,-3.5899,-3.5859,-3.583,-3.583,-3.5807,-3.5799,-3.5799,-3.5799,-3.5799,-3.5799,-3.5799,-3.5799,-3.5799,-3.5799,-3.5799,-3.5799,-3.5799,-3.5799,-3.5799,-3.5799,-3.5799,-3.5799,-3.5799,-3.5799,-3.5799,-3.5799,-3.5799,-3.5799,-3.5799,-3.5799,-3.5838,-3.611,-3.6595,-3.7197,-3.7702,-3.8732,-3.9761,-3.9994,-4.0461,-4.0907,-4.0907,-4.0907,-4.0907,-4.0907,-4.0907,-4.0907,-4.0907,-4.0907,-4.0907,-4.0907,-4.0907,-4.0907,-4.0907,-4.0907,-4.0907,-4.0907,-4.0907,-4.0869,-4.0848,-4.0818,-4.0804,-4.0803,-4.079,-4.079,-4.079,-4.079,-4.079,-4.079,-4.079,-4.079,-4.079,-4.079,-4.079,-4.079,-4.079,-4.079,-4.079,-4.079,-4.0733,-4.0564,-3.9903,-3.9039,-3.8289,-3.8387,0.0,0.0,-3.8016,-3.6888,-3.617,0.0,0.0,0.0,-3.4465,-3.4708,-3.4629,-3.4941,-3.5151,-3.5073,-3.5232,-3.5418,-3.5483,-3.557,-3.5666,-3.5801,-3.586,-3.5899,-3.5898,-3.5896,-3.5903,-3.5907,-3.5841,-3.582,-3.5853,-3.5823,-3.5799,-3.5799,-3.5799,-3.5799,-3.5799,-3.5799,-3.5799,-3.5799,-3.5799,-3.5799,-3.5799,-3.5799,-3.5799,-3.5799,-3.5799,-3.5799,-3.5799,-3.5799,-3.5799,-3.5799,-3.5799,-3.5799,-3.5799,-3.5799,-3.5799,-3.5799,-3.5799,-3.5799,-3.5799,-3.5799,-3.6168,-3.6653,-3.6984,-3.7838,-3.8732,-3.9082,-3.9781,-4.0422,-4.0422,-4.0655,-4.0907,-4.0907,-4.0907,-4.0907,-4.0907,-4.0907,-4.0907,-4.0907,-4.0907,-4.0907,-4.0907,-4.0907,-4.0907,-4.0907,-4.0907,-4.0888,-4.0818,-4.0807,-4.0804,-4.0803,-4.079,-4.079,-4.079,-4.079,-4.079,-4.079,-4.079,-4.079,-4.079,-4.079,-4.079,-4.079,-4.079,-4.079,-4.079,-4.072,-4.0631,-4.0469,-3.9438,-3.8456,-3.851,0.0,0.0,0.0,-3.7802,0.0,-3.5077,-3.4673,-3.4556,-3.4623,0.0,-3.488,-3.5075,-3.5054,-3.5096,-3.528,-3.5419,-3.551,-3.5523,-3.5693,-3.5813,-3.5805,-3.5864,-3.5898,-3.5898,-3.5903,-3.5908,-3.5883,-3.5838,-3.5752,-3.5674,-3.5674,-3.5627,-3.5549,-3.5549,-3.5549,-3.5549,-3.5627,-3.5657,-3.5657,-3.5735,-3.5782,-3.5791,-3.5791,-3.5799,-3.5799,-3.5799,-3.5799,-3.5799,-3.5799,-3.5799,-3.5799,-3.5799,-3.5799,-3.5799,-3.5799,-3.5799,-3.5799,-3.5799,-3.5799,-3.5799,-3.5799,-3.5799,-3.5954,-3.6751,-3.7042,-3.7275,-3.8052,-3.8907,-3.9606,-3.9684,-4.0218,-4.0781,-4.0878,-4.0898,-4.0907,-4.0907,-4.0907,-4.0907,-4.0907,-4.0907,-4.0907,-4.0907,-4.0907,-4.0907,-4.0907,-4.0907,-4.0888,-4.0818,-4.0807,-4.0804,-4.0803,-4.0803,-4.0803,-4.079,-4.079,-4.079,-4.079,-4.079,-4.079,-4.079,-4.079,-4.079,-4.0778,-4.0778,-4.0746,-4.0733,-4.0569,-4.0457,-4.0403,-3.9109,-3.8092,0.0,-3.8774,0.0,0.0,-3.7573,-3.6173,-3.5127,-3.4958,-3.4992,-3.4792,-3.4956,-3.5107,-3.5094,-3.5211,-3.5339,-3.5432,-3.5469,-3.5568,-3.5784,-3.5853,-3.588,-3.587,-3.5898,-3.5894,-3.5892,-3.5904,-3.5891,-3.583,-3.5807,-3.5482,-3.4739,-3.47,-3.4362,-3.3624,-3.3604,-3.3604,-3.3604,-3.429,-3.4618,-3.4638,-3.5264,-3.5618,-3.5718,-3.5773,-3.5799,-3.5799,-3.5799,-3.5799,-3.5799,-3.5799,-3.5799,-3.5799,-3.5799,-3.5799,-3.5799,-3.5799,-3.5799,-3.5799,-3.5799,-3.5799,-3.5799,-3.5799,-3.5799,-3.5838,-3.6032,-3.6556,-3.7139,-3.7333,-3.8013,-3.8829,-3.9528,-3.9752,-3.9982,-4.0649,-4.0858,-4.0907,-4.0907,-4.0907,-4.0907,-4.0907,-4.0907,-4.0907,-4.0907,-4.0907,-4.0907,-4.0907,-4.0907,-4.0888,-4.0818,-4.0848,-4.0865,-4.0803,-4.0796,-4.0796,-4.0803,-4.079,-4.079,-4.079,-4.079,-4.079,-4.079,-4.079,-4.072,-4.0569,-4.0569,-4.0489,-4.0321,-4.0286,-4.0196,-3.9982,-3.84,-3.7478,0.0,0.0,0.0,0.0,0.0,-3.6309,-3.5378,-3.5269,-3.5306,-3.5166,-3.5236,-3.5333,-3.5306,-3.5379,-3.5455,-3.5545,-3.5572,-3.5671,-3.5864,-3.5899,-3.5909,-3.5898,-3.5909,-3.5903,-3.5894,-3.5859,-3.5811,-3.5756,-3.5747,-3.535,-3.4408,-3.4339,-3.3942,-3.3029,-3.301,-3.301,-3.301,-3.3442,-3.3674,-3.3693,-3.4542,-3.5152,-3.5615,-3.5747,-3.5799,-3.5799,-3.5799,-3.5799,-3.5799,-3.5799,-3.5799,-3.5799,-3.5799,-3.5799,-3.5799,-3.5799,-3.5799,-3.5799,-3.5799,-3.5799,-3.5799,-3.5799,-3.5799,-3.5799,-3.5799,-3.6129,-3.647,-3.6435,-3.7036,-3.7783,-3.8208,-3.857,-3.9038,-3.9876,-4.0471,-4.0837,-4.0773,-4.0807,-4.0837,-4.0773,-4.0773,-4.0773,-4.0773,-4.0807,-4.0858,-4.0898,-4.0907,-4.0888,-4.0848,-4.0877,-4.0876,-4.0808,-4.0808,-4.0808,-4.0803,-4.079,-4.079,-4.079,-4.079,-4.079,-4.079,-4.0706,-4.0617,-4.0504,-4.0489,-4.0389,-4.0196,-4.01,-4.0,-3.9854,-3.8477,-3.7574,0.0,0.0,0.0,0.0,-3.6934,0.0,-3.5661,-3.5493,-3.5493,-3.5493,-3.5493,-3.5493,-3.5493,-3.5493,-3.5545,-3.5603,-3.5667,-3.5756,-3.5898,-3.5913,-3.5898,-3.5893,-3.5896,-3.5908,-3.5878,-3.5838,-3.5765,-3.5718,-3.5707,-3.5278,-3.4326,-3.4275,-3.3793,-3.276,-3.2721,-3.2663,-3.2521,-3.2663,-3.274,-3.2721,-3.3619,-3.4468,-3.527,-3.5446,-3.5629,-3.5773,-3.5765,-3.5773,-3.5791,-3.5782,-3.5782,-3.5799,-3.5799,-3.5799,-3.5799,-3.5799,-3.5799,-3.5799,-3.5799,-3.5799,-3.5799,-3.5799,-3.5799,-3.5799,-3.5799,-3.5799,-3.5782,-3.5728,-3.6182,-3.6704,-3.6798,-3.734,-3.8047,-3.8863,-3.9799,-4.0533,-4.0582,-4.0694,-4.0732,-4.0635,-4.0588,-4.0588,-4.0588,-4.0688,-4.0781,-4.0878,-4.0859,-4.0868,-4.0907,-4.0897,-4.0856,-4.0812,-4.08,-4.0788,-4.0803,-4.0803,-4.079,-4.079,-4.0778,-4.0746,-4.0746,-4.0554,-4.0441,-4.0408,-4.0408,-4.0304,-4.01,-3.9935,-3.9848,-3.9807,-3.8771,-3.7868,0.0,0.0,0.0,0.0,-3.6232,-3.5641,0.0,0.0,-3.5493,-3.5493,-3.5493,-3.5493,-3.5493,-3.5493,-3.5545,-3.568,-3.5687,-3.5773,-3.5962,-3.5932,-3.5897,-3.59,-3.5899,-3.5889,-3.5823,-3.5799,-3.5765,-3.5718,-3.5707,-3.5237,-3.4186,-3.4134,-3.3382,-3.1752,-3.1642,-3.1278,-3.0584,-3.1331,-3.1661,-3.1623,-3.2615,-3.3513,-3.4288,-3.4441,-3.4939,-3.5718,-3.5585,-3.5639,-3.5791,-3.5728,-3.5737,-3.5799,-3.5799,-3.5799,-3.5799,-3.5799,-3.5799,-3.5799,-3.5799,-3.5799,-3.5799,-3.5799,-3.5799,-3.5799,-3.5799,-3.5799,-3.5791,-3.5782,-3.5815,-3.6017,-3.6704,-3.6826,-3.7017,-3.7882,-3.8762,-3.9619,-4.0419,-4.0602,-4.0635,-4.0602,-4.0588,-4.0588,-4.0588,-4.0602,-4.0662,-4.0781,-4.0713,-4.07,-4.0886,-4.0846,-4.0812,-4.0796,-4.0807,-4.0804,-4.0788,-4.0803,-4.079,-4.079,-4.0646,-4.0554,-4.0554,-4.0339,-4.0158,-3.9979,-3.9979,-3.9892,-3.9679,-3.9631,-3.965,-3.9631,-3.8719,-3.7868,-3.8664,0.0,0.0,0.0,-3.6078,-3.5493,-3.5493,-3.5493,-3.5493,-3.5493,-3.5493,-3.5493,-3.5493,-3.5493,-3.5545,-3.568,-3.5706,-3.5776,-3.5971,-3.5934,-3.5908,-3.5905,-3.5866,-3.5833,-3.5799,-3.5765,-3.5708,-3.5604,-3.5546,-3.511,-3.4098,-3.404,-3.3474,-3.221,-3.2153,-3.1962,-3.1599,-3.1981,-3.2401,-3.286,-3.3302,-3.3944,-3.4715,-3.4774,-3.5136,-3.5707,-3.5646,-3.5679,-3.5791,-3.5765,-3.5765,-3.5799,-3.5799,-3.5799,-3.5799,-3.5799,-3.5799,-3.5799,-3.5799,-3.5799,-3.5799,-3.5799,-3.5799,-3.5799,-3.5799,-3.5799,-3.5782,-3.5659,-3.5607,-3.5628,-3.5894,-3.5878,-3.6036,-3.6897,-3.7395,-3.806,-3.9413,-4.0111,-4.0454,-4.0341,-4.0323,-4.0304,-4.0319,-4.0319,-4.0351,-4.0457,-4.0408,-4.0408,-4.0496,-4.0482,-4.0501,-4.0623,-4.0516,-4.0506,-4.0621,-4.0534,-4.0504,-4.0612,-4.0441,-4.0372,-4.0489,-4.0196,-3.9979,-3.9914,-3.9914,-3.98,-3.9602,-3.9602,-3.9602,-3.9602,-3.9201,-3.8582,0.0,0.0,0.0,0.0,-3.5872,-3.5474,0.0,0.0,-3.5493,-3.5493,-3.5526,-3.5545,-3.5545,-3.5545,-3.5565,-3.568,-3.5725,-3.5815,-3.5971,-3.5937,-3.5903,-3.5893,-3.5838,-3.5791,-3.5773,-3.5534,-3.5317,-3.5162,-3.5089,-3.4759,-3.4041,-3.4178,-3.391,-3.307,-3.3032,-3.2936,-3.2691,-3.2691,-3.3032,-3.3662,-3.3662,-3.4101,-3.4904,-3.4904,-3.5163,-3.5657,-3.5635,-3.5648,-3.5727,-3.5765,-3.5773,-3.5773,-3.5773,-3.5782,-3.5791,-3.5773,-3.5782,-3.5799,-3.5799,-3.5799,-3.5799,-3.5799,-3.5799,-3.5799,-3.5799,-3.5799,-3.5773,-3.5618,-3.5531,-3.5457,-3.5311,-3.5239,-3.5362,-3.6031,-3.6356,-3.6967,-3.8648,-3.9731,-4.0306,-4.0138,-4.0117,-4.0098,-4.006,-4.006,-4.0081,-4.0173,-4.0155,-4.0136,-4.0204,-4.0189,-4.0243,-4.0412,-4.0298,-4.0247,-4.0422,-4.0286,-4.0269,-4.0406,-4.0233,-4.0196,-4.0339,-4.0,-3.9804,-3.9804,-3.9804,-3.9754,-3.9602,-3.9602,-3.9602,-3.9602,-3.9602,-3.9126,0.0,0.0,0.0,0.0,0.0,0.0,0.0,-3.5493,-3.5493,-3.5493,-3.5565,-3.5603,-3.5603,-3.5603,-3.5622,-3.5699,-3.5811,-3.5913,-3.5991,-3.5937,-3.5903,-3.5893,-3.5838,-3.5773,-3.5698,-3.4943,-3.4397,-3.4191,-3.4164,-3.4122,-3.4022,-3.4713,-3.477,-3.3949,-3.3929,-3.3547,-3.2711,-3.2691,-3.2711,-3.2768,-3.2768,-3.3223,-3.4063,-3.4063,-3.4582,-3.5495,-3.543,-3.5457,-3.5538,-3.5648,-3.5718,-3.5718,-3.5718,-3.5737,-3.5791,-3.5718,-3.5757,-3.5799,-3.5799,-3.5799,-3.5799,-3.5799,-3.5799,-3.5799,-3.5799,-3.5799,-3.5791,-3.5791,-3.5649,-3.5495,-3.5483,-3.534,-3.5209,-3.5267,-3.5897,-3.6967,-3.8648,-3.968,-4.0272,-4.0137,-4.0117,-4.0057,-3.9933,-3.9911,-3.9956,-4.0081,-4.0,-3.9981,-4.017,-4.0138,-4.0138,-4.0204,-4.0208,-4.0192,-4.0211,-4.0213,-4.0214,-4.0214,-4.002,-3.9935,-3.9935,-3.9727,-3.9602,-3.9602,-3.9602,-3.9602,-3.9602,-3.9602,-3.9602,-3.9602,-3.9602,-3.9126,0.0,0.0,0.0,-3.5477,-3.5345,-3.5397,-3.5416,-3.5455,-3.5493,-3.5493,-3.5565,-3.5591,-3.5589,-3.5648,-3.57,-3.5811,-3.5875,-3.5914,-3.5939,-3.5927,-3.5904,-3.5912,-3.5838,-3.5765,-3.5718,-3.4872,-3.426,-3.4101,-3.3537,-3.3192,-3.3165,-3.3452,-3.3471,-3.3165,-3.3165,-3.3032,-3.2691,-3.2691,-3.2993,-3.3528,-3.3528,-3.3968,-3.477,-3.4849,-3.5047,-3.5311,-3.5509,-3.5626,-3.5699,-3.5747,-3.5756,-3.5756,-3.5756,-3.5773,-3.5791,-3.5765,-3.5773,-3.5799,-3.5799,-3.5799,-3.5799,-3.5799,-3.5799,-3.5799,-3.5799,-3.5799,-3.5782,-3.5747,-3.5688,-3.5593,-3.547,-3.5393,-3.5304,-3.5226,-3.5878,-3.6661,-3.7273,-3.8422,-3.947,-3.988,-3.9911,-3.9804,-3.9727,-3.9703,-3.9727,-3.9777,-3.975,-3.9731,-3.981,-3.9785,-3.9829,-3.9983,-3.9897,-3.9873,-4.0001,-3.9873,-3.987,-4.0,-3.9823,-3.9754,-3.9892,-3.9703,-3.9602,-3.9602,-3.9602,-3.9602,-3.9602,-3.9602,-3.9602,-3.9602,-3.9602,-3.9427,-3.703,0.0,0.0,0.0,0.0,-3.5379,-3.5383,-3.5416,-3.5455,-3.5493,-3.5584,-3.5631,-3.563,-3.5723,-3.5821,-3.59,-3.5913,-3.5937,-3.5903,-3.5897,-3.5899,-3.5912,-3.5838,-3.5756,-3.5637,-3.4817,-3.4115,-3.3662,-3.3058,-3.2558,-3.2271,-3.2539,-3.2691,-3.2691,-3.2691,-3.2691,-3.2691,-3.2691,-3.2993,-3.3566,-3.3578,-3.388,-3.4397,-3.4817,-3.4979,-3.4952,-3.5477,-3.5688,-3.5669,-3.5765,-3.5782,-3.5765,-3.5765,-3.5773,-3.5791,-3.5773,-3.5773,-3.5799,-3.5799,-3.5799,-3.5799,-3.5799,-3.5799,-3.5799,-3.5799,-3.5799,-3.5782,-3.5757,-3.5728,-3.5657,-3.547,-3.5393,-3.5304,-3.5226,-3.5649,-3.6146,-3.6451,-3.7699,-3.8935,-3.9444,-3.9618,-3.9689,-3.9637,-3.9626,-3.9602,-3.9602,-3.9602,-3.9602,-3.9602,-3.9602,-3.965,-3.9777,-3.9679,-3.9631,-3.98,-3.9679,-3.9674,-3.98,-3.9656,-3.9674,-3.98,-3.9656,-3.9602,-3.9602,-3.9602,-3.9602,-3.9602,-3.9602,-3.9602,-3.9602,-3.9602,-3.932,0.0,0.0,0.0,0.0,0.0,-3.5334,-3.5388,-3.5397,-3.5416,-3.5493,-3.5622,-3.5709,-3.5708,-3.5874,-3.5971,-3.5913,-3.5952,-3.5976,-3.591,-3.5899,-3.5903,-3.5893,-3.5838,-3.5718,-3.5519,-3.4762,-3.3859,-3.2779,-3.2672,-3.2271,-3.1408,-3.2157,-3.2615,-3.2615,-3.2615,-3.2615,-3.2615,-3.2615,-3.2634,-3.2669,-3.2732,-3.2787,-3.2845,-3.3749,-3.4237,-3.4439,-3.5301,-3.557,-3.5422,-3.5689,-3.5756,-3.5688,-3.5688,-3.5737,-3.5791,-3.5737,-3.5737,-3.5799,-3.5799,-3.5799,-3.5799,-3.5799,-3.5799,-3.5799,-3.5799,-3.5799,-3.5799,-3.5799,-3.5747,-3.5678,-3.555,-3.5355,-3.5209,-3.519,-3.5209,-3.5439,-3.6279,-3.7641,-3.8746,-3.8803,-3.9264,-3.9698,-3.9717,-3.9637,-3.9602,-3.9602,-3.9602,-3.9602,-3.9602,-3.9602,-3.9602,-3.9602,-3.9602,-3.9602,-3.9602,-3.9602,-3.9602,-3.9602,-3.9602,-3.9602,-3.9602,-3.9602,-3.9602,-3.9602,-3.9602,-3.9602,-3.9602,-3.9602,-3.9602,-3.9602,-3.9602,-3.8719,-3.6015,0.0,0.0,0.0,0.0,0.0,-3.5331,-3.532,-3.536,-3.5493,-3.5622,-3.5728,-3.5825,-3.5932,-3.5991,-3.5971,-3.5991,-3.5972,-3.5919,-3.5903,-3.588,-3.5834,-3.5818,-3.5718,-3.5519,-3.4762,-3.3859,-3.2779,-3.2119,-3.1408,-3.0586,-3.0758,-3.0892,-3.0892,-3.0892,-3.0892,-3.0892,-3.0892,-3.124,-3.1903,-3.191,-3.2289,-3.2967,-3.3263,-3.3729,-3.4276,-3.4652,-3.5137,-3.5623,-3.5747,-3.5782,-3.5765,-3.5765,-3.5782,-3.5791,-3.5773,-3.5782,-3.5799,-3.5799,-3.5799,-3.5799,-3.5799,-3.5799,-3.5799,-3.5799,-3.5799,-3.5799,-3.5799,-3.5782,-3.5756,-3.5678,-3.5411,-3.5226,-3.532,-3.5273,-3.5267,-3.5515,-3.6307,-3.7357,-3.8556,-3.8892,-3.9145,-3.9731,-3.9758,-3.9665,-3.9665,-3.9631,-3.9602,-3.9602,-3.9602,-3.9602,-3.9602,-3.9602,-3.9602,-3.9602,-3.9602,-3.9602,-3.9602,-3.9602,-3.9602,-3.9602,-3.9602,-3.9602,-3.9602,-3.9602,-3.9602,-3.9602,-3.9602,-3.9602,-3.9602,-3.9602,-3.8719,0.0,0.0,0.0,-3.5193,0.0,0.0,-3.5299,-3.5308,-3.5354,-3.5503,-3.5638,-3.5747,-3.5888,-3.5952,-3.5991,-3.5991,-3.5991,-3.5989,-3.5903,-3.5896,-3.5889,-3.5807,-3.5799,-3.5718,-3.5519,-3.5071,-3.4379,-3.3314,-3.2439,-3.1427,-3.0261,-3.0204,-3.0204,-3.0204,-3.0204,-3.0204,-3.0204,-3.024,-3.0509,-3.1053,-3.1126,-3.1482,-3.2008,-3.2435,-3.2879,-3.3316,-3.3785,-3.4454,-3.5194,-3.5238,-3.5469,-3.5799,-3.5799,-3.5799,-3.5799,-3.5799,-3.5799,-3.5799,-3.5799,-3.5799,-3.5799,-3.5799,-3.5799,-3.5799,-3.5799,-3.5799,-3.5799,-3.5799,-3.5736,-3.5679,-3.5626,-3.5411,-3.5226,-3.5304,-3.5258,-3.5209,-3.5209,-3.5541,-3.6232,-3.7584,-3.8002,-3.8433,-3.929,-3.9359,-3.9384,-3.966,-3.9665,-3.9631,-3.9602,-3.9602,-3.9602,-3.9602,-3.9602,-3.9602,-3.9602,-3.9602,-3.9602,-3.9602,-3.9602,-3.9602,-3.9602,-3.9602,-3.9602,-3.9602,-3.9602,-3.9602,-3.9602,-3.9602,-3.9602,-3.9602,-3.922,-3.8338,0.0,0.0,0.0,-3.5209,-3.5209,0.0,-3.5293,-3.5285,-3.5343,-3.5545,-3.5638,-3.5725,-3.5849,-3.5952,-3.5991,-3.5991,-3.5991,-3.5989,-3.5903,-3.5908,-3.5878,-3.5807,-3.5799,-3.5727,-3.5531,-3.5507,-3.5091,-3.4091,-3.3108,-3.1866,-3.028,-3.0204,-3.0204,-3.0204,-3.0204,-3.0204,-3.0204,-3.0273,-3.0297,-3.0309,-3.0511,-3.0604,-3.0632,-3.1484,-3.1914,-3.2043,-3.2827,-3.3623,-3.4361,-3.4459,-3.5002,-3.5799,-3.5799,-3.5799,-3.5799,-3.5799,-3.5799,-3.5799,-3.5799,-3.5799,-3.5799,-3.5799,-3.5799,-3.5799,-3.5799,-3.5799,-3.5799,-3.5799,-3.5679,-3.5519,-3.5519,-3.5369,-3.5226,-3.5226,-3.5209,-3.5209,-3.5209,-3.5209,-3.5439,-3.6222,-3.6844,-3.7583,-3.8518,-3.8609,-3.8748,-3.9339,-3.9429,-3.9402,-3.932,-3.9339,-3.9376,-3.947,-3.9445,-3.9483,-3.9602,-3.9602,-3.9602,-3.9602,-3.9602,-3.9602,-3.9602,-3.9602,-3.9602,-3.9602,-3.9602,-3.9564,-3.9445,-3.9564,-3.9564,-3.9451,-3.8657,-3.7812,-3.5114,-3.5181,-3.5198,-3.5193,-3.5209,0.0,-3.5226,-3.5219,-3.5262,-3.5398,-3.5543,-3.5661,-3.5793,-3.5913,-3.5991,-3.5991,-3.5991,-3.5989,-3.5903,-3.5903,-3.5881,-3.5818,-3.5799,-3.5765,-3.5678,-3.5562,-3.5098,-3.415,-3.2632,-3.1293,-3.0242,-3.0204,-3.0204,-3.0204,-3.0204,-3.0204,-3.0204,-3.0273,-3.0321,-3.0381,-3.054,-3.0629,-3.0695,-3.0865,-3.1331,-3.2004,-3.2186,-3.2749,-3.3584,-3.4225,-3.5002,-3.5799,-3.5799,-3.5799,-3.5799,-3.5799,-3.5799,-3.5799,-3.5799,-3.5799,-3.5799,-3.5799,-3.5799,-3.5799,-3.5799,-3.5799,-3.5799,-3.5799,-3.5737,-3.5667,-3.5667,-3.5509,-3.535,-3.535,-3.5273,-3.5209,-3.5209,-3.5209,-3.5248,-3.542,-3.6023,-3.6806,-3.7681,-3.7695,-3.7624,-3.7753,-3.7683,-3.7615,-3.7591,-3.7587,-3.7831,-3.8488,-3.8544,-3.8845,-3.9545,-3.9602,-3.9602,-3.9602,-3.9602,-3.9602,-3.9602,-3.9602,-3.9602,-3.9602,-3.9602,-3.9239,-3.8563,-3.9258,-3.9239,-3.8544,-3.8375,-3.753,-3.5057,-3.5198,-3.5196,-3.5193,-3.5209,0.0,0.0,-3.5242,-3.5293,-3.5407,-3.5558,-3.5685,-3.5773,-3.5903,-3.5991,-3.5991,-3.5991,-3.5982,-3.5918,-3.5909,-3.5893,-3.5852,-3.5823,-3.5765,-3.5718,-3.5574,-3.5085,-3.4112,-3.2832,-3.1732,-3.0892,-3.0433,-3.0204,-3.0204,-3.0204,-3.0213,-3.0247,-3.0309,-3.04,-3.0501,-3.0602,-3.0668,-3.069,-3.069,-3.0943,-3.1351,-3.1351,-3.1856,-3.2691,-3.3099,-3.3992,-3.5197,-3.5624,-3.5799,-3.5799,-3.5799,-3.5799,-3.5799,-3.5799,-3.5799,-3.5799,-3.5799,-3.5799,-3.5799,-3.5799,-3.5799,-3.5799,-3.5799,-3.5747,-3.5707,-3.5707,-3.5553,-3.5412,-3.5412,-3.5304,-3.5209,-3.5209,-3.5209,-3.5209,-3.5209,-3.5469,-3.5968,-3.6805,-3.6882,-3.6915,-3.7246,-3.7257,-3.719,-3.7122,-3.7099,-3.7249,-3.7662,-3.7699,-3.7868,-3.8324,-3.8362,-3.8362,-3.8362,-3.8362,-3.8362,-3.8362,-3.8362,-3.8362,-3.8362,-3.8362,-3.8131,-3.7699,-3.8131,-3.8112,-3.7681,-3.7286,-3.6667,-3.5075,-3.5196,-3.5209,-3.5209,-3.5209,-3.5209,0.0,0.0,0.0,-3.5469,-3.5607,-3.5713,-3.5795,-3.5908,-3.6004,-3.5991,-3.5991,-3.5971,-3.5932,-3.5921,-3.5905,-3.5891,-3.5838,-3.5773,-3.5718,-3.5574,-3.5072,-3.4087,-3.3337,-3.2501,-3.156,-3.0835,-3.0376,-3.0204,-3.0213,-3.0247,-3.0304,-3.04,-3.0482,-3.0604,-3.0668,-3.069,-3.069,-3.069,-3.069,-3.069,-3.069,-3.1098,-3.1759,-3.1933,-3.2807,-3.4128,-3.5158,-3.5643,-3.5799,-3.5799,-3.5799,-3.5799,-3.5799,-3.5799,-3.5799,-3.5799,-3.5799,-3.5799,-3.5799,-3.5799,-3.5799,-3.5799,-3.5756,-3.5708,-3.5678,-3.5534,-3.5407,-3.5364,-3.5273,-3.5209,-3.5209,-3.5209,-3.5209,-3.5209,-3.5162,-3.5302,-3.5931,-3.6026,-3.6198,-3.6696,-3.6767,-3.6745,-3.6633,-3.661,-3.6667,-3.6836,-3.6855,-3.693,-3.708,-3.7099,-3.7099,-3.7099,-3.7099,-3.7099,-3.7099,-3.7099,-3.7099,-3.7099,-3.7099,-3.7005,-3.6855,-3.6855,-3.6855,-3.6836,-3.6197,-3.5803,-3.5129,-3.5196,-3.5209,-3.5209,-3.5209,-3.5209,-3.5209,0.0,-3.5391,-3.5412,0.0,-3.572,-3.5791,0.0,0.0,-3.6007,-3.5991,-3.5991,-3.5991,-3.5984,-3.5974,-3.5903,-3.5838,-3.5791,-3.5782,-3.5557,-3.5033,-3.415,-3.3884,-3.3099,-3.158,-3.1408,-3.1006,-3.0223,-3.026,-3.0292,-3.0304,-3.0472,-3.0567,-3.0604,-3.0668,-3.069,-3.069,-3.069,-3.069,-3.069,-3.069,-3.0749,-3.0904,-3.1681,-3.2108,-3.2438,-3.4031,-3.5119,-3.5799,-3.5799,-3.5799,-3.5799,-3.5799,-3.5799,-3.5799,-3.5799,-3.5799,-3.5799,-3.5799,-3.5799,-3.5799,-3.5799,-3.5791,-3.5756,-3.5574,-3.5514,-3.5432,-3.527,-3.5209,-3.5209,-3.5209,-3.5209,-3.5209,-3.5209,-3.5162,-3.5094,-3.5059,-3.5001,-3.4958,-3.4908,-3.4905,-3.4905,-3.4883,-3.4883,-3.5184,-3.5953,-3.6047,-3.6329,-3.7024,-3.7099,-3.7099,-3.7099,-3.7099,-3.7099,-3.7099,-3.7099,-3.7099,-3.7099,-3.7099,-3.6742,-3.6047,-3.6047,-3.6047,-3.6028,-3.5935,-3.5484,-3.5129,-3.5198,-3.5196,-3.5193,-3.5212,-3.5229,-3.5296,-3.5354,-3.5422,-3.5502,0.0,0.0,0.0,0.0,0.0,0.0,-3.5991,-3.5991,-3.5991,-3.5991,-3.5974,-3.5919,-3.5872,-3.584,-3.5757,-3.5648,-3.5396,-3.4944,-3.4436,-3.3832,-3.3167,-3.2173,-3.1443,-3.1078,-3.0606,-3.0389,-3.0462,-3.0568,-3.0621,-3.0653,-3.0683,-3.0691,-3.0709,-3.0709,-3.0725,-3.0759,-3.0759,-3.074,-3.0728,-3.1098,-3.154,-3.2128,-3.3332,-3.4303,-3.5119,-3.5605,-3.5799,-3.5799,-3.5799,-3.5799,-3.5799,-3.5799,-3.5799,-3.5799,-3.5799,-3.5799,-3.5799,-3.5799,-3.5799,-3.5782,-3.5699,-3.5596,-3.5483,-3.5391,-3.5281,-3.5209,-3.5209,-3.5209,-3.5209,-3.5209,-3.5162,-3.5057,-3.4927,-3.4849,-3.4747,-3.4623,-3.4602,-3.4602,-3.4602,-3.4602,-3.4733,-3.5108,-3.5146,-3.5277,-3.5615,-3.5634,-3.5634,-3.5634,-3.5634,-3.5634,-3.5634,-3.5634,-3.5634,-3.5634,-3.5634,-3.5465,-3.5146,-3.5146,-3.5146,-3.5146,-3.5146,-3.494,-3.5092,-3.5183,-3.5198,-3.5193,-3.5196,-3.5229,-3.5383,-3.5427,-3.5489,-3.5604,-3.5714,0.0,0.0,0.0,-3.5992,-3.6007,0.0,-3.5991,-3.5991,-3.5999,-3.5976,-3.5916,-3.5878,-3.5833,-3.5728,-3.5678,-3.5626,-3.5531,-3.4936,-3.4511,-3.4299,-3.3103,-3.2293,-3.2072,-3.1263,-3.0849,-3.0963,-3.0734,-3.0644,-3.0698,-3.0722,-3.073,-3.0724,-3.0724,-3.0758,-3.0801,-3.0801,-3.0768,-3.0724,-3.0724,-3.1081,-3.1728,-3.2603,-3.3444,-3.4303,-3.541,-3.5799,-3.5799,-3.5799,-3.5799,-3.5799,-3.5799,-3.5799,-3.5799,-3.5799,-3.5799,-3.5799,-3.5799,-3.5799,-3.5791,-3.5773,-3.5669,-3.5538,-3.5489,-3.5374,-3.5242,-3.5209,-3.5209,-3.5209,-3.5209,-3.5108,-3.502,-3.4927,-3.4849,-3.4747,-3.4623,-3.4602,-3.4602,-3.4602,-3.4602,-3.4602,-3.4602,-3.4602,-3.4602,-3.4602,-3.4602,-3.4602,-3.4602,-3.4602,-3.4602,-3.4602,-3.4602,-3.4602,-3.4602,-3.4602,-3.4602,-3.4602,-3.4602,-3.4602,-3.4602,-3.4602,-3.4602,-3.5075,-3.5147,-3.5198,-3.5193,-3.5209,-3.5239,-3.5364,-3.5495,-3.5618,-3.567,-3.5799,-3.5897,-3.5897,-3.5943,-3.599,-3.601,-3.5991,0.0,0.0,-3.5992,-3.5986,-3.5908,-3.5842,-3.5795,-3.5805,-3.5687,-3.5593,-3.5607,-3.5449,-3.5046,-3.4338,-3.4241,-3.3828,-3.299,-3.2242,-3.1854,-3.1854,-3.1093,-3.0697,-3.0701,-3.0765,-3.0799,-3.0799,-3.0799,-3.0799,-3.0801,-3.0801,-3.0799,-3.0799,-3.0799,-3.0781,-3.0838,-3.1695,-3.2571,-3.3546,-3.5197,-3.5799,-3.5799,-3.5799,-3.5799,-3.5799,-3.5799,-3.5799,-3.5799,-3.5799,-3.5799,-3.5799,-3.5799,-3.5799,-3.5782,-3.5708,-3.5707,-3.5646,-3.5449,-3.5412,-3.535,-3.5226,-3.5209,-3.5209,-3.5209,-3.5037,-3.4908,-3.4908,-3.4849,-3.4747,-3.4623,-3.4602,-3.4602,-3.4602,-3.4602,-3.4602,-3.4602,-3.4602,-3.4602,-3.4602,-3.4602,-3.4602,-3.4602,-3.4602,-3.4602,-3.4602,-3.4602,-3.4602,-3.4602,-3.4602,-3.4602,-3.4602,-3.4602,-3.4602,-3.4602,-3.4602,-3.4602,-3.502,-3.5127,-3.5196,-3.5215,-3.527,-3.5372,-3.5507,-3.5599,-3.5688,-3.5806,-3.5864,-3.5909,-3.5953,-3.5981,-3.6004,-3.5991,-3.5991,-3.5991,0.0,-3.5992,-3.5982,-3.5965,-3.59,-3.5823,-3.5737,-3.5737,-3.5737,-3.5728,-3.5699,-3.5563,-3.5321,-3.4758,-3.4329,-3.4073,-3.3258,-3.2822,-3.2825,-3.203,-3.163,-3.163,-3.105,-3.0808,-3.0798,-3.0798,-3.08,-3.0799,-3.0799,-3.0801,-3.0798,-3.0798,-3.079,-3.0843,-3.1741,-3.2571,-3.3433,-3.4532,-3.5294,-3.5799,-3.5799,-3.5799,-3.5799,-3.5799,-3.5799,-3.5799,-3.5799,-3.5799,-3.5799,-3.5799,-3.5799,-3.5791,-3.5765,-3.5728,-3.5657,-3.5502,-3.543,-3.535,-3.5226,-3.5209,-3.5193,-3.5126,-3.502,-3.4889,-3.483,-3.4728,-3.4645,-3.4623,-3.4602,-3.4602,-3.4602,-3.4602,-3.4602,-3.4602,-3.4602,-3.4602,-3.4602,-3.4602,-3.4602,-3.4602,-3.4602,-3.4602,-3.4602,-3.4602,-3.4602,-3.4602,-3.4602,-3.4602,-3.4602,-3.4602,-3.4602,-3.4602,-3.4602,-3.4602,-3.5001,-3.5108,-3.5209,-3.5231,-3.5311,-3.5451,-3.5588,-3.5669,-3.5743,-3.5872,-3.5904,-3.5899,-3.5958,-3.5974,-3.6004,-3.5991,-3.5991,-3.5991,0.0,-3.6007,-3.5995,-3.5977,-3.5939,-3.587,-3.5779,-3.581,-3.584,-3.5845,-3.5833,-3.584,-3.584,-3.5295,-3.5026,-3.5061,-3.4226,-3.3754,-3.3754,-3.2926,-3.2499,-3.248,-3.16,-3.1205,-3.122,-3.0907,-3.0788,-3.0801,-3.0801,-3.081,-3.0798,-3.0798,-3.0801,-3.0889,-3.1768,-3.2592,-3.3395,-3.4231,-3.5065,-3.5799,-3.5799,-3.5799,-3.5799,-3.5799,-3.5799,-3.5799,-3.5799,-3.5799,-3.5799,-3.5799,-3.5799,-3.5799,-3.5799,-3.5765,-3.5698,-3.555,-3.5464,-3.5388,-3.5223,-3.5209,-3.5193,-3.5126,-3.502,-3.4889,-3.4849,-3.4708,-3.4602,-3.4602,-3.4602,-3.4602,-3.4602,-3.4602,-3.4602,-3.4602,-3.4602,-3.4602,-3.4602,-3.4602,-3.4602,-3.4602,-3.4602,-3.4602,-3.4602,-3.4602,-3.4602,-3.4602,-3.4602,-3.4602,-3.4602,-3.4602,-3.4602,-3.4602,-3.4602,-3.4602]}]]